<?xml version="1.0" encoding="UTF-8" standalone="no" ?>
<gpx xmlns="http://www.topografix.com/GPX/1/1" xmlns:xsi="http://www.w3.org/2001/XMLSchema-instance" xsi:schemaLocation="http://www.topografix.com/GPX/1/1 http://www.topografix.com/GPX/1/1/gpx.xsd" version="1.1" creator="VisuGPX - https://www.visugpx.com">
  <metadata>
    <name>Mouans-Sartoux after Taf</name>
    <desc><![CDATA[VTT - Mouans-Sartoux after Taf]]></desc>
  </metadata>
  <trk>
    <name><![CDATA[2017-07-05T15:18:11Z]]></name>
    <trkseg>
      <trkpt lat="43.61038" lon="6.95306">
        <ele>169.7999878</ele>
        <time>2017-07-05T15:18:11Z</time>
      </trkpt>
      <trkpt lat="43.61039" lon="6.95307">
        <ele>169.4000244</ele>
        <time>2017-07-05T15:18:18Z</time>
      </trkpt>
      <trkpt lat="43.61037" lon="6.9531">
        <ele>169</ele>
        <time>2017-07-05T15:18:21Z</time>
      </trkpt>
      <trkpt lat="43.61036" lon="6.95313">
        <ele>168.7999878</ele>
        <time>2017-07-05T15:18:23Z</time>
      </trkpt>
      <trkpt lat="43.61035" lon="6.95314">
        <ele>168.7999878</ele>
        <time>2017-07-05T15:18:24Z</time>
      </trkpt>
      <trkpt lat="43.61032" lon="6.95314">
        <ele>168.5999756</ele>
        <time>2017-07-05T15:18:27Z</time>
      </trkpt>
      <trkpt lat="43.61032" lon="6.9531">
        <ele>169.7999878</ele>
        <time>2017-07-05T15:18:32Z</time>
      </trkpt>
      <trkpt lat="43.61032" lon="6.95308">
        <ele>169.7999878</ele>
        <time>2017-07-05T15:18:33Z</time>
      </trkpt>
      <trkpt lat="43.61032" lon="6.95307">
        <ele>170.5999756</ele>
        <time>2017-07-05T15:18:36Z</time>
      </trkpt>
      <trkpt lat="43.6103" lon="6.95306">
        <ele>170.5999756</ele>
        <time>2017-07-05T15:18:38Z</time>
      </trkpt>
      <trkpt lat="43.61028" lon="6.95306">
        <ele>170.5999756</ele>
        <time>2017-07-05T15:18:39Z</time>
      </trkpt>
      <trkpt lat="43.61027" lon="6.95306">
        <ele>170.7999878</ele>
        <time>2017-07-05T15:18:40Z</time>
      </trkpt>
      <trkpt lat="43.61024" lon="6.95305">
        <ele>171.2000122</ele>
        <time>2017-07-05T15:18:42Z</time>
      </trkpt>
      <trkpt lat="43.61024" lon="6.95299">
        <ele>171.4000244</ele>
        <time>2017-07-05T15:18:44Z</time>
      </trkpt>
      <trkpt lat="43.61022" lon="6.95285">
        <ele>170.4000244</ele>
        <time>2017-07-05T15:18:49Z</time>
      </trkpt>
      <trkpt lat="43.61029" lon="6.95278">
        <ele>169.7999878</ele>
        <time>2017-07-05T15:18:53Z</time>
      </trkpt>
      <trkpt lat="43.61032" lon="6.95277">
        <ele>169.7999878</ele>
        <time>2017-07-05T15:18:54Z</time>
      </trkpt>
      <trkpt lat="43.61047" lon="6.95264">
        <ele>169.5999756</ele>
        <time>2017-07-05T15:19:00Z</time>
      </trkpt>
      <trkpt lat="43.61057" lon="6.95249">
        <ele>169</ele>
        <time>2017-07-05T15:19:05Z</time>
      </trkpt>
      <trkpt lat="43.61057" lon="6.95243">
        <ele>168.7999878</ele>
        <time>2017-07-05T15:19:07Z</time>
      </trkpt>
      <trkpt lat="43.61054" lon="6.95236">
        <ele>169</ele>
        <time>2017-07-05T15:19:09Z</time>
      </trkpt>
      <trkpt lat="43.61053" lon="6.95232">
        <ele>168.7999878</ele>
        <time>2017-07-05T15:19:10Z</time>
      </trkpt>
      <trkpt lat="43.61047" lon="6.95222">
        <ele>168.4000244</ele>
        <time>2017-07-05T15:19:13Z</time>
      </trkpt>
      <trkpt lat="43.61043" lon="6.9522">
        <ele>168.4000244</ele>
        <time>2017-07-05T15:19:14Z</time>
      </trkpt>
      <trkpt lat="43.6103" lon="6.95208">
        <ele>168.2000122</ele>
        <time>2017-07-05T15:19:19Z</time>
      </trkpt>
      <trkpt lat="43.61016" lon="6.95192">
        <ele>167.5999756</ele>
        <time>2017-07-05T15:19:24Z</time>
      </trkpt>
      <trkpt lat="43.61013" lon="6.95189">
        <ele>167.5999756</ele>
        <time>2017-07-05T15:19:25Z</time>
      </trkpt>
      <trkpt lat="43.60994" lon="6.95167">
        <ele>167.4000244</ele>
        <time>2017-07-05T15:19:31Z</time>
      </trkpt>
      <trkpt lat="43.60975" lon="6.95153">
        <ele>166.2000122</ele>
        <time>2017-07-05T15:19:36Z</time>
      </trkpt>
      <trkpt lat="43.60965" lon="6.95149">
        <ele>165.7999878</ele>
        <time>2017-07-05T15:19:38Z</time>
      </trkpt>
      <trkpt lat="43.60938" lon="6.9514">
        <ele>165.2000122</ele>
        <time>2017-07-05T15:19:43Z</time>
      </trkpt>
      <trkpt lat="43.60928" lon="6.95137">
        <ele>164.4000244</ele>
        <time>2017-07-05T15:19:45Z</time>
      </trkpt>
      <trkpt lat="43.60919" lon="6.95134">
        <ele>164</ele>
        <time>2017-07-05T15:19:47Z</time>
      </trkpt>
      <trkpt lat="43.60914" lon="6.95131">
        <ele>164</ele>
        <time>2017-07-05T15:19:48Z</time>
      </trkpt>
      <trkpt lat="43.60905" lon="6.95128">
        <ele>163.7999878</ele>
        <time>2017-07-05T15:19:50Z</time>
      </trkpt>
      <trkpt lat="43.60896" lon="6.95125">
        <ele>163.7999878</ele>
        <time>2017-07-05T15:19:52Z</time>
      </trkpt>
      <trkpt lat="43.6088" lon="6.9512">
        <ele>163.7999878</ele>
        <time>2017-07-05T15:19:56Z</time>
      </trkpt>
      <trkpt lat="43.60859" lon="6.95113">
        <ele>164.4000244</ele>
        <time>2017-07-05T15:20:02Z</time>
      </trkpt>
      <trkpt lat="43.60835" lon="6.95104">
        <ele>165</ele>
        <time>2017-07-05T15:20:09Z</time>
      </trkpt>
      <trkpt lat="43.60821" lon="6.95098">
        <ele>166.2000122</ele>
        <time>2017-07-05T15:20:14Z</time>
      </trkpt>
      <trkpt lat="43.60815" lon="6.95096">
        <ele>166.4000244</ele>
        <time>2017-07-05T15:20:16Z</time>
      </trkpt>
      <trkpt lat="43.6081" lon="6.95093">
        <ele>166.5999756</ele>
        <time>2017-07-05T15:20:19Z</time>
      </trkpt>
      <trkpt lat="43.60808" lon="6.9509">
        <ele>167.2000122</ele>
        <time>2017-07-05T15:20:21Z</time>
      </trkpt>
      <trkpt lat="43.60809" lon="6.95084">
        <ele>167.4000244</ele>
        <time>2017-07-05T15:20:23Z</time>
      </trkpt>
      <trkpt lat="43.6081" lon="6.95077">
        <ele>167.2000122</ele>
        <time>2017-07-05T15:20:25Z</time>
      </trkpt>
      <trkpt lat="43.60811" lon="6.95073">
        <ele>167.2000122</ele>
        <time>2017-07-05T15:20:26Z</time>
      </trkpt>
      <trkpt lat="43.60815" lon="6.95047">
        <ele>167</ele>
        <time>2017-07-05T15:20:33Z</time>
      </trkpt>
      <trkpt lat="43.60817" lon="6.95034">
        <ele>166.2000122</ele>
        <time>2017-07-05T15:20:37Z</time>
      </trkpt>
      <trkpt lat="43.60818" lon="6.95026">
        <ele>165.7999878</ele>
        <time>2017-07-05T15:20:39Z</time>
      </trkpt>
      <trkpt lat="43.60819" lon="6.95011">
        <ele>165.2000122</ele>
        <time>2017-07-05T15:20:42Z</time>
      </trkpt>
      <trkpt lat="43.6082" lon="6.94997">
        <ele>164.7999878</ele>
        <time>2017-07-05T15:20:44Z</time>
      </trkpt>
      <trkpt lat="43.60821" lon="6.94982">
        <ele>164</ele>
        <time>2017-07-05T15:20:46Z</time>
      </trkpt>
      <trkpt lat="43.60823" lon="6.94965">
        <ele>163.2000122</ele>
        <time>2017-07-05T15:20:48Z</time>
      </trkpt>
      <trkpt lat="43.60824" lon="6.94957">
        <ele>162.7999878</ele>
        <time>2017-07-05T15:20:49Z</time>
      </trkpt>
      <trkpt lat="43.60823" lon="6.94932">
        <ele>161.5999756</ele>
        <time>2017-07-05T15:20:52Z</time>
      </trkpt>
      <trkpt lat="43.60821" lon="6.94906">
        <ele>160.5999756</ele>
        <time>2017-07-05T15:20:55Z</time>
      </trkpt>
      <trkpt lat="43.6082" lon="6.94875">
        <ele>160.4000244</ele>
        <time>2017-07-05T15:20:58Z</time>
      </trkpt>
      <trkpt lat="43.60818" lon="6.94864">
        <ele>160.4000244</ele>
        <time>2017-07-05T15:20:59Z</time>
      </trkpt>
      <trkpt lat="43.60809" lon="6.94836">
        <ele>160.4000244</ele>
        <time>2017-07-05T15:21:02Z</time>
      </trkpt>
      <trkpt lat="43.60806" lon="6.94827">
        <ele>160.2000122</ele>
        <time>2017-07-05T15:21:03Z</time>
      </trkpt>
      <trkpt lat="43.60804" lon="6.94819">
        <ele>160.2000122</ele>
        <time>2017-07-05T15:21:04Z</time>
      </trkpt>
      <trkpt lat="43.60796" lon="6.9481">
        <ele>159.7999878</ele>
        <time>2017-07-05T15:21:06Z</time>
      </trkpt>
      <trkpt lat="43.60791" lon="6.94809">
        <ele>159.5999756</ele>
        <time>2017-07-05T15:21:07Z</time>
      </trkpt>
      <trkpt lat="43.60782" lon="6.94811">
        <ele>158.7999878</ele>
        <time>2017-07-05T15:21:09Z</time>
      </trkpt>
      <trkpt lat="43.60779" lon="6.94812">
        <ele>158.5999756</ele>
        <time>2017-07-05T15:21:10Z</time>
      </trkpt>
      <trkpt lat="43.60777" lon="6.94812">
        <ele>158.4000244</ele>
        <time>2017-07-05T15:21:11Z</time>
      </trkpt>
      <trkpt lat="43.60766" lon="6.94811">
        <ele>157.4000244</ele>
        <time>2017-07-05T15:21:14Z</time>
      </trkpt>
      <trkpt lat="43.60762" lon="6.94812">
        <ele>157.2000122</ele>
        <time>2017-07-05T15:21:15Z</time>
      </trkpt>
      <trkpt lat="43.60745" lon="6.94811">
        <ele>156.2000122</ele>
        <time>2017-07-05T15:21:18Z</time>
      </trkpt>
      <trkpt lat="43.60741" lon="6.94809">
        <ele>155.7999878</ele>
        <time>2017-07-05T15:21:19Z</time>
      </trkpt>
      <trkpt lat="43.60732" lon="6.94793">
        <ele>155</ele>
        <time>2017-07-05T15:21:22Z</time>
      </trkpt>
      <trkpt lat="43.6073" lon="6.94776">
        <ele>154.4000244</ele>
        <time>2017-07-05T15:21:24Z</time>
      </trkpt>
      <trkpt lat="43.60728" lon="6.94758">
        <ele>153.7999878</ele>
        <time>2017-07-05T15:21:26Z</time>
      </trkpt>
      <trkpt lat="43.60726" lon="6.9474">
        <ele>153.4000244</ele>
        <time>2017-07-05T15:21:28Z</time>
      </trkpt>
      <trkpt lat="43.60722" lon="6.94715">
        <ele>152.7999878</ele>
        <time>2017-07-05T15:21:31Z</time>
      </trkpt>
      <trkpt lat="43.60718" lon="6.9469">
        <ele>151.5999756</ele>
        <time>2017-07-05T15:21:34Z</time>
      </trkpt>
      <trkpt lat="43.60715" lon="6.94664">
        <ele>150.5999756</ele>
        <time>2017-07-05T15:21:37Z</time>
      </trkpt>
      <trkpt lat="43.6071" lon="6.94635">
        <ele>149.2000122</ele>
        <time>2017-07-05T15:21:40Z</time>
      </trkpt>
      <trkpt lat="43.60709" lon="6.94625">
        <ele>148.7999878</ele>
        <time>2017-07-05T15:21:41Z</time>
      </trkpt>
      <trkpt lat="43.60705" lon="6.94607">
        <ele>147.5999756</ele>
        <time>2017-07-05T15:21:43Z</time>
      </trkpt>
      <trkpt lat="43.60697" lon="6.94597">
        <ele>146.5999756</ele>
        <time>2017-07-05T15:21:45Z</time>
      </trkpt>
      <trkpt lat="43.60687" lon="6.94595">
        <ele>145.4000244</ele>
        <time>2017-07-05T15:21:47Z</time>
      </trkpt>
      <trkpt lat="43.60682" lon="6.94597">
        <ele>144.7999878</ele>
        <time>2017-07-05T15:21:48Z</time>
      </trkpt>
      <trkpt lat="43.60677" lon="6.946">
        <ele>144</ele>
        <time>2017-07-05T15:21:49Z</time>
      </trkpt>
      <trkpt lat="43.60666" lon="6.9461">
        <ele>142.4000244</ele>
        <time>2017-07-05T15:21:51Z</time>
      </trkpt>
      <trkpt lat="43.6066" lon="6.94616">
        <ele>141.2000122</ele>
        <time>2017-07-05T15:21:52Z</time>
      </trkpt>
      <trkpt lat="43.60648" lon="6.94628">
        <ele>139.4000244</ele>
        <time>2017-07-05T15:21:54Z</time>
      </trkpt>
      <trkpt lat="43.60636" lon="6.94641">
        <ele>137.4000244</ele>
        <time>2017-07-05T15:21:56Z</time>
      </trkpt>
      <trkpt lat="43.6063" lon="6.94648">
        <ele>136.2000122</ele>
        <time>2017-07-05T15:21:57Z</time>
      </trkpt>
      <trkpt lat="43.60624" lon="6.94655">
        <ele>135</ele>
        <time>2017-07-05T15:21:58Z</time>
      </trkpt>
      <trkpt lat="43.60618" lon="6.94662">
        <ele>134</ele>
        <time>2017-07-05T15:21:59Z</time>
      </trkpt>
      <trkpt lat="43.60613" lon="6.94669">
        <ele>133</ele>
        <time>2017-07-05T15:22:00Z</time>
      </trkpt>
      <trkpt lat="43.60608" lon="6.94673">
        <ele>132</ele>
        <time>2017-07-05T15:22:01Z</time>
      </trkpt>
      <trkpt lat="43.60604" lon="6.94675">
        <ele>131.4000244</ele>
        <time>2017-07-05T15:22:02Z</time>
      </trkpt>
      <trkpt lat="43.606" lon="6.94673">
        <ele>130.7999878</ele>
        <time>2017-07-05T15:22:03Z</time>
      </trkpt>
      <trkpt lat="43.60598" lon="6.94669">
        <ele>130.2000122</ele>
        <time>2017-07-05T15:22:04Z</time>
      </trkpt>
      <trkpt lat="43.60598" lon="6.94664">
        <ele>129.7999878</ele>
        <time>2017-07-05T15:22:05Z</time>
      </trkpt>
      <trkpt lat="43.60596" lon="6.94656">
        <ele>128.5999756</ele>
        <time>2017-07-05T15:22:07Z</time>
      </trkpt>
      <trkpt lat="43.60595" lon="6.94648">
        <ele>127.5999756</ele>
        <time>2017-07-05T15:22:09Z</time>
      </trkpt>
      <trkpt lat="43.60595" lon="6.94641">
        <ele>126.5999756</ele>
        <time>2017-07-05T15:22:11Z</time>
      </trkpt>
      <trkpt lat="43.60593" lon="6.94629">
        <ele>125.4000244</ele>
        <time>2017-07-05T15:22:14Z</time>
      </trkpt>
      <trkpt lat="43.60591" lon="6.9462">
        <ele>124.7999878</ele>
        <time>2017-07-05T15:22:16Z</time>
      </trkpt>
      <trkpt lat="43.6059" lon="6.94612">
        <ele>124.4000244</ele>
        <time>2017-07-05T15:22:18Z</time>
      </trkpt>
      <trkpt lat="43.60589" lon="6.9459">
        <ele>123.7999878</ele>
        <time>2017-07-05T15:22:23Z</time>
      </trkpt>
      <trkpt lat="43.60586" lon="6.94567">
        <ele>124</ele>
        <time>2017-07-05T15:22:29Z</time>
      </trkpt>
      <trkpt lat="43.60579" lon="6.94547">
        <ele>124.5999756</ele>
        <time>2017-07-05T15:22:34Z</time>
      </trkpt>
      <trkpt lat="43.60567" lon="6.94544">
        <ele>124.5999756</ele>
        <time>2017-07-05T15:22:37Z</time>
      </trkpt>
      <trkpt lat="43.60552" lon="6.94551">
        <ele>125.2000122</ele>
        <time>2017-07-05T15:22:41Z</time>
      </trkpt>
      <trkpt lat="43.60549" lon="6.94553">
        <ele>125.2000122</ele>
        <time>2017-07-05T15:22:42Z</time>
      </trkpt>
      <trkpt lat="43.60543" lon="6.94558">
        <ele>125.5999756</ele>
        <time>2017-07-05T15:22:44Z</time>
      </trkpt>
      <trkpt lat="43.60535" lon="6.94565">
        <ele>126</ele>
        <time>2017-07-05T15:22:47Z</time>
      </trkpt>
      <trkpt lat="43.60518" lon="6.9458">
        <ele>126.7999878</ele>
        <time>2017-07-05T15:22:53Z</time>
      </trkpt>
      <trkpt lat="43.60512" lon="6.94585">
        <ele>127</ele>
        <time>2017-07-05T15:22:55Z</time>
      </trkpt>
      <trkpt lat="43.60498" lon="6.94601">
        <ele>127.7999878</ele>
        <time>2017-07-05T15:23:01Z</time>
      </trkpt>
      <trkpt lat="43.60488" lon="6.9461">
        <ele>129.2000122</ele>
        <time>2017-07-05T15:23:05Z</time>
      </trkpt>
      <trkpt lat="43.6048" lon="6.94616">
        <ele>130.5999756</ele>
        <time>2017-07-05T15:23:08Z</time>
      </trkpt>
      <trkpt lat="43.60477" lon="6.94618">
        <ele>130.5999756</ele>
        <time>2017-07-05T15:23:09Z</time>
      </trkpt>
      <trkpt lat="43.60466" lon="6.94628">
        <ele>131.7999878</ele>
        <time>2017-07-05T15:23:14Z</time>
      </trkpt>
      <trkpt lat="43.60463" lon="6.94629">
        <ele>132.2000122</ele>
        <time>2017-07-05T15:23:15Z</time>
      </trkpt>
      <trkpt lat="43.60442" lon="6.94641">
        <ele>130.4000244</ele>
        <time>2017-07-05T15:23:21Z</time>
      </trkpt>
      <trkpt lat="43.60433" lon="6.94644">
        <ele>130.2000122</ele>
        <time>2017-07-05T15:23:23Z</time>
      </trkpt>
      <trkpt lat="43.60416" lon="6.94649">
        <ele>129.5999756</ele>
        <time>2017-07-05T15:23:27Z</time>
      </trkpt>
      <trkpt lat="43.60412" lon="6.94654">
        <ele>129.5999756</ele>
        <time>2017-07-05T15:23:29Z</time>
      </trkpt>
      <trkpt lat="43.60412" lon="6.94659">
        <ele>129.4000244</ele>
        <time>2017-07-05T15:23:30Z</time>
      </trkpt>
      <trkpt lat="43.60416" lon="6.94682">
        <ele>128.2000122</ele>
        <time>2017-07-05T15:23:34Z</time>
      </trkpt>
      <trkpt lat="43.60417" lon="6.94689">
        <ele>127.7999878</ele>
        <time>2017-07-05T15:23:35Z</time>
      </trkpt>
      <trkpt lat="43.60417" lon="6.94696">
        <ele>127.4000244</ele>
        <time>2017-07-05T15:23:36Z</time>
      </trkpt>
      <trkpt lat="43.60416" lon="6.94703">
        <ele>127.2000122</ele>
        <time>2017-07-05T15:23:37Z</time>
      </trkpt>
      <trkpt lat="43.60413" lon="6.94709">
        <ele>126.7999878</ele>
        <time>2017-07-05T15:23:38Z</time>
      </trkpt>
      <trkpt lat="43.60402" lon="6.94717">
        <ele>126</ele>
        <time>2017-07-05T15:23:41Z</time>
      </trkpt>
      <trkpt lat="43.6039" lon="6.94716">
        <ele>125.7999878</ele>
        <time>2017-07-05T15:23:44Z</time>
      </trkpt>
      <trkpt lat="43.60382" lon="6.94716">
        <ele>125.5999756</ele>
        <time>2017-07-05T15:23:46Z</time>
      </trkpt>
      <trkpt lat="43.60361" lon="6.9472">
        <ele>125.7999878</ele>
        <time>2017-07-05T15:23:52Z</time>
      </trkpt>
      <trkpt lat="43.60341" lon="6.9473">
        <ele>125.7999878</ele>
        <time>2017-07-05T15:23:58Z</time>
      </trkpt>
      <trkpt lat="43.60318" lon="6.94731">
        <ele>126.2000122</ele>
        <time>2017-07-05T15:24:04Z</time>
      </trkpt>
      <trkpt lat="43.60301" lon="6.94719">
        <ele>125.5999756</ele>
        <time>2017-07-05T15:24:09Z</time>
      </trkpt>
      <trkpt lat="43.6029" lon="6.94713">
        <ele>125.4000244</ele>
        <time>2017-07-05T15:24:12Z</time>
      </trkpt>
      <trkpt lat="43.6028" lon="6.9471">
        <ele>125.4000244</ele>
        <time>2017-07-05T15:24:14Z</time>
      </trkpt>
      <trkpt lat="43.60275" lon="6.94709">
        <ele>125</ele>
        <time>2017-07-05T15:24:15Z</time>
      </trkpt>
      <trkpt lat="43.60271" lon="6.94708">
        <ele>124.7999878</ele>
        <time>2017-07-05T15:24:16Z</time>
      </trkpt>
      <trkpt lat="43.60259" lon="6.94701">
        <ele>124.2000122</ele>
        <time>2017-07-05T15:24:19Z</time>
      </trkpt>
      <trkpt lat="43.60256" lon="6.94698">
        <ele>124.2000122</ele>
        <time>2017-07-05T15:24:20Z</time>
      </trkpt>
      <trkpt lat="43.60252" lon="6.94696">
        <ele>123.7999878</ele>
        <time>2017-07-05T15:24:21Z</time>
      </trkpt>
      <trkpt lat="43.60242" lon="6.94691">
        <ele>123.2000122</ele>
        <time>2017-07-05T15:24:24Z</time>
      </trkpt>
      <trkpt lat="43.60222" lon="6.94675">
        <ele>123.2000122</ele>
        <time>2017-07-05T15:24:30Z</time>
      </trkpt>
      <trkpt lat="43.60219" lon="6.94668">
        <ele>123.2000122</ele>
        <time>2017-07-05T15:24:32Z</time>
      </trkpt>
      <trkpt lat="43.60213" lon="6.94663">
        <ele>123.2000122</ele>
        <time>2017-07-05T15:24:34Z</time>
      </trkpt>
      <trkpt lat="43.602" lon="6.94663">
        <ele>123.2000122</ele>
        <time>2017-07-05T15:24:38Z</time>
      </trkpt>
      <trkpt lat="43.60187" lon="6.9467">
        <ele>122.7999878</ele>
        <time>2017-07-05T15:24:42Z</time>
      </trkpt>
      <trkpt lat="43.60178" lon="6.94675">
        <ele>122.5999756</ele>
        <time>2017-07-05T15:24:45Z</time>
      </trkpt>
      <trkpt lat="43.60161" lon="6.94687">
        <ele>123</ele>
        <time>2017-07-05T15:24:51Z</time>
      </trkpt>
      <trkpt lat="43.60141" lon="6.94706">
        <ele>123.2000122</ele>
        <time>2017-07-05T15:24:58Z</time>
      </trkpt>
      <trkpt lat="43.60123" lon="6.94724">
        <ele>124</ele>
        <time>2017-07-05T15:25:04Z</time>
      </trkpt>
      <trkpt lat="43.60111" lon="6.94735">
        <ele>125.2000122</ele>
        <time>2017-07-05T15:25:08Z</time>
      </trkpt>
      <trkpt lat="43.60102" lon="6.9474">
        <ele>126.2000122</ele>
        <time>2017-07-05T15:25:11Z</time>
      </trkpt>
      <trkpt lat="43.60095" lon="6.94744">
        <ele>127.4000244</ele>
        <time>2017-07-05T15:25:14Z</time>
      </trkpt>
      <trkpt lat="43.60093" lon="6.94747">
        <ele>127.5999756</ele>
        <time>2017-07-05T15:25:16Z</time>
      </trkpt>
      <trkpt lat="43.60087" lon="6.94748">
        <ele>128.4000244</ele>
        <time>2017-07-05T15:25:20Z</time>
      </trkpt>
      <trkpt lat="43.60086" lon="6.94749">
        <ele>129</ele>
        <time>2017-07-05T15:25:21Z</time>
      </trkpt>
      <trkpt lat="43.60081" lon="6.94749">
        <ele>129.5999756</ele>
        <time>2017-07-05T15:25:23Z</time>
      </trkpt>
      <trkpt lat="43.60076" lon="6.94749">
        <ele>130.5999756</ele>
        <time>2017-07-05T15:25:25Z</time>
      </trkpt>
      <trkpt lat="43.6007" lon="6.9475">
        <ele>132.2000122</ele>
        <time>2017-07-05T15:25:28Z</time>
      </trkpt>
      <trkpt lat="43.60068" lon="6.9475">
        <ele>132.7999878</ele>
        <time>2017-07-05T15:25:30Z</time>
      </trkpt>
      <trkpt lat="43.60067" lon="6.94749">
        <ele>133.2000122</ele>
        <time>2017-07-05T15:25:31Z</time>
      </trkpt>
      <trkpt lat="43.60066" lon="6.94747">
        <ele>133.7999878</ele>
        <time>2017-07-05T15:25:32Z</time>
      </trkpt>
      <trkpt lat="43.60062" lon="6.94736">
        <ele>133.2000122</ele>
        <time>2017-07-05T15:25:36Z</time>
      </trkpt>
      <trkpt lat="43.60057" lon="6.9473">
        <ele>133.5999756</ele>
        <time>2017-07-05T15:25:38Z</time>
      </trkpt>
      <trkpt lat="43.60052" lon="6.94724">
        <ele>134</ele>
        <time>2017-07-05T15:25:40Z</time>
      </trkpt>
      <trkpt lat="43.60051" lon="6.94721">
        <ele>134</ele>
        <time>2017-07-05T15:25:41Z</time>
      </trkpt>
      <trkpt lat="43.60051" lon="6.94718">
        <ele>134.5999756</ele>
        <time>2017-07-05T15:25:43Z</time>
      </trkpt>
      <trkpt lat="43.60053" lon="6.94715">
        <ele>134.5999756</ele>
        <time>2017-07-05T15:25:44Z</time>
      </trkpt>
      <trkpt lat="43.6006" lon="6.94703">
        <ele>134.5999756</ele>
        <time>2017-07-05T15:25:50Z</time>
      </trkpt>
      <trkpt lat="43.60069" lon="6.94686">
        <ele>134.2000122</ele>
        <time>2017-07-05T15:25:56Z</time>
      </trkpt>
      <trkpt lat="43.60076" lon="6.94669">
        <ele>134.4000244</ele>
        <time>2017-07-05T15:26:02Z</time>
      </trkpt>
      <trkpt lat="43.60081" lon="6.9465">
        <ele>135</ele>
        <time>2017-07-05T15:26:07Z</time>
      </trkpt>
      <trkpt lat="43.60086" lon="6.94634">
        <ele>135.4000244</ele>
        <time>2017-07-05T15:26:12Z</time>
      </trkpt>
      <trkpt lat="43.60087" lon="6.9463">
        <ele>135.5999756</ele>
        <time>2017-07-05T15:26:13Z</time>
      </trkpt>
      <trkpt lat="43.60092" lon="6.94616">
        <ele>136.4000244</ele>
        <time>2017-07-05T15:26:18Z</time>
      </trkpt>
      <trkpt lat="43.601" lon="6.94602">
        <ele>137</ele>
        <time>2017-07-05T15:26:23Z</time>
      </trkpt>
      <trkpt lat="43.60102" lon="6.946">
        <ele>137.2000122</ele>
        <time>2017-07-05T15:26:24Z</time>
      </trkpt>
      <trkpt lat="43.60104" lon="6.94595">
        <ele>138</ele>
        <time>2017-07-05T15:26:26Z</time>
      </trkpt>
      <trkpt lat="43.60111" lon="6.94586">
        <ele>138.4000244</ele>
        <time>2017-07-05T15:26:30Z</time>
      </trkpt>
      <trkpt lat="43.60123" lon="6.9457">
        <ele>138.5999756</ele>
        <time>2017-07-05T15:26:37Z</time>
      </trkpt>
      <trkpt lat="43.60135" lon="6.94551">
        <ele>139</ele>
        <time>2017-07-05T15:26:43Z</time>
      </trkpt>
      <trkpt lat="43.60137" lon="6.94548">
        <ele>139.2000122</ele>
        <time>2017-07-05T15:26:44Z</time>
      </trkpt>
      <trkpt lat="43.60145" lon="6.94538">
        <ele>140.4000244</ele>
        <time>2017-07-05T15:26:48Z</time>
      </trkpt>
      <trkpt lat="43.60148" lon="6.94532">
        <ele>140.5999756</ele>
        <time>2017-07-05T15:26:50Z</time>
      </trkpt>
      <trkpt lat="43.60157" lon="6.94517">
        <ele>140.7999878</ele>
        <time>2017-07-05T15:26:55Z</time>
      </trkpt>
      <trkpt lat="43.60159" lon="6.94509">
        <ele>141.2000122</ele>
        <time>2017-07-05T15:26:57Z</time>
      </trkpt>
      <trkpt lat="43.60161" lon="6.94506">
        <ele>141.5999756</ele>
        <time>2017-07-05T15:26:58Z</time>
      </trkpt>
      <trkpt lat="43.60163" lon="6.94503">
        <ele>142</ele>
        <time>2017-07-05T15:26:59Z</time>
      </trkpt>
      <trkpt lat="43.60167" lon="6.94498">
        <ele>142.5999756</ele>
        <time>2017-07-05T15:27:01Z</time>
      </trkpt>
      <trkpt lat="43.60172" lon="6.94489">
        <ele>143</ele>
        <time>2017-07-05T15:27:04Z</time>
      </trkpt>
      <trkpt lat="43.60173" lon="6.94474">
        <ele>143</ele>
        <time>2017-07-05T15:27:09Z</time>
      </trkpt>
      <trkpt lat="43.60173" lon="6.94461">
        <ele>143.2000122</ele>
        <time>2017-07-05T15:27:14Z</time>
      </trkpt>
      <trkpt lat="43.60172" lon="6.94458">
        <ele>143.4000244</ele>
        <time>2017-07-05T15:27:15Z</time>
      </trkpt>
      <trkpt lat="43.6017" lon="6.94443">
        <ele>143.4000244</ele>
        <time>2017-07-05T15:27:19Z</time>
      </trkpt>
      <trkpt lat="43.60167" lon="6.94439">
        <ele>143.4000244</ele>
        <time>2017-07-05T15:27:20Z</time>
      </trkpt>
      <trkpt lat="43.6016" lon="6.94431">
        <ele>143.7999878</ele>
        <time>2017-07-05T15:27:22Z</time>
      </trkpt>
      <trkpt lat="43.60138" lon="6.94409">
        <ele>144.5999756</ele>
        <time>2017-07-05T15:27:28Z</time>
      </trkpt>
      <trkpt lat="43.60119" lon="6.9438">
        <ele>144.5999756</ele>
        <time>2017-07-05T15:27:35Z</time>
      </trkpt>
      <trkpt lat="43.60115" lon="6.94365">
        <ele>144.4000244</ele>
        <time>2017-07-05T15:27:40Z</time>
      </trkpt>
      <trkpt lat="43.60116" lon="6.94336">
        <ele>144.2000122</ele>
        <time>2017-07-05T15:27:45Z</time>
      </trkpt>
      <trkpt lat="43.60117" lon="6.94304">
        <ele>144.2000122</ele>
        <time>2017-07-05T15:27:50Z</time>
      </trkpt>
      <trkpt lat="43.60118" lon="6.94298">
        <ele>144.4000244</ele>
        <time>2017-07-05T15:27:51Z</time>
      </trkpt>
      <trkpt lat="43.60123" lon="6.94272">
        <ele>144.2000122</ele>
        <time>2017-07-05T15:27:56Z</time>
      </trkpt>
      <trkpt lat="43.60137" lon="6.94253">
        <ele>144.4000244</ele>
        <time>2017-07-05T15:28:02Z</time>
      </trkpt>
      <trkpt lat="43.6014" lon="6.94249">
        <ele>144.5999756</ele>
        <time>2017-07-05T15:28:03Z</time>
      </trkpt>
      <trkpt lat="43.60156" lon="6.94223">
        <ele>144.2000122</ele>
        <time>2017-07-05T15:28:08Z</time>
      </trkpt>
      <trkpt lat="43.6016" lon="6.9422">
        <ele>144.2000122</ele>
        <time>2017-07-05T15:28:09Z</time>
      </trkpt>
      <trkpt lat="43.6017" lon="6.94207">
        <ele>143.4000244</ele>
        <time>2017-07-05T15:28:12Z</time>
      </trkpt>
      <trkpt lat="43.6018" lon="6.94191">
        <ele>142.5999756</ele>
        <time>2017-07-05T15:28:15Z</time>
      </trkpt>
      <trkpt lat="43.60188" lon="6.94175">
        <ele>142.4000244</ele>
        <time>2017-07-05T15:28:18Z</time>
      </trkpt>
      <trkpt lat="43.60202" lon="6.94153">
        <ele>142.2000122</ele>
        <time>2017-07-05T15:28:23Z</time>
      </trkpt>
      <trkpt lat="43.60219" lon="6.94139">
        <ele>142</ele>
        <time>2017-07-05T15:28:27Z</time>
      </trkpt>
      <trkpt lat="43.60222" lon="6.94135">
        <ele>142</ele>
        <time>2017-07-05T15:28:28Z</time>
      </trkpt>
      <trkpt lat="43.60229" lon="6.9412">
        <ele>141.5999756</ele>
        <time>2017-07-05T15:28:31Z</time>
      </trkpt>
      <trkpt lat="43.6023" lon="6.94115">
        <ele>141.5999756</ele>
        <time>2017-07-05T15:28:32Z</time>
      </trkpt>
      <trkpt lat="43.60224" lon="6.94105">
        <ele>141.4000244</ele>
        <time>2017-07-05T15:28:35Z</time>
      </trkpt>
      <trkpt lat="43.60212" lon="6.9409">
        <ele>140.7999878</ele>
        <time>2017-07-05T15:28:39Z</time>
      </trkpt>
      <trkpt lat="43.60209" lon="6.94085">
        <ele>140.5999756</ele>
        <time>2017-07-05T15:28:40Z</time>
      </trkpt>
      <trkpt lat="43.60206" lon="6.9408">
        <ele>140.4000244</ele>
        <time>2017-07-05T15:28:41Z</time>
      </trkpt>
      <trkpt lat="43.602" lon="6.94062">
        <ele>139.2000122</ele>
        <time>2017-07-05T15:28:44Z</time>
      </trkpt>
      <trkpt lat="43.602" lon="6.94056">
        <ele>138.5999756</ele>
        <time>2017-07-05T15:28:45Z</time>
      </trkpt>
      <trkpt lat="43.60202" lon="6.94053">
        <ele>138.2000122</ele>
        <time>2017-07-05T15:28:46Z</time>
      </trkpt>
      <trkpt lat="43.60205" lon="6.94049">
        <ele>138</ele>
        <time>2017-07-05T15:28:47Z</time>
      </trkpt>
      <trkpt lat="43.60215" lon="6.94041">
        <ele>137.4000244</ele>
        <time>2017-07-05T15:28:49Z</time>
      </trkpt>
      <trkpt lat="43.60222" lon="6.94038">
        <ele>137</ele>
        <time>2017-07-05T15:28:50Z</time>
      </trkpt>
      <trkpt lat="43.60229" lon="6.94035">
        <ele>136.7999878</ele>
        <time>2017-07-05T15:28:51Z</time>
      </trkpt>
      <trkpt lat="43.60248" lon="6.94025">
        <ele>136.2000122</ele>
        <time>2017-07-05T15:28:54Z</time>
      </trkpt>
      <trkpt lat="43.60259" lon="6.94019">
        <ele>135.7999878</ele>
        <time>2017-07-05T15:28:56Z</time>
      </trkpt>
      <trkpt lat="43.60266" lon="6.94015">
        <ele>135.4000244</ele>
        <time>2017-07-05T15:28:58Z</time>
      </trkpt>
      <trkpt lat="43.60267" lon="6.94014">
        <ele>134.7999878</ele>
        <time>2017-07-05T15:29:01Z</time>
      </trkpt>
      <trkpt lat="43.60267" lon="6.94014">
        <ele>134.4000244</ele>
        <time>2017-07-05T15:29:05Z</time>
      </trkpt>
      <trkpt lat="43.60268" lon="6.94012">
        <ele>134</ele>
        <time>2017-07-05T15:29:07Z</time>
      </trkpt>
      <trkpt lat="43.60271" lon="6.94005">
        <ele>133.2000122</ele>
        <time>2017-07-05T15:29:09Z</time>
      </trkpt>
      <trkpt lat="43.60271" lon="6.94004">
        <ele>132.7999878</ele>
        <time>2017-07-05T15:29:10Z</time>
      </trkpt>
      <trkpt lat="43.60272" lon="6.94002">
        <ele>132</ele>
        <time>2017-07-05T15:29:13Z</time>
      </trkpt>
      <trkpt lat="43.60274" lon="6.94">
        <ele>131.5999756</ele>
        <time>2017-07-05T15:29:14Z</time>
      </trkpt>
      <trkpt lat="43.60276" lon="6.93999">
        <ele>131.2000122</ele>
        <time>2017-07-05T15:29:15Z</time>
      </trkpt>
      <trkpt lat="43.60278" lon="6.93998">
        <ele>130.7999878</ele>
        <time>2017-07-05T15:29:16Z</time>
      </trkpt>
      <trkpt lat="43.60284" lon="6.93992">
        <ele>130</ele>
        <time>2017-07-05T15:29:19Z</time>
      </trkpt>
      <trkpt lat="43.60284" lon="6.93989">
        <ele>129.7999878</ele>
        <time>2017-07-05T15:29:20Z</time>
      </trkpt>
      <trkpt lat="43.60287" lon="6.93981">
        <ele>128.7999878</ele>
        <time>2017-07-05T15:29:22Z</time>
      </trkpt>
      <trkpt lat="43.60289" lon="6.93976">
        <ele>128.5999756</ele>
        <time>2017-07-05T15:29:23Z</time>
      </trkpt>
      <trkpt lat="43.60294" lon="6.93966">
        <ele>127</ele>
        <time>2017-07-05T15:29:26Z</time>
      </trkpt>
      <trkpt lat="43.60294" lon="6.93963">
        <ele>126.5999756</ele>
        <time>2017-07-05T15:29:27Z</time>
      </trkpt>
      <trkpt lat="43.60294" lon="6.93962">
        <ele>126</ele>
        <time>2017-07-05T15:29:29Z</time>
      </trkpt>
      <trkpt lat="43.60294" lon="6.93963">
        <ele>125.5999756</ele>
        <time>2017-07-05T15:29:31Z</time>
      </trkpt>
      <trkpt lat="43.60295" lon="6.93965">
        <ele>125</ele>
        <time>2017-07-05T15:29:33Z</time>
      </trkpt>
      <trkpt lat="43.60297" lon="6.93968">
        <ele>124</ele>
        <time>2017-07-05T15:29:36Z</time>
      </trkpt>
      <trkpt lat="43.60305" lon="6.93967">
        <ele>122.5999756</ele>
        <time>2017-07-05T15:29:39Z</time>
      </trkpt>
      <trkpt lat="43.60308" lon="6.93966">
        <ele>122.4000244</ele>
        <time>2017-07-05T15:29:40Z</time>
      </trkpt>
      <trkpt lat="43.60327" lon="6.9396">
        <ele>121.7999878</ele>
        <time>2017-07-05T15:29:44Z</time>
      </trkpt>
      <trkpt lat="43.60335" lon="6.93954">
        <ele>121.5999756</ele>
        <time>2017-07-05T15:29:46Z</time>
      </trkpt>
      <trkpt lat="43.60337" lon="6.93952">
        <ele>121.2000122</ele>
        <time>2017-07-05T15:29:47Z</time>
      </trkpt>
      <trkpt lat="43.60337" lon="6.93951">
        <ele>120.7999878</ele>
        <time>2017-07-05T15:29:48Z</time>
      </trkpt>
      <trkpt lat="43.60336" lon="6.93949">
        <ele>120.4000244</ele>
        <time>2017-07-05T15:29:49Z</time>
      </trkpt>
      <trkpt lat="43.60335" lon="6.93945">
        <ele>119.5999756</ele>
        <time>2017-07-05T15:29:51Z</time>
      </trkpt>
      <trkpt lat="43.60335" lon="6.93945">
        <ele>119</ele>
        <time>2017-07-05T15:29:52Z</time>
      </trkpt>
      <trkpt lat="43.60335" lon="6.93943">
        <ele>118.4000244</ele>
        <time>2017-07-05T15:29:55Z</time>
      </trkpt>
      <trkpt lat="43.60334" lon="6.93938">
        <ele>118</ele>
        <time>2017-07-05T15:29:57Z</time>
      </trkpt>
      <trkpt lat="43.60331" lon="6.9393">
        <ele>117.5999756</ele>
        <time>2017-07-05T15:29:59Z</time>
      </trkpt>
      <trkpt lat="43.60329" lon="6.93925">
        <ele>117.4000244</ele>
        <time>2017-07-05T15:30:00Z</time>
      </trkpt>
      <trkpt lat="43.60324" lon="6.93909">
        <ele>116.7999878</ele>
        <time>2017-07-05T15:30:03Z</time>
      </trkpt>
      <trkpt lat="43.60313" lon="6.93882">
        <ele>116.2000122</ele>
        <time>2017-07-05T15:30:08Z</time>
      </trkpt>
      <trkpt lat="43.60311" lon="6.93878">
        <ele>116.2000122</ele>
        <time>2017-07-05T15:30:09Z</time>
      </trkpt>
      <trkpt lat="43.60303" lon="6.93857">
        <ele>115.7999878</ele>
        <time>2017-07-05T15:30:14Z</time>
      </trkpt>
      <trkpt lat="43.60301" lon="6.93854">
        <ele>115.7999878</ele>
        <time>2017-07-05T15:30:15Z</time>
      </trkpt>
      <trkpt lat="43.60295" lon="6.93841">
        <ele>116.5999756</ele>
        <time>2017-07-05T15:30:21Z</time>
      </trkpt>
      <trkpt lat="43.60294" lon="6.9383">
        <ele>116.7999878</ele>
        <time>2017-07-05T15:30:26Z</time>
      </trkpt>
      <trkpt lat="43.60293" lon="6.93824">
        <ele>116.7999878</ele>
        <time>2017-07-05T15:30:28Z</time>
      </trkpt>
      <trkpt lat="43.60288" lon="6.93803">
        <ele>116.4000244</ele>
        <time>2017-07-05T15:30:33Z</time>
      </trkpt>
      <trkpt lat="43.60278" lon="6.93773">
        <ele>115.7999878</ele>
        <time>2017-07-05T15:30:37Z</time>
      </trkpt>
      <trkpt lat="43.60262" lon="6.93729">
        <ele>114.5999756</ele>
        <time>2017-07-05T15:30:42Z</time>
      </trkpt>
      <trkpt lat="43.60256" lon="6.93713">
        <ele>114.2000122</ele>
        <time>2017-07-05T15:30:44Z</time>
      </trkpt>
      <trkpt lat="43.60249" lon="6.93693">
        <ele>113.4000244</ele>
        <time>2017-07-05T15:30:47Z</time>
      </trkpt>
      <trkpt lat="43.60246" lon="6.93681">
        <ele>113.4000244</ele>
        <time>2017-07-05T15:30:49Z</time>
      </trkpt>
      <trkpt lat="43.60244" lon="6.93657">
        <ele>113.2000122</ele>
        <time>2017-07-05T15:30:53Z</time>
      </trkpt>
      <trkpt lat="43.60244" lon="6.93652">
        <ele>113.2000122</ele>
        <time>2017-07-05T15:30:54Z</time>
      </trkpt>
      <trkpt lat="43.60243" lon="6.93645">
        <ele>113.2000122</ele>
        <time>2017-07-05T15:30:56Z</time>
      </trkpt>
      <trkpt lat="43.60241" lon="6.93636">
        <ele>113</ele>
        <time>2017-07-05T15:30:58Z</time>
      </trkpt>
      <trkpt lat="43.60243" lon="6.93615">
        <ele>113.2000122</ele>
        <time>2017-07-05T15:31:02Z</time>
      </trkpt>
      <trkpt lat="43.60242" lon="6.93611">
        <ele>113.4000244</ele>
        <time>2017-07-05T15:31:03Z</time>
      </trkpt>
      <trkpt lat="43.60242" lon="6.93608">
        <ele>113.2000122</ele>
        <time>2017-07-05T15:31:06Z</time>
      </trkpt>
      <trkpt lat="43.60242" lon="6.93608">
        <ele>113.2000122</ele>
        <time>2017-07-05T15:31:17Z</time>
      </trkpt>
      <trkpt lat="43.60242" lon="6.93608">
        <ele>113</ele>
        <time>2017-07-05T15:31:23Z</time>
      </trkpt>
      <trkpt lat="43.60242" lon="6.93608">
        <ele>113</ele>
        <time>2017-07-05T15:31:34Z</time>
      </trkpt>
      <trkpt lat="43.60242" lon="6.93608">
        <ele>113</ele>
        <time>2017-07-05T15:31:41Z</time>
      </trkpt>
      <trkpt lat="43.60242" lon="6.93608">
        <ele>113</ele>
        <time>2017-07-05T15:31:49Z</time>
      </trkpt>
      <trkpt lat="43.60243" lon="6.9361">
        <ele>112.7999878</ele>
        <time>2017-07-05T15:31:57Z</time>
      </trkpt>
      <trkpt lat="43.60243" lon="6.93611">
        <ele>112.4000244</ele>
        <time>2017-07-05T15:31:59Z</time>
      </trkpt>
      <trkpt lat="43.60243" lon="6.93611">
        <ele>112.4000244</ele>
        <time>2017-07-05T15:32:04Z</time>
      </trkpt>
      <trkpt lat="43.60243" lon="6.93611">
        <ele>112.4000244</ele>
        <time>2017-07-05T15:32:14Z</time>
      </trkpt>
      <trkpt lat="43.60243" lon="6.93612">
        <ele>112</ele>
        <time>2017-07-05T15:32:26Z</time>
      </trkpt>
      <trkpt lat="43.60243" lon="6.93612">
        <ele>112</ele>
        <time>2017-07-05T15:32:33Z</time>
      </trkpt>
      <trkpt lat="43.60243" lon="6.93612">
        <ele>112</ele>
        <time>2017-07-05T15:32:40Z</time>
      </trkpt>
      <trkpt lat="43.60243" lon="6.93612">
        <ele>112</ele>
        <time>2017-07-05T15:32:49Z</time>
      </trkpt>
      <trkpt lat="43.60243" lon="6.93612">
        <ele>112</ele>
        <time>2017-07-05T15:33:00Z</time>
      </trkpt>
      <trkpt lat="43.60244" lon="6.93613">
        <ele>112</ele>
        <time>2017-07-05T15:33:09Z</time>
      </trkpt>
      <trkpt lat="43.60243" lon="6.93617">
        <ele>112.2000122</ele>
        <time>2017-07-05T15:33:11Z</time>
      </trkpt>
      <trkpt lat="43.60242" lon="6.93628">
        <ele>112.5999756</ele>
        <time>2017-07-05T15:33:15Z</time>
      </trkpt>
      <trkpt lat="43.60242" lon="6.93631">
        <ele>112.4000244</ele>
        <time>2017-07-05T15:33:16Z</time>
      </trkpt>
      <trkpt lat="43.60243" lon="6.93646">
        <ele>112.5999756</ele>
        <time>2017-07-05T15:33:21Z</time>
      </trkpt>
      <trkpt lat="43.60245" lon="6.93672">
        <ele>113</ele>
        <time>2017-07-05T15:33:27Z</time>
      </trkpt>
      <trkpt lat="43.60252" lon="6.93706">
        <ele>112.7999878</ele>
        <time>2017-07-05T15:33:34Z</time>
      </trkpt>
      <trkpt lat="43.60257" lon="6.93727">
        <ele>112.4000244</ele>
        <time>2017-07-05T15:33:38Z</time>
      </trkpt>
      <trkpt lat="43.60258" lon="6.93734">
        <ele>112.4000244</ele>
        <time>2017-07-05T15:33:39Z</time>
      </trkpt>
      <trkpt lat="43.60259" lon="6.93741">
        <ele>112.4000244</ele>
        <time>2017-07-05T15:33:40Z</time>
      </trkpt>
      <trkpt lat="43.60259" lon="6.93754">
        <ele>112.5999756</ele>
        <time>2017-07-05T15:33:42Z</time>
      </trkpt>
      <trkpt lat="43.60258" lon="6.9376">
        <ele>112.7999878</ele>
        <time>2017-07-05T15:33:43Z</time>
      </trkpt>
      <trkpt lat="43.60258" lon="6.93772">
        <ele>113</ele>
        <time>2017-07-05T15:33:45Z</time>
      </trkpt>
      <trkpt lat="43.60261" lon="6.93783">
        <ele>113.2000122</ele>
        <time>2017-07-05T15:33:47Z</time>
      </trkpt>
      <trkpt lat="43.60264" lon="6.93795">
        <ele>113.4000244</ele>
        <time>2017-07-05T15:33:49Z</time>
      </trkpt>
      <trkpt lat="43.60266" lon="6.93801">
        <ele>113.5999756</ele>
        <time>2017-07-05T15:33:50Z</time>
      </trkpt>
      <trkpt lat="43.60266" lon="6.93811">
        <ele>114.2000122</ele>
        <time>2017-07-05T15:33:52Z</time>
      </trkpt>
      <trkpt lat="43.60268" lon="6.93819">
        <ele>114.7999878</ele>
        <time>2017-07-05T15:33:54Z</time>
      </trkpt>
      <trkpt lat="43.6027" lon="6.93828">
        <ele>115.5999756</ele>
        <time>2017-07-05T15:33:56Z</time>
      </trkpt>
      <trkpt lat="43.60272" lon="6.93831">
        <ele>116</ele>
        <time>2017-07-05T15:33:57Z</time>
      </trkpt>
      <trkpt lat="43.60277" lon="6.93838">
        <ele>116.5999756</ele>
        <time>2017-07-05T15:33:59Z</time>
      </trkpt>
      <trkpt lat="43.60281" lon="6.93847">
        <ele>117.2000122</ele>
        <time>2017-07-05T15:34:01Z</time>
      </trkpt>
      <trkpt lat="43.60289" lon="6.93854">
        <ele>118</ele>
        <time>2017-07-05T15:34:04Z</time>
      </trkpt>
      <trkpt lat="43.60292" lon="6.93853">
        <ele>118.2000122</ele>
        <time>2017-07-05T15:34:05Z</time>
      </trkpt>
      <trkpt lat="43.60297" lon="6.93849">
        <ele>118.5999756</ele>
        <time>2017-07-05T15:34:07Z</time>
      </trkpt>
      <trkpt lat="43.603" lon="6.93837">
        <ele>118.5999756</ele>
        <time>2017-07-05T15:34:10Z</time>
      </trkpt>
      <trkpt lat="43.60304" lon="6.93826">
        <ele>118.4000244</ele>
        <time>2017-07-05T15:34:12Z</time>
      </trkpt>
      <trkpt lat="43.60307" lon="6.9382">
        <ele>118.2000122</ele>
        <time>2017-07-05T15:34:13Z</time>
      </trkpt>
      <trkpt lat="43.60311" lon="6.93815">
        <ele>118.2000122</ele>
        <time>2017-07-05T15:34:14Z</time>
      </trkpt>
      <trkpt lat="43.60329" lon="6.93791">
        <ele>117.5999756</ele>
        <time>2017-07-05T15:34:19Z</time>
      </trkpt>
      <trkpt lat="43.60332" lon="6.93786">
        <ele>117.2000122</ele>
        <time>2017-07-05T15:34:20Z</time>
      </trkpt>
      <trkpt lat="43.60342" lon="6.93771">
        <ele>115.7999878</ele>
        <time>2017-07-05T15:34:23Z</time>
      </trkpt>
      <trkpt lat="43.60346" lon="6.93758">
        <ele>114.5999756</ele>
        <time>2017-07-05T15:34:25Z</time>
      </trkpt>
      <trkpt lat="43.6035" lon="6.93752">
        <ele>114</ele>
        <time>2017-07-05T15:34:26Z</time>
      </trkpt>
      <trkpt lat="43.60355" lon="6.93747">
        <ele>113.4000244</ele>
        <time>2017-07-05T15:34:27Z</time>
      </trkpt>
      <trkpt lat="43.6036" lon="6.93742">
        <ele>113.2000122</ele>
        <time>2017-07-05T15:34:28Z</time>
      </trkpt>
      <trkpt lat="43.60364" lon="6.93737">
        <ele>112.7999878</ele>
        <time>2017-07-05T15:34:29Z</time>
      </trkpt>
      <trkpt lat="43.60367" lon="6.93731">
        <ele>112.5999756</ele>
        <time>2017-07-05T15:34:30Z</time>
      </trkpt>
      <trkpt lat="43.60369" lon="6.93725">
        <ele>112.4000244</ele>
        <time>2017-07-05T15:34:31Z</time>
      </trkpt>
      <trkpt lat="43.60372" lon="6.93712">
        <ele>111.7999878</ele>
        <time>2017-07-05T15:34:33Z</time>
      </trkpt>
      <trkpt lat="43.60378" lon="6.93709">
        <ele>112</ele>
        <time>2017-07-05T15:34:35Z</time>
      </trkpt>
      <trkpt lat="43.60385" lon="6.937">
        <ele>113.2000122</ele>
        <time>2017-07-05T15:34:39Z</time>
      </trkpt>
      <trkpt lat="43.60388" lon="6.93697">
        <ele>113.5999756</ele>
        <time>2017-07-05T15:34:40Z</time>
      </trkpt>
      <trkpt lat="43.60394" lon="6.93689">
        <ele>114.5999756</ele>
        <time>2017-07-05T15:34:43Z</time>
      </trkpt>
      <trkpt lat="43.60397" lon="6.93685">
        <ele>115</ele>
        <time>2017-07-05T15:34:45Z</time>
      </trkpt>
      <trkpt lat="43.60405" lon="6.93678">
        <ele>115.4000244</ele>
        <time>2017-07-05T15:34:52Z</time>
      </trkpt>
      <trkpt lat="43.60407" lon="6.93677">
        <ele>115.4000244</ele>
        <time>2017-07-05T15:34:59Z</time>
      </trkpt>
      <trkpt lat="43.60415" lon="6.93678">
        <ele>115.4000244</ele>
        <time>2017-07-05T15:35:05Z</time>
      </trkpt>
      <trkpt lat="43.60418" lon="6.93678">
        <ele>115</ele>
        <time>2017-07-05T15:35:07Z</time>
      </trkpt>
      <trkpt lat="43.60423" lon="6.93679">
        <ele>114.7999878</ele>
        <time>2017-07-05T15:35:10Z</time>
      </trkpt>
      <trkpt lat="43.60432" lon="6.93683">
        <ele>114.7999878</ele>
        <time>2017-07-05T15:35:17Z</time>
      </trkpt>
      <trkpt lat="43.60442" lon="6.93689">
        <ele>114.4000244</ele>
        <time>2017-07-05T15:35:23Z</time>
      </trkpt>
      <trkpt lat="43.60451" lon="6.93696">
        <ele>114.4000244</ele>
        <time>2017-07-05T15:35:29Z</time>
      </trkpt>
      <trkpt lat="43.60456" lon="6.937">
        <ele>114.2000122</ele>
        <time>2017-07-05T15:35:33Z</time>
      </trkpt>
      <trkpt lat="43.60459" lon="6.93702">
        <ele>114</ele>
        <time>2017-07-05T15:35:35Z</time>
      </trkpt>
      <trkpt lat="43.60463" lon="6.93708">
        <ele>114.2000122</ele>
        <time>2017-07-05T15:35:38Z</time>
      </trkpt>
      <trkpt lat="43.60463" lon="6.93714">
        <ele>114</ele>
        <time>2017-07-05T15:35:40Z</time>
      </trkpt>
      <trkpt lat="43.60465" lon="6.93718">
        <ele>114</ele>
        <time>2017-07-05T15:35:42Z</time>
      </trkpt>
      <trkpt lat="43.60469" lon="6.93725">
        <ele>114</ele>
        <time>2017-07-05T15:35:45Z</time>
      </trkpt>
      <trkpt lat="43.60474" lon="6.93734">
        <ele>113.7999878</ele>
        <time>2017-07-05T15:35:49Z</time>
      </trkpt>
      <trkpt lat="43.60473" lon="6.93736">
        <ele>113.5999756</ele>
        <time>2017-07-05T15:35:50Z</time>
      </trkpt>
      <trkpt lat="43.60473" lon="6.93739">
        <ele>113.5999756</ele>
        <time>2017-07-05T15:35:51Z</time>
      </trkpt>
      <trkpt lat="43.60478" lon="6.93743">
        <ele>113.4000244</ele>
        <time>2017-07-05T15:35:54Z</time>
      </trkpt>
      <trkpt lat="43.6048" lon="6.93736">
        <ele>113.4000244</ele>
        <time>2017-07-05T15:35:57Z</time>
      </trkpt>
      <trkpt lat="43.60477" lon="6.93729">
        <ele>113.2000122</ele>
        <time>2017-07-05T15:36:01Z</time>
      </trkpt>
      <trkpt lat="43.60474" lon="6.93728">
        <ele>113.4000244</ele>
        <time>2017-07-05T15:36:04Z</time>
      </trkpt>
      <trkpt lat="43.60473" lon="6.93729">
        <ele>113.4000244</ele>
        <time>2017-07-05T15:36:06Z</time>
      </trkpt>
      <trkpt lat="43.60474" lon="6.93734">
        <ele>114</ele>
        <time>2017-07-05T15:36:10Z</time>
      </trkpt>
      <trkpt lat="43.60477" lon="6.93745">
        <ele>113.7999878</ele>
        <time>2017-07-05T15:36:15Z</time>
      </trkpt>
      <trkpt lat="43.60475" lon="6.93751">
        <ele>113.5999756</ele>
        <time>2017-07-05T15:36:20Z</time>
      </trkpt>
      <trkpt lat="43.60466" lon="6.93748">
        <ele>113.2000122</ele>
        <time>2017-07-05T15:36:24Z</time>
      </trkpt>
      <trkpt lat="43.60458" lon="6.93748">
        <ele>113.2000122</ele>
        <time>2017-07-05T15:36:28Z</time>
      </trkpt>
      <trkpt lat="43.6046" lon="6.93761">
        <ele>113.5999756</ele>
        <time>2017-07-05T15:36:32Z</time>
      </trkpt>
      <trkpt lat="43.60468" lon="6.9377">
        <ele>113.5999756</ele>
        <time>2017-07-05T15:36:37Z</time>
      </trkpt>
      <trkpt lat="43.60464" lon="6.93777">
        <ele>113.5999756</ele>
        <time>2017-07-05T15:36:40Z</time>
      </trkpt>
      <trkpt lat="43.60462" lon="6.93778">
        <ele>113.7999878</ele>
        <time>2017-07-05T15:36:41Z</time>
      </trkpt>
      <trkpt lat="43.60454" lon="6.9378">
        <ele>113.2000122</ele>
        <time>2017-07-05T15:36:44Z</time>
      </trkpt>
      <trkpt lat="43.60453" lon="6.93782">
        <ele>113.2000122</ele>
        <time>2017-07-05T15:36:45Z</time>
      </trkpt>
      <trkpt lat="43.60451" lon="6.93799">
        <ele>113.4000244</ele>
        <time>2017-07-05T15:36:49Z</time>
      </trkpt>
      <trkpt lat="43.60445" lon="6.9382">
        <ele>114.2000122</ele>
        <time>2017-07-05T15:36:55Z</time>
      </trkpt>
      <trkpt lat="43.60435" lon="6.93835">
        <ele>114</ele>
        <time>2017-07-05T15:36:59Z</time>
      </trkpt>
      <trkpt lat="43.60432" lon="6.93841">
        <ele>114</ele>
        <time>2017-07-05T15:37:00Z</time>
      </trkpt>
      <trkpt lat="43.60421" lon="6.93858">
        <ele>114</ele>
        <time>2017-07-05T15:37:03Z</time>
      </trkpt>
      <trkpt lat="43.60415" lon="6.93871">
        <ele>114.4000244</ele>
        <time>2017-07-05T15:37:05Z</time>
      </trkpt>
      <trkpt lat="43.60412" lon="6.93876">
        <ele>114.4000244</ele>
        <time>2017-07-05T15:37:06Z</time>
      </trkpt>
      <trkpt lat="43.60398" lon="6.93889">
        <ele>114.5999756</ele>
        <time>2017-07-05T15:37:09Z</time>
      </trkpt>
      <trkpt lat="43.60376" lon="6.93912">
        <ele>115.7999878</ele>
        <time>2017-07-05T15:37:14Z</time>
      </trkpt>
      <trkpt lat="43.60371" lon="6.93915">
        <ele>116</ele>
        <time>2017-07-05T15:37:15Z</time>
      </trkpt>
      <trkpt lat="43.60364" lon="6.93923">
        <ele>116.4000244</ele>
        <time>2017-07-05T15:37:17Z</time>
      </trkpt>
      <trkpt lat="43.6036" lon="6.93933">
        <ele>116.7999878</ele>
        <time>2017-07-05T15:37:19Z</time>
      </trkpt>
      <trkpt lat="43.6035" lon="6.93944">
        <ele>117.4000244</ele>
        <time>2017-07-05T15:37:22Z</time>
      </trkpt>
      <trkpt lat="43.60344" lon="6.93952">
        <ele>117.7999878</ele>
        <time>2017-07-05T15:37:24Z</time>
      </trkpt>
      <trkpt lat="43.60342" lon="6.93956">
        <ele>118.2000122</ele>
        <time>2017-07-05T15:37:25Z</time>
      </trkpt>
      <trkpt lat="43.60342" lon="6.93964">
        <ele>118.5999756</ele>
        <time>2017-07-05T15:37:27Z</time>
      </trkpt>
      <trkpt lat="43.60332" lon="6.93972">
        <ele>119.4000244</ele>
        <time>2017-07-05T15:37:31Z</time>
      </trkpt>
      <trkpt lat="43.60326" lon="6.93974">
        <ele>120.7999878</ele>
        <time>2017-07-05T15:37:33Z</time>
      </trkpt>
      <trkpt lat="43.60324" lon="6.93974">
        <ele>121.2000122</ele>
        <time>2017-07-05T15:37:34Z</time>
      </trkpt>
      <trkpt lat="43.60322" lon="6.93973">
        <ele>121.5999756</ele>
        <time>2017-07-05T15:37:35Z</time>
      </trkpt>
      <trkpt lat="43.60319" lon="6.93971">
        <ele>121.7999878</ele>
        <time>2017-07-05T15:37:36Z</time>
      </trkpt>
      <trkpt lat="43.60312" lon="6.93969">
        <ele>122.2000122</ele>
        <time>2017-07-05T15:37:38Z</time>
      </trkpt>
      <trkpt lat="43.6031" lon="6.93968">
        <ele>122.2000122</ele>
        <time>2017-07-05T15:37:39Z</time>
      </trkpt>
      <trkpt lat="43.60308" lon="6.9397">
        <ele>122.4000244</ele>
        <time>2017-07-05T15:37:40Z</time>
      </trkpt>
      <trkpt lat="43.60308" lon="6.93975">
        <ele>122.7999878</ele>
        <time>2017-07-05T15:37:42Z</time>
      </trkpt>
      <trkpt lat="43.60317" lon="6.9398">
        <ele>123</ele>
        <time>2017-07-05T15:37:46Z</time>
      </trkpt>
      <trkpt lat="43.60326" lon="6.9398">
        <ele>122.2000122</ele>
        <time>2017-07-05T15:37:50Z</time>
      </trkpt>
      <trkpt lat="43.60327" lon="6.93974">
        <ele>121.5999756</ele>
        <time>2017-07-05T15:37:52Z</time>
      </trkpt>
      <trkpt lat="43.60326" lon="6.93972">
        <ele>121.4000244</ele>
        <time>2017-07-05T15:37:53Z</time>
      </trkpt>
      <trkpt lat="43.60319" lon="6.93975">
        <ele>121.5999756</ele>
        <time>2017-07-05T15:37:57Z</time>
      </trkpt>
      <trkpt lat="43.6031" lon="6.93978">
        <ele>122.5999756</ele>
        <time>2017-07-05T15:38:01Z</time>
      </trkpt>
      <trkpt lat="43.60308" lon="6.93977">
        <ele>122.7999878</ele>
        <time>2017-07-05T15:38:02Z</time>
      </trkpt>
      <trkpt lat="43.60307" lon="6.93973">
        <ele>123.4000244</ele>
        <time>2017-07-05T15:38:05Z</time>
      </trkpt>
      <trkpt lat="43.60317" lon="6.93969">
        <ele>123.4000244</ele>
        <time>2017-07-05T15:38:08Z</time>
      </trkpt>
      <trkpt lat="43.60336" lon="6.93967">
        <ele>121.7999878</ele>
        <time>2017-07-05T15:38:12Z</time>
      </trkpt>
      <trkpt lat="43.60339" lon="6.93967">
        <ele>121.4000244</ele>
        <time>2017-07-05T15:38:13Z</time>
      </trkpt>
      <trkpt lat="43.60342" lon="6.93972">
        <ele>120.7999878</ele>
        <time>2017-07-05T15:38:15Z</time>
      </trkpt>
      <trkpt lat="43.60345" lon="6.93982">
        <ele>120.7999878</ele>
        <time>2017-07-05T15:38:20Z</time>
      </trkpt>
      <trkpt lat="43.60346" lon="6.9399">
        <ele>120.7999878</ele>
        <time>2017-07-05T15:38:24Z</time>
      </trkpt>
      <trkpt lat="43.60346" lon="6.93993">
        <ele>120.7999878</ele>
        <time>2017-07-05T15:38:25Z</time>
      </trkpt>
      <trkpt lat="43.60349" lon="6.93998">
        <ele>120.7999878</ele>
        <time>2017-07-05T15:38:29Z</time>
      </trkpt>
      <trkpt lat="43.60349" lon="6.93998">
        <ele>120.7999878</ele>
        <time>2017-07-05T15:38:41Z</time>
      </trkpt>
      <trkpt lat="43.60349" lon="6.93998">
        <ele>120.7999878</ele>
        <time>2017-07-05T15:38:49Z</time>
      </trkpt>
      <trkpt lat="43.60349" lon="6.93998">
        <ele>120.7999878</ele>
        <time>2017-07-05T15:38:58Z</time>
      </trkpt>
      <trkpt lat="43.60349" lon="6.93998">
        <ele>120.7999878</ele>
        <time>2017-07-05T15:39:10Z</time>
      </trkpt>
      <trkpt lat="43.6035" lon="6.94">
        <ele>120.5999756</ele>
        <time>2017-07-05T15:39:21Z</time>
      </trkpt>
      <trkpt lat="43.60356" lon="6.94014">
        <ele>120.4000244</ele>
        <time>2017-07-05T15:39:26Z</time>
      </trkpt>
      <trkpt lat="43.60357" lon="6.94018">
        <ele>120.2000122</ele>
        <time>2017-07-05T15:39:27Z</time>
      </trkpt>
      <trkpt lat="43.60358" lon="6.94028">
        <ele>119</ele>
        <time>2017-07-05T15:39:29Z</time>
      </trkpt>
      <trkpt lat="43.60358" lon="6.94038">
        <ele>117.4000244</ele>
        <time>2017-07-05T15:39:31Z</time>
      </trkpt>
      <trkpt lat="43.60359" lon="6.9405">
        <ele>116</ele>
        <time>2017-07-05T15:39:33Z</time>
      </trkpt>
      <trkpt lat="43.60359" lon="6.94061">
        <ele>114.7999878</ele>
        <time>2017-07-05T15:39:35Z</time>
      </trkpt>
      <trkpt lat="43.6036" lon="6.94067">
        <ele>114.4000244</ele>
        <time>2017-07-05T15:39:36Z</time>
      </trkpt>
      <trkpt lat="43.6036" lon="6.94079">
        <ele>113.4000244</ele>
        <time>2017-07-05T15:39:38Z</time>
      </trkpt>
      <trkpt lat="43.60361" lon="6.94097">
        <ele>112</ele>
        <time>2017-07-05T15:39:41Z</time>
      </trkpt>
      <trkpt lat="43.60362" lon="6.94117">
        <ele>111.4000244</ele>
        <time>2017-07-05T15:39:45Z</time>
      </trkpt>
      <trkpt lat="43.60366" lon="6.94123">
        <ele>111</ele>
        <time>2017-07-05T15:39:47Z</time>
      </trkpt>
      <trkpt lat="43.60368" lon="6.94127">
        <ele>110.7999878</ele>
        <time>2017-07-05T15:39:48Z</time>
      </trkpt>
      <trkpt lat="43.60381" lon="6.94147">
        <ele>110.4000244</ele>
        <time>2017-07-05T15:39:54Z</time>
      </trkpt>
      <trkpt lat="43.60387" lon="6.94152">
        <ele>111.2000122</ele>
        <time>2017-07-05T15:39:58Z</time>
      </trkpt>
      <trkpt lat="43.60388" lon="6.94152">
        <ele>111.4000244</ele>
        <time>2017-07-05T15:40:00Z</time>
      </trkpt>
      <trkpt lat="43.6039" lon="6.94148">
        <ele>111.2000122</ele>
        <time>2017-07-05T15:40:03Z</time>
      </trkpt>
      <trkpt lat="43.60389" lon="6.94146">
        <ele>111</ele>
        <time>2017-07-05T15:40:09Z</time>
      </trkpt>
      <trkpt lat="43.6039" lon="6.94144">
        <ele>111</ele>
        <time>2017-07-05T15:40:12Z</time>
      </trkpt>
      <trkpt lat="43.60392" lon="6.94141">
        <ele>111.2000122</ele>
        <time>2017-07-05T15:40:14Z</time>
      </trkpt>
      <trkpt lat="43.60399" lon="6.94131">
        <ele>111.5999756</ele>
        <time>2017-07-05T15:40:18Z</time>
      </trkpt>
      <trkpt lat="43.60405" lon="6.94125">
        <ele>112.2000122</ele>
        <time>2017-07-05T15:40:20Z</time>
      </trkpt>
      <trkpt lat="43.60427" lon="6.94099">
        <ele>112</ele>
        <time>2017-07-05T15:40:28Z</time>
      </trkpt>
      <trkpt lat="43.60455" lon="6.94071">
        <ele>112.4000244</ele>
        <time>2017-07-05T15:40:35Z</time>
      </trkpt>
      <trkpt lat="43.60473" lon="6.94047">
        <ele>113.2000122</ele>
        <time>2017-07-05T15:40:40Z</time>
      </trkpt>
      <trkpt lat="43.60483" lon="6.94035">
        <ele>113.2000122</ele>
        <time>2017-07-05T15:40:43Z</time>
      </trkpt>
      <trkpt lat="43.60489" lon="6.94027">
        <ele>113</ele>
        <time>2017-07-05T15:40:45Z</time>
      </trkpt>
      <trkpt lat="43.60496" lon="6.9401">
        <ele>112.5999756</ele>
        <time>2017-07-05T15:40:48Z</time>
      </trkpt>
      <trkpt lat="43.605" lon="6.94004">
        <ele>112.4000244</ele>
        <time>2017-07-05T15:40:49Z</time>
      </trkpt>
      <trkpt lat="43.60514" lon="6.93987">
        <ele>112.2000122</ele>
        <time>2017-07-05T15:40:53Z</time>
      </trkpt>
      <trkpt lat="43.60521" lon="6.93981">
        <ele>111.5999756</ele>
        <time>2017-07-05T15:40:55Z</time>
      </trkpt>
      <trkpt lat="43.6053" lon="6.93968">
        <ele>111</ele>
        <time>2017-07-05T15:40:58Z</time>
      </trkpt>
      <trkpt lat="43.60541" lon="6.93947">
        <ele>110.2000122</ele>
        <time>2017-07-05T15:41:02Z</time>
      </trkpt>
      <trkpt lat="43.60543" lon="6.93935">
        <ele>109.7999878</ele>
        <time>2017-07-05T15:41:04Z</time>
      </trkpt>
      <trkpt lat="43.60544" lon="6.93929">
        <ele>109.5999756</ele>
        <time>2017-07-05T15:41:05Z</time>
      </trkpt>
      <trkpt lat="43.60547" lon="6.93919">
        <ele>108.5999756</ele>
        <time>2017-07-05T15:41:08Z</time>
      </trkpt>
      <trkpt lat="43.60548" lon="6.93917">
        <ele>108.2000122</ele>
        <time>2017-07-05T15:41:09Z</time>
      </trkpt>
      <trkpt lat="43.60549" lon="6.93918">
        <ele>108</ele>
        <time>2017-07-05T15:41:10Z</time>
      </trkpt>
      <trkpt lat="43.6055" lon="6.93919">
        <ele>107.4000244</ele>
        <time>2017-07-05T15:41:12Z</time>
      </trkpt>
      <trkpt lat="43.60551" lon="6.93921">
        <ele>107.2000122</ele>
        <time>2017-07-05T15:41:13Z</time>
      </trkpt>
      <trkpt lat="43.60552" lon="6.93923">
        <ele>107</ele>
        <time>2017-07-05T15:41:14Z</time>
      </trkpt>
      <trkpt lat="43.60559" lon="6.93922">
        <ele>106.4000244</ele>
        <time>2017-07-05T15:41:17Z</time>
      </trkpt>
      <trkpt lat="43.60564" lon="6.93913">
        <ele>105.5999756</ele>
        <time>2017-07-05T15:41:19Z</time>
      </trkpt>
      <trkpt lat="43.60567" lon="6.93907">
        <ele>105.4000244</ele>
        <time>2017-07-05T15:41:20Z</time>
      </trkpt>
      <trkpt lat="43.60585" lon="6.93887">
        <ele>104.2000122</ele>
        <time>2017-07-05T15:41:25Z</time>
      </trkpt>
      <trkpt lat="43.60598" lon="6.93888">
        <ele>103.2000122</ele>
        <time>2017-07-05T15:41:28Z</time>
      </trkpt>
      <trkpt lat="43.60604" lon="6.93887">
        <ele>102.5999756</ele>
        <time>2017-07-05T15:41:29Z</time>
      </trkpt>
      <trkpt lat="43.6061" lon="6.93885">
        <ele>102</ele>
        <time>2017-07-05T15:41:30Z</time>
      </trkpt>
      <trkpt lat="43.60624" lon="6.93882">
        <ele>100.7999878</ele>
        <time>2017-07-05T15:41:32Z</time>
      </trkpt>
      <trkpt lat="43.6064" lon="6.93877">
        <ele>99.5999756</ele>
        <time>2017-07-05T15:41:34Z</time>
      </trkpt>
      <trkpt lat="43.60654" lon="6.93872">
        <ele>98.2000122</ele>
        <time>2017-07-05T15:41:36Z</time>
      </trkpt>
      <trkpt lat="43.60667" lon="6.93869">
        <ele>96.7999878</ele>
        <time>2017-07-05T15:41:38Z</time>
      </trkpt>
      <trkpt lat="43.60672" lon="6.93869">
        <ele>96</ele>
        <time>2017-07-05T15:41:39Z</time>
      </trkpt>
      <trkpt lat="43.60678" lon="6.9387">
        <ele>95.4000244</ele>
        <time>2017-07-05T15:41:40Z</time>
      </trkpt>
      <trkpt lat="43.60691" lon="6.93878">
        <ele>94</ele>
        <time>2017-07-05T15:41:42Z</time>
      </trkpt>
      <trkpt lat="43.60698" lon="6.93882">
        <ele>93.5999756</ele>
        <time>2017-07-05T15:41:43Z</time>
      </trkpt>
      <trkpt lat="43.60712" lon="6.93894">
        <ele>92.7999878</ele>
        <time>2017-07-05T15:41:45Z</time>
      </trkpt>
      <trkpt lat="43.6072" lon="6.93902">
        <ele>92</ele>
        <time>2017-07-05T15:41:46Z</time>
      </trkpt>
      <trkpt lat="43.60728" lon="6.93909">
        <ele>91.2000122</ele>
        <time>2017-07-05T15:41:47Z</time>
      </trkpt>
      <trkpt lat="43.6074" lon="6.93924">
        <ele>89.5999756</ele>
        <time>2017-07-05T15:41:49Z</time>
      </trkpt>
      <trkpt lat="43.60743" lon="6.93932">
        <ele>88.4000244</ele>
        <time>2017-07-05T15:41:50Z</time>
      </trkpt>
      <trkpt lat="43.60746" lon="6.93951">
        <ele>86.4000244</ele>
        <time>2017-07-05T15:41:52Z</time>
      </trkpt>
      <trkpt lat="43.60746" lon="6.93961">
        <ele>85.2000122</ele>
        <time>2017-07-05T15:41:53Z</time>
      </trkpt>
      <trkpt lat="43.60747" lon="6.93972">
        <ele>84.4000244</ele>
        <time>2017-07-05T15:41:54Z</time>
      </trkpt>
      <trkpt lat="43.60751" lon="6.93982">
        <ele>83.2000122</ele>
        <time>2017-07-05T15:41:55Z</time>
      </trkpt>
      <trkpt lat="43.60754" lon="6.9399">
        <ele>82.4000244</ele>
        <time>2017-07-05T15:41:56Z</time>
      </trkpt>
      <trkpt lat="43.60758" lon="6.93999">
        <ele>81.5999756</ele>
        <time>2017-07-05T15:41:57Z</time>
      </trkpt>
      <trkpt lat="43.60761" lon="6.9401">
        <ele>80.4000244</ele>
        <time>2017-07-05T15:41:58Z</time>
      </trkpt>
      <trkpt lat="43.60763" lon="6.94033">
        <ele>78.5999756</ele>
        <time>2017-07-05T15:42:00Z</time>
      </trkpt>
      <trkpt lat="43.60764" lon="6.94046">
        <ele>77.5999756</ele>
        <time>2017-07-05T15:42:01Z</time>
      </trkpt>
      <trkpt lat="43.60767" lon="6.9407">
        <ele>75.5999756</ele>
        <time>2017-07-05T15:42:03Z</time>
      </trkpt>
      <trkpt lat="43.60772" lon="6.94093">
        <ele>73.5999756</ele>
        <time>2017-07-05T15:42:05Z</time>
      </trkpt>
      <trkpt lat="43.60777" lon="6.94102">
        <ele>72.5999756</ele>
        <time>2017-07-05T15:42:06Z</time>
      </trkpt>
      <trkpt lat="43.60781" lon="6.94109">
        <ele>71.7999878</ele>
        <time>2017-07-05T15:42:07Z</time>
      </trkpt>
      <trkpt lat="43.60784" lon="6.94116">
        <ele>70.7999878</ele>
        <time>2017-07-05T15:42:08Z</time>
      </trkpt>
      <trkpt lat="43.60787" lon="6.94122">
        <ele>69.7999878</ele>
        <time>2017-07-05T15:42:09Z</time>
      </trkpt>
      <trkpt lat="43.60791" lon="6.94135">
        <ele>68.2000122</ele>
        <time>2017-07-05T15:42:11Z</time>
      </trkpt>
      <trkpt lat="43.60793" lon="6.94142">
        <ele>67.4000244</ele>
        <time>2017-07-05T15:42:12Z</time>
      </trkpt>
      <trkpt lat="43.60794" lon="6.94147">
        <ele>66.4000244</ele>
        <time>2017-07-05T15:42:13Z</time>
      </trkpt>
      <trkpt lat="43.60795" lon="6.94151">
        <ele>65.4000244</ele>
        <time>2017-07-05T15:42:14Z</time>
      </trkpt>
      <trkpt lat="43.60797" lon="6.94159">
        <ele>63.5999756</ele>
        <time>2017-07-05T15:42:16Z</time>
      </trkpt>
      <trkpt lat="43.60798" lon="6.94165">
        <ele>62.2000122</ele>
        <time>2017-07-05T15:42:18Z</time>
      </trkpt>
      <trkpt lat="43.608" lon="6.94168">
        <ele>61</ele>
        <time>2017-07-05T15:42:20Z</time>
      </trkpt>
      <trkpt lat="43.60801" lon="6.9417">
        <ele>60</ele>
        <time>2017-07-05T15:42:22Z</time>
      </trkpt>
      <trkpt lat="43.60801" lon="6.94172">
        <ele>59.4000244</ele>
        <time>2017-07-05T15:42:23Z</time>
      </trkpt>
      <trkpt lat="43.60801" lon="6.94175">
        <ele>58.7999878</ele>
        <time>2017-07-05T15:42:24Z</time>
      </trkpt>
      <trkpt lat="43.608" lon="6.94179">
        <ele>58.2000122</ele>
        <time>2017-07-05T15:42:25Z</time>
      </trkpt>
      <trkpt lat="43.608" lon="6.94184">
        <ele>57.5999756</ele>
        <time>2017-07-05T15:42:26Z</time>
      </trkpt>
      <trkpt lat="43.60802" lon="6.94189">
        <ele>56.5999756</ele>
        <time>2017-07-05T15:42:28Z</time>
      </trkpt>
      <trkpt lat="43.60804" lon="6.9419">
        <ele>56.2000122</ele>
        <time>2017-07-05T15:42:29Z</time>
      </trkpt>
      <trkpt lat="43.60805" lon="6.94192">
        <ele>55.2000122</ele>
        <time>2017-07-05T15:42:31Z</time>
      </trkpt>
      <trkpt lat="43.60806" lon="6.94193">
        <ele>54.4000244</ele>
        <time>2017-07-05T15:42:33Z</time>
      </trkpt>
      <trkpt lat="43.60808" lon="6.94192">
        <ele>54.5999756</ele>
        <time>2017-07-05T15:42:36Z</time>
      </trkpt>
      <trkpt lat="43.60812" lon="6.94186">
        <ele>54.4000244</ele>
        <time>2017-07-05T15:42:38Z</time>
      </trkpt>
      <trkpt lat="43.60814" lon="6.94174">
        <ele>54.2000122</ele>
        <time>2017-07-05T15:42:40Z</time>
      </trkpt>
      <trkpt lat="43.60815" lon="6.94166">
        <ele>54</ele>
        <time>2017-07-05T15:42:41Z</time>
      </trkpt>
      <trkpt lat="43.60815" lon="6.94157">
        <ele>53.5999756</ele>
        <time>2017-07-05T15:42:42Z</time>
      </trkpt>
      <trkpt lat="43.60815" lon="6.94138">
        <ele>53</ele>
        <time>2017-07-05T15:42:44Z</time>
      </trkpt>
      <trkpt lat="43.60814" lon="6.94118">
        <ele>52.4000244</ele>
        <time>2017-07-05T15:42:46Z</time>
      </trkpt>
      <trkpt lat="43.60814" lon="6.94107">
        <ele>52</ele>
        <time>2017-07-05T15:42:47Z</time>
      </trkpt>
      <trkpt lat="43.60818" lon="6.94042">
        <ele>51.7999878</ele>
        <time>2017-07-05T15:42:53Z</time>
      </trkpt>
      <trkpt lat="43.60825" lon="6.93994">
        <ele>52.7999878</ele>
        <time>2017-07-05T15:42:58Z</time>
      </trkpt>
      <trkpt lat="43.60829" lon="6.93986">
        <ele>53.4000244</ele>
        <time>2017-07-05T15:42:59Z</time>
      </trkpt>
      <trkpt lat="43.6084" lon="6.93967">
        <ele>54.7999878</ele>
        <time>2017-07-05T15:43:02Z</time>
      </trkpt>
      <trkpt lat="43.60849" lon="6.93956">
        <ele>55.4000244</ele>
        <time>2017-07-05T15:43:04Z</time>
      </trkpt>
      <trkpt lat="43.60854" lon="6.93954">
        <ele>55.7999878</ele>
        <time>2017-07-05T15:43:05Z</time>
      </trkpt>
      <trkpt lat="43.60863" lon="6.93959">
        <ele>56.4000244</ele>
        <time>2017-07-05T15:43:07Z</time>
      </trkpt>
      <trkpt lat="43.6087" lon="6.93968">
        <ele>57</ele>
        <time>2017-07-05T15:43:10Z</time>
      </trkpt>
      <trkpt lat="43.60873" lon="6.9397">
        <ele>57.5999756</ele>
        <time>2017-07-05T15:43:11Z</time>
      </trkpt>
      <trkpt lat="43.60876" lon="6.93975">
        <ele>58.2000122</ele>
        <time>2017-07-05T15:43:13Z</time>
      </trkpt>
      <trkpt lat="43.6088" lon="6.93979">
        <ele>59</ele>
        <time>2017-07-05T15:43:15Z</time>
      </trkpt>
      <trkpt lat="43.60882" lon="6.93981">
        <ele>59.5999756</ele>
        <time>2017-07-05T15:43:16Z</time>
      </trkpt>
      <trkpt lat="43.60886" lon="6.93984">
        <ele>61</ele>
        <time>2017-07-05T15:43:19Z</time>
      </trkpt>
      <trkpt lat="43.60888" lon="6.93984">
        <ele>61.4000244</ele>
        <time>2017-07-05T15:43:20Z</time>
      </trkpt>
      <trkpt lat="43.60892" lon="6.93986">
        <ele>62</ele>
        <time>2017-07-05T15:43:22Z</time>
      </trkpt>
      <trkpt lat="43.60896" lon="6.93989">
        <ele>63.2000122</ele>
        <time>2017-07-05T15:43:25Z</time>
      </trkpt>
      <trkpt lat="43.609" lon="6.9399">
        <ele>63.7999878</ele>
        <time>2017-07-05T15:43:27Z</time>
      </trkpt>
      <trkpt lat="43.60903" lon="6.93991">
        <ele>64.4000244</ele>
        <time>2017-07-05T15:43:29Z</time>
      </trkpt>
      <trkpt lat="43.60909" lon="6.93992">
        <ele>65.5999756</ele>
        <time>2017-07-05T15:43:33Z</time>
      </trkpt>
      <trkpt lat="43.60911" lon="6.93992">
        <ele>66</ele>
        <time>2017-07-05T15:43:34Z</time>
      </trkpt>
      <trkpt lat="43.60915" lon="6.93991">
        <ele>66.7999878</ele>
        <time>2017-07-05T15:43:36Z</time>
      </trkpt>
      <trkpt lat="43.60917" lon="6.93993">
        <ele>67.2000122</ele>
        <time>2017-07-05T15:43:37Z</time>
      </trkpt>
      <trkpt lat="43.60918" lon="6.93994">
        <ele>67.7999878</ele>
        <time>2017-07-05T15:43:38Z</time>
      </trkpt>
      <trkpt lat="43.60921" lon="6.93995">
        <ele>68.4000244</ele>
        <time>2017-07-05T15:43:40Z</time>
      </trkpt>
      <trkpt lat="43.60923" lon="6.93996">
        <ele>68.7999878</ele>
        <time>2017-07-05T15:43:41Z</time>
      </trkpt>
      <trkpt lat="43.60929" lon="6.93998">
        <ele>70.2000122</ele>
        <time>2017-07-05T15:43:45Z</time>
      </trkpt>
      <trkpt lat="43.60935" lon="6.94">
        <ele>71.2000122</ele>
        <time>2017-07-05T15:43:48Z</time>
      </trkpt>
      <trkpt lat="43.6094" lon="6.94002">
        <ele>72.4000244</ele>
        <time>2017-07-05T15:43:51Z</time>
      </trkpt>
      <trkpt lat="43.60948" lon="6.94004">
        <ele>72.5999756</ele>
        <time>2017-07-05T15:43:54Z</time>
      </trkpt>
      <trkpt lat="43.60959" lon="6.93997">
        <ele>73.2000122</ele>
        <time>2017-07-05T15:43:59Z</time>
      </trkpt>
      <trkpt lat="43.60961" lon="6.93994">
        <ele>73.4000244</ele>
        <time>2017-07-05T15:44:00Z</time>
      </trkpt>
      <trkpt lat="43.60964" lon="6.9398">
        <ele>74.4000244</ele>
        <time>2017-07-05T15:44:06Z</time>
      </trkpt>
      <trkpt lat="43.60962" lon="6.93973">
        <ele>75.5999756</ele>
        <time>2017-07-05T15:44:09Z</time>
      </trkpt>
      <trkpt lat="43.60958" lon="6.9397">
        <ele>77</ele>
        <time>2017-07-05T15:44:11Z</time>
      </trkpt>
      <trkpt lat="43.60957" lon="6.9397">
        <ele>77.2000122</ele>
        <time>2017-07-05T15:44:12Z</time>
      </trkpt>
      <trkpt lat="43.60951" lon="6.93966">
        <ele>78</ele>
        <time>2017-07-05T15:44:15Z</time>
      </trkpt>
      <trkpt lat="43.60945" lon="6.9396">
        <ele>79.2000122</ele>
        <time>2017-07-05T15:44:19Z</time>
      </trkpt>
      <trkpt lat="43.60944" lon="6.93957">
        <ele>79.4000244</ele>
        <time>2017-07-05T15:44:20Z</time>
      </trkpt>
      <trkpt lat="43.60939" lon="6.93944">
        <ele>80.2000122</ele>
        <time>2017-07-05T15:44:25Z</time>
      </trkpt>
      <trkpt lat="43.60938" lon="6.93941">
        <ele>80.2000122</ele>
        <time>2017-07-05T15:44:26Z</time>
      </trkpt>
      <trkpt lat="43.60938" lon="6.93917">
        <ele>81</ele>
        <time>2017-07-05T15:44:34Z</time>
      </trkpt>
      <trkpt lat="43.60939" lon="6.9391">
        <ele>81.4000244</ele>
        <time>2017-07-05T15:44:37Z</time>
      </trkpt>
      <trkpt lat="43.60941" lon="6.93906">
        <ele>82</ele>
        <time>2017-07-05T15:44:39Z</time>
      </trkpt>
      <trkpt lat="43.60945" lon="6.93904">
        <ele>82.7999878</ele>
        <time>2017-07-05T15:44:41Z</time>
      </trkpt>
      <trkpt lat="43.60951" lon="6.93904">
        <ele>83.5999756</ele>
        <time>2017-07-05T15:44:44Z</time>
      </trkpt>
      <trkpt lat="43.60955" lon="6.93904">
        <ele>83.7999878</ele>
        <time>2017-07-05T15:44:46Z</time>
      </trkpt>
      <trkpt lat="43.60962" lon="6.939">
        <ele>84.5999756</ele>
        <time>2017-07-05T15:44:50Z</time>
      </trkpt>
      <trkpt lat="43.60963" lon="6.93898">
        <ele>85.2000122</ele>
        <time>2017-07-05T15:44:51Z</time>
      </trkpt>
      <trkpt lat="43.60967" lon="6.93894">
        <ele>86.4000244</ele>
        <time>2017-07-05T15:44:53Z</time>
      </trkpt>
      <trkpt lat="43.60972" lon="6.93886">
        <ele>87.5999756</ele>
        <time>2017-07-05T15:44:56Z</time>
      </trkpt>
      <trkpt lat="43.60972" lon="6.93873">
        <ele>88.7999878</ele>
        <time>2017-07-05T15:45:00Z</time>
      </trkpt>
      <trkpt lat="43.60971" lon="6.9387">
        <ele>89.2000122</ele>
        <time>2017-07-05T15:45:01Z</time>
      </trkpt>
      <trkpt lat="43.60969" lon="6.93864">
        <ele>90</ele>
        <time>2017-07-05T15:45:03Z</time>
      </trkpt>
      <trkpt lat="43.60965" lon="6.93857">
        <ele>91.2000122</ele>
        <time>2017-07-05T15:45:06Z</time>
      </trkpt>
      <trkpt lat="43.60962" lon="6.9385">
        <ele>91.4000244</ele>
        <time>2017-07-05T15:45:08Z</time>
      </trkpt>
      <trkpt lat="43.60963" lon="6.93834">
        <ele>91.5999756</ele>
        <time>2017-07-05T15:45:13Z</time>
      </trkpt>
      <trkpt lat="43.60966" lon="6.93829">
        <ele>92.2000122</ele>
        <time>2017-07-05T15:45:15Z</time>
      </trkpt>
      <trkpt lat="43.60972" lon="6.93821">
        <ele>93</ele>
        <time>2017-07-05T15:45:19Z</time>
      </trkpt>
      <trkpt lat="43.60974" lon="6.93821">
        <ele>93.4000244</ele>
        <time>2017-07-05T15:45:20Z</time>
      </trkpt>
      <trkpt lat="43.60985" lon="6.9382">
        <ele>93.7999878</ele>
        <time>2017-07-05T15:45:25Z</time>
      </trkpt>
      <trkpt lat="43.6099" lon="6.93822">
        <ele>94.5999756</ele>
        <time>2017-07-05T15:45:27Z</time>
      </trkpt>
      <trkpt lat="43.61" lon="6.93823">
        <ele>95</ele>
        <time>2017-07-05T15:45:32Z</time>
      </trkpt>
      <trkpt lat="43.61011" lon="6.93823">
        <ele>95.5999756</ele>
        <time>2017-07-05T15:45:36Z</time>
      </trkpt>
      <trkpt lat="43.61019" lon="6.9382">
        <ele>96</ele>
        <time>2017-07-05T15:45:39Z</time>
      </trkpt>
      <trkpt lat="43.61032" lon="6.93804">
        <ele>96.4000244</ele>
        <time>2017-07-05T15:45:45Z</time>
      </trkpt>
      <trkpt lat="43.61035" lon="6.93798">
        <ele>96.7999878</ele>
        <time>2017-07-05T15:45:47Z</time>
      </trkpt>
      <trkpt lat="43.61039" lon="6.93784">
        <ele>97.5999756</ele>
        <time>2017-07-05T15:45:52Z</time>
      </trkpt>
      <trkpt lat="43.61039" lon="6.93773">
        <ele>97.7999878</ele>
        <time>2017-07-05T15:45:55Z</time>
      </trkpt>
      <trkpt lat="43.61039" lon="6.93762">
        <ele>98.5999756</ele>
        <time>2017-07-05T15:45:58Z</time>
      </trkpt>
      <trkpt lat="43.61038" lon="6.93758">
        <ele>98.7999878</ele>
        <time>2017-07-05T15:45:59Z</time>
      </trkpt>
      <trkpt lat="43.6104" lon="6.93739">
        <ele>99.4000244</ele>
        <time>2017-07-05T15:46:03Z</time>
      </trkpt>
      <trkpt lat="43.61043" lon="6.93736">
        <ele>99.5999756</ele>
        <time>2017-07-05T15:46:04Z</time>
      </trkpt>
      <trkpt lat="43.61047" lon="6.93734">
        <ele>100</ele>
        <time>2017-07-05T15:46:05Z</time>
      </trkpt>
      <trkpt lat="43.61052" lon="6.93731">
        <ele>100.4000244</ele>
        <time>2017-07-05T15:46:07Z</time>
      </trkpt>
      <trkpt lat="43.61057" lon="6.93728">
        <ele>100.7999878</ele>
        <time>2017-07-05T15:46:09Z</time>
      </trkpt>
      <trkpt lat="43.6106" lon="6.93727">
        <ele>101</ele>
        <time>2017-07-05T15:46:10Z</time>
      </trkpt>
      <trkpt lat="43.61067" lon="6.93724">
        <ele>102.2000122</ele>
        <time>2017-07-05T15:46:13Z</time>
      </trkpt>
      <trkpt lat="43.61081" lon="6.93719">
        <ele>102.7999878</ele>
        <time>2017-07-05T15:46:18Z</time>
      </trkpt>
      <trkpt lat="43.61088" lon="6.93718">
        <ele>103.2000122</ele>
        <time>2017-07-05T15:46:20Z</time>
      </trkpt>
      <trkpt lat="43.61106" lon="6.93718">
        <ele>104</ele>
        <time>2017-07-05T15:46:26Z</time>
      </trkpt>
      <trkpt lat="43.61111" lon="6.9372">
        <ele>104.5999756</ele>
        <time>2017-07-05T15:46:28Z</time>
      </trkpt>
      <trkpt lat="43.61117" lon="6.93727">
        <ele>105.4000244</ele>
        <time>2017-07-05T15:46:31Z</time>
      </trkpt>
      <trkpt lat="43.61121" lon="6.93729">
        <ele>105.7999878</ele>
        <time>2017-07-05T15:46:32Z</time>
      </trkpt>
      <trkpt lat="43.61131" lon="6.93729">
        <ele>106.2000122</ele>
        <time>2017-07-05T15:46:35Z</time>
      </trkpt>
      <trkpt lat="43.61141" lon="6.93727">
        <ele>106.7999878</ele>
        <time>2017-07-05T15:46:38Z</time>
      </trkpt>
      <trkpt lat="43.61148" lon="6.9372">
        <ele>107.5999756</ele>
        <time>2017-07-05T15:46:41Z</time>
      </trkpt>
      <trkpt lat="43.61152" lon="6.93716">
        <ele>108</ele>
        <time>2017-07-05T15:46:43Z</time>
      </trkpt>
      <trkpt lat="43.61156" lon="6.93706">
        <ele>108.2000122</ele>
        <time>2017-07-05T15:46:46Z</time>
      </trkpt>
      <trkpt lat="43.61156" lon="6.93702">
        <ele>108.2000122</ele>
        <time>2017-07-05T15:46:47Z</time>
      </trkpt>
      <trkpt lat="43.6116" lon="6.93689">
        <ele>109.2000122</ele>
        <time>2017-07-05T15:46:51Z</time>
      </trkpt>
      <trkpt lat="43.61162" lon="6.93687">
        <ele>109.5999756</ele>
        <time>2017-07-05T15:46:52Z</time>
      </trkpt>
      <trkpt lat="43.61163" lon="6.93685">
        <ele>110.2000122</ele>
        <time>2017-07-05T15:46:53Z</time>
      </trkpt>
      <trkpt lat="43.61165" lon="6.93684">
        <ele>110.5999756</ele>
        <time>2017-07-05T15:46:54Z</time>
      </trkpt>
      <trkpt lat="43.61173" lon="6.9368">
        <ele>111.2000122</ele>
        <time>2017-07-05T15:46:58Z</time>
      </trkpt>
      <trkpt lat="43.61176" lon="6.93677">
        <ele>111.5999756</ele>
        <time>2017-07-05T15:47:00Z</time>
      </trkpt>
      <trkpt lat="43.6118" lon="6.93675">
        <ele>112.7999878</ele>
        <time>2017-07-05T15:47:03Z</time>
      </trkpt>
      <trkpt lat="43.61184" lon="6.93673">
        <ele>113.5999756</ele>
        <time>2017-07-05T15:47:05Z</time>
      </trkpt>
      <trkpt lat="43.61187" lon="6.93673">
        <ele>114.2000122</ele>
        <time>2017-07-05T15:47:07Z</time>
      </trkpt>
      <trkpt lat="43.61194" lon="6.93667">
        <ele>115.4000244</ele>
        <time>2017-07-05T15:47:11Z</time>
      </trkpt>
      <trkpt lat="43.61196" lon="6.93665">
        <ele>115.5999756</ele>
        <time>2017-07-05T15:47:12Z</time>
      </trkpt>
      <trkpt lat="43.61203" lon="6.9366">
        <ele>116.4000244</ele>
        <time>2017-07-05T15:47:15Z</time>
      </trkpt>
      <trkpt lat="43.61209" lon="6.93657">
        <ele>117.2000122</ele>
        <time>2017-07-05T15:47:18Z</time>
      </trkpt>
      <trkpt lat="43.61214" lon="6.93655">
        <ele>117.4000244</ele>
        <time>2017-07-05T15:47:20Z</time>
      </trkpt>
      <trkpt lat="43.61223" lon="6.93651">
        <ele>118.2000122</ele>
        <time>2017-07-05T15:47:24Z</time>
      </trkpt>
      <trkpt lat="43.61229" lon="6.9365">
        <ele>118.4000244</ele>
        <time>2017-07-05T15:47:27Z</time>
      </trkpt>
      <trkpt lat="43.61235" lon="6.93647">
        <ele>118.7999878</ele>
        <time>2017-07-05T15:47:30Z</time>
      </trkpt>
      <trkpt lat="43.61242" lon="6.93643">
        <ele>119.5999756</ele>
        <time>2017-07-05T15:47:34Z</time>
      </trkpt>
      <trkpt lat="43.61249" lon="6.93642">
        <ele>120.2000122</ele>
        <time>2017-07-05T15:47:37Z</time>
      </trkpt>
      <trkpt lat="43.61257" lon="6.93645">
        <ele>120.5999756</ele>
        <time>2017-07-05T15:47:43Z</time>
      </trkpt>
      <trkpt lat="43.61258" lon="6.93645">
        <ele>120.7999878</ele>
        <time>2017-07-05T15:47:44Z</time>
      </trkpt>
      <trkpt lat="43.6126" lon="6.93644">
        <ele>121.4000244</ele>
        <time>2017-07-05T15:47:48Z</time>
      </trkpt>
      <trkpt lat="43.61262" lon="6.93643">
        <ele>121.7999878</ele>
        <time>2017-07-05T15:47:59Z</time>
      </trkpt>
      <trkpt lat="43.61263" lon="6.93642">
        <ele>122</ele>
        <time>2017-07-05T15:48:00Z</time>
      </trkpt>
      <trkpt lat="43.61269" lon="6.93636">
        <ele>122.4000244</ele>
        <time>2017-07-05T15:48:04Z</time>
      </trkpt>
      <trkpt lat="43.61275" lon="6.93631">
        <ele>122</ele>
        <time>2017-07-05T15:48:07Z</time>
      </trkpt>
      <trkpt lat="43.61275" lon="6.93632">
        <ele>122</ele>
        <time>2017-07-05T15:48:08Z</time>
      </trkpt>
      <trkpt lat="43.61275" lon="6.93632">
        <ele>122</ele>
        <time>2017-07-05T15:48:16Z</time>
      </trkpt>
      <trkpt lat="43.61275" lon="6.93632">
        <ele>122</ele>
        <time>2017-07-05T15:48:31Z</time>
      </trkpt>
      <trkpt lat="43.61275" lon="6.93632">
        <ele>122</ele>
        <time>2017-07-05T15:48:47Z</time>
      </trkpt>
      <trkpt lat="43.61275" lon="6.93632">
        <ele>122</ele>
        <time>2017-07-05T15:49:01Z</time>
      </trkpt>
      <trkpt lat="43.61275" lon="6.93631">
        <ele>121.7999878</ele>
        <time>2017-07-05T15:49:09Z</time>
      </trkpt>
      <trkpt lat="43.61275" lon="6.93631">
        <ele>121.7999878</ele>
        <time>2017-07-05T15:49:26Z</time>
      </trkpt>
      <trkpt lat="43.61275" lon="6.93631">
        <ele>121.7999878</ele>
        <time>2017-07-05T15:49:52Z</time>
      </trkpt>
      <trkpt lat="43.61275" lon="6.93631">
        <ele>121.7999878</ele>
        <time>2017-07-05T15:50:10Z</time>
      </trkpt>
      <trkpt lat="43.61275" lon="6.93631">
        <ele>121.7999878</ele>
        <time>2017-07-05T15:50:32Z</time>
      </trkpt>
      <trkpt lat="43.61275" lon="6.93631">
        <ele>121.7999878</ele>
        <time>2017-07-05T15:50:51Z</time>
      </trkpt>
      <trkpt lat="43.61275" lon="6.93631">
        <ele>122</ele>
        <time>2017-07-05T15:51:16Z</time>
      </trkpt>
      <trkpt lat="43.61275" lon="6.93632">
        <ele>122</ele>
        <time>2017-07-05T15:51:23Z</time>
      </trkpt>
      <trkpt lat="43.61275" lon="6.93632">
        <ele>122.4000244</ele>
        <time>2017-07-05T15:51:26Z</time>
      </trkpt>
      <trkpt lat="43.61275" lon="6.93632">
        <ele>122.4000244</ele>
        <time>2017-07-05T15:51:37Z</time>
      </trkpt>
      <trkpt lat="43.61276" lon="6.93632">
        <ele>122.5999756</ele>
        <time>2017-07-05T15:51:46Z</time>
      </trkpt>
      <trkpt lat="43.61278" lon="6.93631">
        <ele>122.7999878</ele>
        <time>2017-07-05T15:51:47Z</time>
      </trkpt>
      <trkpt lat="43.61284" lon="6.93626">
        <ele>123.4000244</ele>
        <time>2017-07-05T15:51:51Z</time>
      </trkpt>
      <trkpt lat="43.61287" lon="6.93624">
        <ele>123.5999756</ele>
        <time>2017-07-05T15:51:53Z</time>
      </trkpt>
      <trkpt lat="43.61289" lon="6.93622">
        <ele>124</ele>
        <time>2017-07-05T15:51:55Z</time>
      </trkpt>
      <trkpt lat="43.61292" lon="6.93621">
        <ele>125.2000122</ele>
        <time>2017-07-05T15:51:58Z</time>
      </trkpt>
      <trkpt lat="43.61295" lon="6.93622">
        <ele>125.7999878</ele>
        <time>2017-07-05T15:52:00Z</time>
      </trkpt>
      <trkpt lat="43.61301" lon="6.93626">
        <ele>125.7999878</ele>
        <time>2017-07-05T15:52:03Z</time>
      </trkpt>
      <trkpt lat="43.61315" lon="6.93642">
        <ele>125</ele>
        <time>2017-07-05T15:52:09Z</time>
      </trkpt>
      <trkpt lat="43.61321" lon="6.9365">
        <ele>124.2000122</ele>
        <time>2017-07-05T15:52:11Z</time>
      </trkpt>
      <trkpt lat="43.61332" lon="6.93668">
        <ele>123</ele>
        <time>2017-07-05T15:52:14Z</time>
      </trkpt>
      <trkpt lat="43.61341" lon="6.93681">
        <ele>122</ele>
        <time>2017-07-05T15:52:16Z</time>
      </trkpt>
      <trkpt lat="43.61346" lon="6.93687">
        <ele>121.4000244</ele>
        <time>2017-07-05T15:52:17Z</time>
      </trkpt>
      <trkpt lat="43.61356" lon="6.937">
        <ele>120.2000122</ele>
        <time>2017-07-05T15:52:19Z</time>
      </trkpt>
      <trkpt lat="43.61365" lon="6.93712">
        <ele>118.7999878</ele>
        <time>2017-07-05T15:52:21Z</time>
      </trkpt>
      <trkpt lat="43.61371" lon="6.93721">
        <ele>117.4000244</ele>
        <time>2017-07-05T15:52:23Z</time>
      </trkpt>
      <trkpt lat="43.61375" lon="6.93725">
        <ele>116.7999878</ele>
        <time>2017-07-05T15:52:24Z</time>
      </trkpt>
      <trkpt lat="43.61379" lon="6.93728">
        <ele>116</ele>
        <time>2017-07-05T15:52:25Z</time>
      </trkpt>
      <trkpt lat="43.61388" lon="6.93733">
        <ele>114.7999878</ele>
        <time>2017-07-05T15:52:27Z</time>
      </trkpt>
      <trkpt lat="43.61393" lon="6.93738">
        <ele>114.2000122</ele>
        <time>2017-07-05T15:52:28Z</time>
      </trkpt>
      <trkpt lat="43.61396" lon="6.93744">
        <ele>113.7999878</ele>
        <time>2017-07-05T15:52:29Z</time>
      </trkpt>
      <trkpt lat="43.61402" lon="6.93757">
        <ele>112.7999878</ele>
        <time>2017-07-05T15:52:31Z</time>
      </trkpt>
      <trkpt lat="43.61403" lon="6.93763">
        <ele>112.4000244</ele>
        <time>2017-07-05T15:52:32Z</time>
      </trkpt>
      <trkpt lat="43.61405" lon="6.93765">
        <ele>111.5999756</ele>
        <time>2017-07-05T15:52:34Z</time>
      </trkpt>
      <trkpt lat="43.61404" lon="6.93764">
        <ele>111.2000122</ele>
        <time>2017-07-05T15:52:37Z</time>
      </trkpt>
      <trkpt lat="43.61403" lon="6.93763">
        <ele>111</ele>
        <time>2017-07-05T15:52:38Z</time>
      </trkpt>
      <trkpt lat="43.61402" lon="6.93761">
        <ele>110.7999878</ele>
        <time>2017-07-05T15:52:39Z</time>
      </trkpt>
      <trkpt lat="43.61396" lon="6.93762">
        <ele>110.2000122</ele>
        <time>2017-07-05T15:52:42Z</time>
      </trkpt>
      <trkpt lat="43.61396" lon="6.93764">
        <ele>110</ele>
        <time>2017-07-05T15:52:43Z</time>
      </trkpt>
      <trkpt lat="43.61399" lon="6.93769">
        <ele>109.5999756</ele>
        <time>2017-07-05T15:52:45Z</time>
      </trkpt>
      <trkpt lat="43.61407" lon="6.93773">
        <ele>108.7999878</ele>
        <time>2017-07-05T15:52:47Z</time>
      </trkpt>
      <trkpt lat="43.61411" lon="6.93773">
        <ele>108.5999756</ele>
        <time>2017-07-05T15:52:48Z</time>
      </trkpt>
      <trkpt lat="43.61417" lon="6.93768">
        <ele>107.7999878</ele>
        <time>2017-07-05T15:52:51Z</time>
      </trkpt>
      <trkpt lat="43.6142" lon="6.93781">
        <ele>106.7999878</ele>
        <time>2017-07-05T15:52:55Z</time>
      </trkpt>
      <trkpt lat="43.6142" lon="6.93789">
        <ele>106.2000122</ele>
        <time>2017-07-05T15:52:56Z</time>
      </trkpt>
      <trkpt lat="43.61419" lon="6.93792">
        <ele>105.4000244</ele>
        <time>2017-07-05T15:52:57Z</time>
      </trkpt>
      <trkpt lat="43.6142" lon="6.93795">
        <ele>104.4000244</ele>
        <time>2017-07-05T15:52:58Z</time>
      </trkpt>
      <trkpt lat="43.6142" lon="6.93799">
        <ele>103.7999878</ele>
        <time>2017-07-05T15:52:59Z</time>
      </trkpt>
      <trkpt lat="43.61421" lon="6.9381">
        <ele>102.5999756</ele>
        <time>2017-07-05T15:53:01Z</time>
      </trkpt>
      <trkpt lat="43.61424" lon="6.93814">
        <ele>102</ele>
        <time>2017-07-05T15:53:02Z</time>
      </trkpt>
      <trkpt lat="43.61429" lon="6.93816">
        <ele>101.2000122</ele>
        <time>2017-07-05T15:53:03Z</time>
      </trkpt>
      <trkpt lat="43.61439" lon="6.93818">
        <ele>99.7999878</ele>
        <time>2017-07-05T15:53:05Z</time>
      </trkpt>
      <trkpt lat="43.61446" lon="6.93825">
        <ele>98.5999756</ele>
        <time>2017-07-05T15:53:07Z</time>
      </trkpt>
      <trkpt lat="43.6145" lon="6.93834">
        <ele>97.7999878</ele>
        <time>2017-07-05T15:53:09Z</time>
      </trkpt>
      <trkpt lat="43.61452" lon="6.93838">
        <ele>97.4000244</ele>
        <time>2017-07-05T15:53:10Z</time>
      </trkpt>
      <trkpt lat="43.61458" lon="6.9385">
        <ele>97</ele>
        <time>2017-07-05T15:53:14Z</time>
      </trkpt>
      <trkpt lat="43.6147" lon="6.93856">
        <ele>96.5999756</ele>
        <time>2017-07-05T15:53:20Z</time>
      </trkpt>
      <trkpt lat="43.61474" lon="6.93856">
        <ele>96.4000244</ele>
        <time>2017-07-05T15:53:22Z</time>
      </trkpt>
      <trkpt lat="43.61481" lon="6.93856">
        <ele>96.7999878</ele>
        <time>2017-07-05T15:53:26Z</time>
      </trkpt>
      <trkpt lat="43.61496" lon="6.93857">
        <ele>97.5999756</ele>
        <time>2017-07-05T15:53:33Z</time>
      </trkpt>
      <trkpt lat="43.61505" lon="6.93858">
        <ele>98.2000122</ele>
        <time>2017-07-05T15:53:38Z</time>
      </trkpt>
      <trkpt lat="43.61509" lon="6.9386">
        <ele>98.7999878</ele>
        <time>2017-07-05T15:53:40Z</time>
      </trkpt>
      <trkpt lat="43.61517" lon="6.93865">
        <ele>99.7999878</ele>
        <time>2017-07-05T15:53:44Z</time>
      </trkpt>
      <trkpt lat="43.61519" lon="6.93868">
        <ele>100</ele>
        <time>2017-07-05T15:53:45Z</time>
      </trkpt>
      <trkpt lat="43.61524" lon="6.93877">
        <ele>101</ele>
        <time>2017-07-05T15:53:48Z</time>
      </trkpt>
      <trkpt lat="43.61529" lon="6.93885">
        <ele>101.2000122</ele>
        <time>2017-07-05T15:53:51Z</time>
      </trkpt>
      <trkpt lat="43.61548" lon="6.93909">
        <ele>99.7999878</ele>
        <time>2017-07-05T15:53:58Z</time>
      </trkpt>
      <trkpt lat="43.61569" lon="6.93921">
        <ele>99</ele>
        <time>2017-07-05T15:54:02Z</time>
      </trkpt>
      <trkpt lat="43.61574" lon="6.93926">
        <ele>98.7999878</ele>
        <time>2017-07-05T15:54:03Z</time>
      </trkpt>
      <trkpt lat="43.61579" lon="6.93931">
        <ele>98.5999756</ele>
        <time>2017-07-05T15:54:04Z</time>
      </trkpt>
      <trkpt lat="43.61583" lon="6.93938">
        <ele>98.4000244</ele>
        <time>2017-07-05T15:54:05Z</time>
      </trkpt>
      <trkpt lat="43.61588" lon="6.93944">
        <ele>98.4000244</ele>
        <time>2017-07-05T15:54:06Z</time>
      </trkpt>
      <trkpt lat="43.61593" lon="6.93957">
        <ele>98</ele>
        <time>2017-07-05T15:54:08Z</time>
      </trkpt>
      <trkpt lat="43.61594" lon="6.93961">
        <ele>98</ele>
        <time>2017-07-05T15:54:09Z</time>
      </trkpt>
      <trkpt lat="43.61595" lon="6.93964">
        <ele>97.7999878</ele>
        <time>2017-07-05T15:54:10Z</time>
      </trkpt>
      <trkpt lat="43.61594" lon="6.93966">
        <ele>97.5999756</ele>
        <time>2017-07-05T15:54:11Z</time>
      </trkpt>
      <trkpt lat="43.61592" lon="6.93966">
        <ele>97.4000244</ele>
        <time>2017-07-05T15:54:12Z</time>
      </trkpt>
      <trkpt lat="43.61592" lon="6.93966">
        <ele>97.2000122</ele>
        <time>2017-07-05T15:54:16Z</time>
      </trkpt>
      <trkpt lat="43.61592" lon="6.93966">
        <ele>97.2000122</ele>
        <time>2017-07-05T15:54:22Z</time>
      </trkpt>
      <trkpt lat="43.61592" lon="6.93966">
        <ele>97.2000122</ele>
        <time>2017-07-05T15:54:29Z</time>
      </trkpt>
      <trkpt lat="43.61594" lon="6.93966">
        <ele>97</ele>
        <time>2017-07-05T15:54:31Z</time>
      </trkpt>
      <trkpt lat="43.61595" lon="6.93965">
        <ele>96.7999878</ele>
        <time>2017-07-05T15:54:32Z</time>
      </trkpt>
      <trkpt lat="43.61596" lon="6.93964">
        <ele>96.2000122</ele>
        <time>2017-07-05T15:54:34Z</time>
      </trkpt>
      <trkpt lat="43.61597" lon="6.93964">
        <ele>95.5999756</ele>
        <time>2017-07-05T15:54:36Z</time>
      </trkpt>
      <trkpt lat="43.61598" lon="6.93964">
        <ele>95.4000244</ele>
        <time>2017-07-05T15:54:39Z</time>
      </trkpt>
      <trkpt lat="43.61597" lon="6.93964">
        <ele>94.7999878</ele>
        <time>2017-07-05T15:54:45Z</time>
      </trkpt>
      <trkpt lat="43.61596" lon="6.93964">
        <ele>94.4000244</ele>
        <time>2017-07-05T15:54:46Z</time>
      </trkpt>
      <trkpt lat="43.61594" lon="6.93965">
        <ele>93.4000244</ele>
        <time>2017-07-05T15:54:49Z</time>
      </trkpt>
      <trkpt lat="43.61594" lon="6.93965">
        <ele>93.4000244</ele>
        <time>2017-07-05T15:54:51Z</time>
      </trkpt>
      <trkpt lat="43.61594" lon="6.93965">
        <ele>93.4000244</ele>
        <time>2017-07-05T15:54:58Z</time>
      </trkpt>
      <trkpt lat="43.61594" lon="6.93965">
        <ele>93.4000244</ele>
        <time>2017-07-05T15:55:07Z</time>
      </trkpt>
      <trkpt lat="43.61594" lon="6.93965">
        <ele>93.4000244</ele>
        <time>2017-07-05T15:55:18Z</time>
      </trkpt>
      <trkpt lat="43.61594" lon="6.93965">
        <ele>93.2000122</ele>
        <time>2017-07-05T15:55:31Z</time>
      </trkpt>
      <trkpt lat="43.61595" lon="6.93963">
        <ele>93.2000122</ele>
        <time>2017-07-05T15:55:33Z</time>
      </trkpt>
      <trkpt lat="43.61598" lon="6.93961">
        <ele>93.2000122</ele>
        <time>2017-07-05T15:55:35Z</time>
      </trkpt>
      <trkpt lat="43.61604" lon="6.93965">
        <ele>93.2000122</ele>
        <time>2017-07-05T15:55:40Z</time>
      </trkpt>
      <trkpt lat="43.6161" lon="6.9397">
        <ele>92.2000122</ele>
        <time>2017-07-05T15:55:44Z</time>
      </trkpt>
      <trkpt lat="43.61612" lon="6.93971">
        <ele>91.7999878</ele>
        <time>2017-07-05T15:55:45Z</time>
      </trkpt>
      <trkpt lat="43.61617" lon="6.93973">
        <ele>91.2000122</ele>
        <time>2017-07-05T15:55:47Z</time>
      </trkpt>
      <trkpt lat="43.61623" lon="6.93973">
        <ele>90</ele>
        <time>2017-07-05T15:55:50Z</time>
      </trkpt>
      <trkpt lat="43.61626" lon="6.93974">
        <ele>89.4000244</ele>
        <time>2017-07-05T15:55:52Z</time>
      </trkpt>
      <trkpt lat="43.61629" lon="6.93975">
        <ele>89</ele>
        <time>2017-07-05T15:55:54Z</time>
      </trkpt>
      <trkpt lat="43.61631" lon="6.93976">
        <ele>88.5999756</ele>
        <time>2017-07-05T15:55:55Z</time>
      </trkpt>
      <trkpt lat="43.61637" lon="6.9398">
        <ele>88</ele>
        <time>2017-07-05T15:55:59Z</time>
      </trkpt>
      <trkpt lat="43.61638" lon="6.93982">
        <ele>87.7999878</ele>
        <time>2017-07-05T15:56:00Z</time>
      </trkpt>
      <trkpt lat="43.61639" lon="6.93984">
        <ele>87.7999878</ele>
        <time>2017-07-05T15:56:01Z</time>
      </trkpt>
      <trkpt lat="43.61639" lon="6.93988">
        <ele>87.5999756</ele>
        <time>2017-07-05T15:56:02Z</time>
      </trkpt>
      <trkpt lat="43.61638" lon="6.93997">
        <ele>88</ele>
        <time>2017-07-05T15:56:05Z</time>
      </trkpt>
      <trkpt lat="43.61639" lon="6.94009">
        <ele>89</ele>
        <time>2017-07-05T15:56:10Z</time>
      </trkpt>
      <trkpt lat="43.6164" lon="6.94013">
        <ele>89.4000244</ele>
        <time>2017-07-05T15:56:12Z</time>
      </trkpt>
      <trkpt lat="43.6164" lon="6.94021">
        <ele>90.2000122</ele>
        <time>2017-07-05T15:56:15Z</time>
      </trkpt>
      <trkpt lat="43.61641" lon="6.94028">
        <ele>91.2000122</ele>
        <time>2017-07-05T15:56:18Z</time>
      </trkpt>
      <trkpt lat="43.61642" lon="6.9403">
        <ele>91.7999878</ele>
        <time>2017-07-05T15:56:19Z</time>
      </trkpt>
      <trkpt lat="43.61644" lon="6.94035">
        <ele>93</ele>
        <time>2017-07-05T15:56:21Z</time>
      </trkpt>
      <trkpt lat="43.61645" lon="6.9404">
        <ele>94.2000122</ele>
        <time>2017-07-05T15:56:23Z</time>
      </trkpt>
      <trkpt lat="43.61645" lon="6.94045">
        <ele>95.7999878</ele>
        <time>2017-07-05T15:56:25Z</time>
      </trkpt>
      <trkpt lat="43.61645" lon="6.94047">
        <ele>96.5999756</ele>
        <time>2017-07-05T15:56:26Z</time>
      </trkpt>
      <trkpt lat="43.61645" lon="6.94048">
        <ele>97.4000244</ele>
        <time>2017-07-05T15:56:27Z</time>
      </trkpt>
      <trkpt lat="43.61646" lon="6.94053">
        <ele>98.7999878</ele>
        <time>2017-07-05T15:56:29Z</time>
      </trkpt>
      <trkpt lat="43.61645" lon="6.94055">
        <ele>99.2000122</ele>
        <time>2017-07-05T15:56:30Z</time>
      </trkpt>
      <trkpt lat="43.61644" lon="6.94056">
        <ele>99.7999878</ele>
        <time>2017-07-05T15:56:31Z</time>
      </trkpt>
      <trkpt lat="43.61642" lon="6.94057">
        <ele>100.4000244</ele>
        <time>2017-07-05T15:56:32Z</time>
      </trkpt>
      <trkpt lat="43.6164" lon="6.94058">
        <ele>101</ele>
        <time>2017-07-05T15:56:33Z</time>
      </trkpt>
      <trkpt lat="43.61636" lon="6.9406">
        <ele>102.2000122</ele>
        <time>2017-07-05T15:56:35Z</time>
      </trkpt>
      <trkpt lat="43.61631" lon="6.94062">
        <ele>103.5999756</ele>
        <time>2017-07-05T15:56:38Z</time>
      </trkpt>
      <trkpt lat="43.61629" lon="6.94063">
        <ele>104</ele>
        <time>2017-07-05T15:56:39Z</time>
      </trkpt>
      <trkpt lat="43.61626" lon="6.94066">
        <ele>105</ele>
        <time>2017-07-05T15:56:41Z</time>
      </trkpt>
      <trkpt lat="43.61619" lon="6.94069">
        <ele>106</ele>
        <time>2017-07-05T15:56:45Z</time>
      </trkpt>
      <trkpt lat="43.61617" lon="6.9407">
        <ele>106</ele>
        <time>2017-07-05T15:56:46Z</time>
      </trkpt>
      <trkpt lat="43.6161" lon="6.94075">
        <ele>107.2000122</ele>
        <time>2017-07-05T15:56:50Z</time>
      </trkpt>
      <trkpt lat="43.61607" lon="6.94078">
        <ele>107.5999756</ele>
        <time>2017-07-05T15:56:52Z</time>
      </trkpt>
      <trkpt lat="43.61596" lon="6.94088">
        <ele>107.7999878</ele>
        <time>2017-07-05T15:56:58Z</time>
      </trkpt>
      <trkpt lat="43.61593" lon="6.94092">
        <ele>108.2000122</ele>
        <time>2017-07-05T15:57:00Z</time>
      </trkpt>
      <trkpt lat="43.61588" lon="6.94101">
        <ele>109.2000122</ele>
        <time>2017-07-05T15:57:04Z</time>
      </trkpt>
      <trkpt lat="43.61587" lon="6.94102">
        <ele>109.5999756</ele>
        <time>2017-07-05T15:57:05Z</time>
      </trkpt>
      <trkpt lat="43.6158" lon="6.94108">
        <ele>110.5999756</ele>
        <time>2017-07-05T15:57:09Z</time>
      </trkpt>
      <trkpt lat="43.61577" lon="6.94114">
        <ele>111.4000244</ele>
        <time>2017-07-05T15:57:12Z</time>
      </trkpt>
      <trkpt lat="43.61577" lon="6.94116">
        <ele>111.7999878</ele>
        <time>2017-07-05T15:57:13Z</time>
      </trkpt>
      <trkpt lat="43.61576" lon="6.94119">
        <ele>112.4000244</ele>
        <time>2017-07-05T15:57:15Z</time>
      </trkpt>
      <trkpt lat="43.61574" lon="6.9412">
        <ele>113.2000122</ele>
        <time>2017-07-05T15:57:17Z</time>
      </trkpt>
      <trkpt lat="43.61573" lon="6.94121">
        <ele>113.4000244</ele>
        <time>2017-07-05T15:57:18Z</time>
      </trkpt>
      <trkpt lat="43.61572" lon="6.94122">
        <ele>113.7999878</ele>
        <time>2017-07-05T15:57:19Z</time>
      </trkpt>
      <trkpt lat="43.61572" lon="6.94122">
        <ele>114.4000244</ele>
        <time>2017-07-05T15:57:21Z</time>
      </trkpt>
      <trkpt lat="43.61572" lon="6.94122">
        <ele>114.4000244</ele>
        <time>2017-07-05T15:57:23Z</time>
      </trkpt>
      <trkpt lat="43.61572" lon="6.94122">
        <ele>114.4000244</ele>
        <time>2017-07-05T15:57:33Z</time>
      </trkpt>
      <trkpt lat="43.61572" lon="6.94122">
        <ele>114.4000244</ele>
        <time>2017-07-05T15:57:43Z</time>
      </trkpt>
      <trkpt lat="43.61572" lon="6.94122">
        <ele>114.4000244</ele>
        <time>2017-07-05T15:57:57Z</time>
      </trkpt>
      <trkpt lat="43.6157" lon="6.94121">
        <ele>114.4000244</ele>
        <time>2017-07-05T15:58:02Z</time>
      </trkpt>
      <trkpt lat="43.61565" lon="6.94119">
        <ele>114</ele>
        <time>2017-07-05T15:58:04Z</time>
      </trkpt>
      <trkpt lat="43.61555" lon="6.94115">
        <ele>114.7999878</ele>
        <time>2017-07-05T15:58:08Z</time>
      </trkpt>
      <trkpt lat="43.61549" lon="6.94113">
        <ele>115.7999878</ele>
        <time>2017-07-05T15:58:10Z</time>
      </trkpt>
      <trkpt lat="43.61543" lon="6.9411">
        <ele>117.4000244</ele>
        <time>2017-07-05T15:58:13Z</time>
      </trkpt>
      <trkpt lat="43.61543" lon="6.94108">
        <ele>118</ele>
        <time>2017-07-05T15:58:14Z</time>
      </trkpt>
      <trkpt lat="43.61542" lon="6.94107">
        <ele>118.7999878</ele>
        <time>2017-07-05T15:58:15Z</time>
      </trkpt>
      <trkpt lat="43.61538" lon="6.94105">
        <ele>120.2000122</ele>
        <time>2017-07-05T15:58:17Z</time>
      </trkpt>
      <trkpt lat="43.61535" lon="6.94102">
        <ele>121.4000244</ele>
        <time>2017-07-05T15:58:19Z</time>
      </trkpt>
      <trkpt lat="43.61534" lon="6.94101">
        <ele>122</ele>
        <time>2017-07-05T15:58:20Z</time>
      </trkpt>
      <trkpt lat="43.61532" lon="6.94099">
        <ele>122.4000244</ele>
        <time>2017-07-05T15:58:21Z</time>
      </trkpt>
      <trkpt lat="43.61528" lon="6.94095">
        <ele>123.4000244</ele>
        <time>2017-07-05T15:58:23Z</time>
      </trkpt>
      <trkpt lat="43.6152" lon="6.94091">
        <ele>124.7999878</ele>
        <time>2017-07-05T15:58:26Z</time>
      </trkpt>
      <trkpt lat="43.61514" lon="6.94094">
        <ele>126</ele>
        <time>2017-07-05T15:58:29Z</time>
      </trkpt>
      <trkpt lat="43.61513" lon="6.94093">
        <ele>126.4000244</ele>
        <time>2017-07-05T15:58:30Z</time>
      </trkpt>
      <trkpt lat="43.61511" lon="6.94092">
        <ele>126.5999756</ele>
        <time>2017-07-05T15:58:31Z</time>
      </trkpt>
      <trkpt lat="43.6151" lon="6.9409">
        <ele>126.7999878</ele>
        <time>2017-07-05T15:58:32Z</time>
      </trkpt>
      <trkpt lat="43.61508" lon="6.94086">
        <ele>127.2000122</ele>
        <time>2017-07-05T15:58:34Z</time>
      </trkpt>
      <trkpt lat="43.61503" lon="6.94083">
        <ele>128</ele>
        <time>2017-07-05T15:58:37Z</time>
      </trkpt>
      <trkpt lat="43.61501" lon="6.94081">
        <ele>128.2000122</ele>
        <time>2017-07-05T15:58:38Z</time>
      </trkpt>
      <trkpt lat="43.61497" lon="6.94076">
        <ele>129.4000244</ele>
        <time>2017-07-05T15:58:41Z</time>
      </trkpt>
      <trkpt lat="43.61494" lon="6.94075">
        <ele>129.5999756</ele>
        <time>2017-07-05T15:58:42Z</time>
      </trkpt>
      <trkpt lat="43.61492" lon="6.94074">
        <ele>130</ele>
        <time>2017-07-05T15:58:43Z</time>
      </trkpt>
      <trkpt lat="43.61488" lon="6.94073">
        <ele>130.4000244</ele>
        <time>2017-07-05T15:58:45Z</time>
      </trkpt>
      <trkpt lat="43.61482" lon="6.94074">
        <ele>131.5999756</ele>
        <time>2017-07-05T15:58:50Z</time>
      </trkpt>
      <trkpt lat="43.61477" lon="6.94074">
        <ele>132.4000244</ele>
        <time>2017-07-05T15:58:56Z</time>
      </trkpt>
      <trkpt lat="43.61476" lon="6.94074">
        <ele>132.5999756</ele>
        <time>2017-07-05T15:58:58Z</time>
      </trkpt>
      <trkpt lat="43.61474" lon="6.94074">
        <ele>133.5999756</ele>
        <time>2017-07-05T15:59:02Z</time>
      </trkpt>
      <trkpt lat="43.61471" lon="6.94075">
        <ele>134.2000122</ele>
        <time>2017-07-05T15:59:05Z</time>
      </trkpt>
      <trkpt lat="43.61468" lon="6.94074">
        <ele>134.7999878</ele>
        <time>2017-07-05T15:59:09Z</time>
      </trkpt>
      <trkpt lat="43.61468" lon="6.94074">
        <ele>135</ele>
        <time>2017-07-05T15:59:11Z</time>
      </trkpt>
      <trkpt lat="43.61464" lon="6.94075">
        <ele>135.5999756</ele>
        <time>2017-07-05T15:59:16Z</time>
      </trkpt>
      <trkpt lat="43.61463" lon="6.94076">
        <ele>135.5999756</ele>
        <time>2017-07-05T15:59:17Z</time>
      </trkpt>
      <trkpt lat="43.61456" lon="6.94079">
        <ele>135.5999756</ele>
        <time>2017-07-05T15:59:21Z</time>
      </trkpt>
      <trkpt lat="43.61455" lon="6.9408">
        <ele>136</ele>
        <time>2017-07-05T15:59:22Z</time>
      </trkpt>
      <trkpt lat="43.61453" lon="6.94079">
        <ele>136</ele>
        <time>2017-07-05T15:59:23Z</time>
      </trkpt>
      <trkpt lat="43.61443" lon="6.94077">
        <ele>136.2000122</ele>
        <time>2017-07-05T15:59:30Z</time>
      </trkpt>
      <trkpt lat="43.61443" lon="6.94078">
        <ele>136.2000122</ele>
        <time>2017-07-05T15:59:31Z</time>
      </trkpt>
      <trkpt lat="43.61437" lon="6.94079">
        <ele>137</ele>
        <time>2017-07-05T15:59:35Z</time>
      </trkpt>
      <trkpt lat="43.61435" lon="6.94079">
        <ele>137.4000244</ele>
        <time>2017-07-05T15:59:37Z</time>
      </trkpt>
      <trkpt lat="43.61426" lon="6.9408">
        <ele>138.2000122</ele>
        <time>2017-07-05T15:59:43Z</time>
      </trkpt>
      <trkpt lat="43.61421" lon="6.94078">
        <ele>138</ele>
        <time>2017-07-05T15:59:47Z</time>
      </trkpt>
      <trkpt lat="43.61417" lon="6.94074">
        <ele>137.4000244</ele>
        <time>2017-07-05T15:59:50Z</time>
      </trkpt>
      <trkpt lat="43.61404" lon="6.94074">
        <ele>137.5999756</ele>
        <time>2017-07-05T15:59:56Z</time>
      </trkpt>
      <trkpt lat="43.61387" lon="6.94072">
        <ele>137.5999756</ele>
        <time>2017-07-05T16:00:02Z</time>
      </trkpt>
      <trkpt lat="43.61369" lon="6.9407">
        <ele>137.2000122</ele>
        <time>2017-07-05T16:00:06Z</time>
      </trkpt>
      <trkpt lat="43.61357" lon="6.94073">
        <ele>137</ele>
        <time>2017-07-05T16:00:08Z</time>
      </trkpt>
      <trkpt lat="43.61353" lon="6.94077">
        <ele>137</ele>
        <time>2017-07-05T16:00:09Z</time>
      </trkpt>
      <trkpt lat="43.6135" lon="6.94082">
        <ele>136.7999878</ele>
        <time>2017-07-05T16:00:10Z</time>
      </trkpt>
      <trkpt lat="43.6134" lon="6.94094">
        <ele>136</ele>
        <time>2017-07-05T16:00:14Z</time>
      </trkpt>
      <trkpt lat="43.61338" lon="6.94098">
        <ele>136</ele>
        <time>2017-07-05T16:00:15Z</time>
      </trkpt>
      <trkpt lat="43.61338" lon="6.941">
        <ele>136</ele>
        <time>2017-07-05T16:00:18Z</time>
      </trkpt>
      <trkpt lat="43.61338" lon="6.94099">
        <ele>136</ele>
        <time>2017-07-05T16:00:20Z</time>
      </trkpt>
      <trkpt lat="43.6134" lon="6.94094">
        <ele>135.5999756</ele>
        <time>2017-07-05T16:00:23Z</time>
      </trkpt>
      <trkpt lat="43.61342" lon="6.94087">
        <ele>135.5999756</ele>
        <time>2017-07-05T16:00:27Z</time>
      </trkpt>
      <trkpt lat="43.61335" lon="6.94088">
        <ele>135.4000244</ele>
        <time>2017-07-05T16:00:30Z</time>
      </trkpt>
      <trkpt lat="43.61326" lon="6.9409">
        <ele>135.4000244</ele>
        <time>2017-07-05T16:00:33Z</time>
      </trkpt>
      <trkpt lat="43.61326" lon="6.94086">
        <ele>135.2000122</ele>
        <time>2017-07-05T16:00:34Z</time>
      </trkpt>
      <trkpt lat="43.61324" lon="6.94082">
        <ele>134.7999878</ele>
        <time>2017-07-05T16:00:35Z</time>
      </trkpt>
      <trkpt lat="43.6132" lon="6.94088">
        <ele>134.5999756</ele>
        <time>2017-07-05T16:00:37Z</time>
      </trkpt>
      <trkpt lat="43.61318" lon="6.94091">
        <ele>134.5999756</ele>
        <time>2017-07-05T16:00:38Z</time>
      </trkpt>
      <trkpt lat="43.61313" lon="6.94094">
        <ele>133.7999878</ele>
        <time>2017-07-05T16:00:39Z</time>
      </trkpt>
      <trkpt lat="43.61309" lon="6.94098">
        <ele>133.2000122</ele>
        <time>2017-07-05T16:00:40Z</time>
      </trkpt>
      <trkpt lat="43.61306" lon="6.94103">
        <ele>132.5999756</ele>
        <time>2017-07-05T16:00:41Z</time>
      </trkpt>
      <trkpt lat="43.61304" lon="6.9411">
        <ele>131.7999878</ele>
        <time>2017-07-05T16:00:43Z</time>
      </trkpt>
      <trkpt lat="43.61302" lon="6.94106">
        <ele>130.5999756</ele>
        <time>2017-07-05T16:00:44Z</time>
      </trkpt>
      <trkpt lat="43.61301" lon="6.94101">
        <ele>130</ele>
        <time>2017-07-05T16:00:45Z</time>
      </trkpt>
      <trkpt lat="43.61302" lon="6.94094">
        <ele>129.4000244</ele>
        <time>2017-07-05T16:00:46Z</time>
      </trkpt>
      <trkpt lat="43.61306" lon="6.9408">
        <ele>128.7999878</ele>
        <time>2017-07-05T16:00:48Z</time>
      </trkpt>
      <trkpt lat="43.61313" lon="6.94066">
        <ele>128</ele>
        <time>2017-07-05T16:00:50Z</time>
      </trkpt>
      <trkpt lat="43.61321" lon="6.94054">
        <ele>127</ele>
        <time>2017-07-05T16:00:52Z</time>
      </trkpt>
      <trkpt lat="43.61326" lon="6.94049">
        <ele>125.7999878</ele>
        <time>2017-07-05T16:00:53Z</time>
      </trkpt>
      <trkpt lat="43.61336" lon="6.94036">
        <ele>124.5999756</ele>
        <time>2017-07-05T16:00:55Z</time>
      </trkpt>
      <trkpt lat="43.61344" lon="6.94024">
        <ele>123.2000122</ele>
        <time>2017-07-05T16:00:57Z</time>
      </trkpt>
      <trkpt lat="43.61348" lon="6.94018">
        <ele>122.4000244</ele>
        <time>2017-07-05T16:00:58Z</time>
      </trkpt>
      <trkpt lat="43.61355" lon="6.94008">
        <ele>120.7999878</ele>
        <time>2017-07-05T16:01:00Z</time>
      </trkpt>
      <trkpt lat="43.61366" lon="6.93996">
        <ele>119.4000244</ele>
        <time>2017-07-05T16:01:03Z</time>
      </trkpt>
      <trkpt lat="43.61371" lon="6.93993">
        <ele>117.7999878</ele>
        <time>2017-07-05T16:01:05Z</time>
      </trkpt>
      <trkpt lat="43.61375" lon="6.93992">
        <ele>116.5999756</ele>
        <time>2017-07-05T16:01:07Z</time>
      </trkpt>
      <trkpt lat="43.61376" lon="6.93992">
        <ele>115.5999756</ele>
        <time>2017-07-05T16:01:08Z</time>
      </trkpt>
      <trkpt lat="43.61379" lon="6.93989">
        <ele>114.4000244</ele>
        <time>2017-07-05T16:01:10Z</time>
      </trkpt>
      <trkpt lat="43.61383" lon="6.93987">
        <ele>113.2000122</ele>
        <time>2017-07-05T16:01:12Z</time>
      </trkpt>
      <trkpt lat="43.61388" lon="6.93984">
        <ele>112</ele>
        <time>2017-07-05T16:01:14Z</time>
      </trkpt>
      <trkpt lat="43.61392" lon="6.93981">
        <ele>110.5999756</ele>
        <time>2017-07-05T16:01:16Z</time>
      </trkpt>
      <trkpt lat="43.61393" lon="6.9398">
        <ele>110</ele>
        <time>2017-07-05T16:01:17Z</time>
      </trkpt>
      <trkpt lat="43.61393" lon="6.93979">
        <ele>109.4000244</ele>
        <time>2017-07-05T16:01:19Z</time>
      </trkpt>
      <trkpt lat="43.61394" lon="6.93974">
        <ele>108.5999756</ele>
        <time>2017-07-05T16:01:20Z</time>
      </trkpt>
      <trkpt lat="43.61393" lon="6.93971">
        <ele>107.2000122</ele>
        <time>2017-07-05T16:01:21Z</time>
      </trkpt>
      <trkpt lat="43.61391" lon="6.9397">
        <ele>106.4000244</ele>
        <time>2017-07-05T16:01:22Z</time>
      </trkpt>
      <trkpt lat="43.61387" lon="6.93969">
        <ele>105.4000244</ele>
        <time>2017-07-05T16:01:23Z</time>
      </trkpt>
      <trkpt lat="43.61381" lon="6.93967">
        <ele>104.5999756</ele>
        <time>2017-07-05T16:01:24Z</time>
      </trkpt>
      <trkpt lat="43.61376" lon="6.93965">
        <ele>104</ele>
        <time>2017-07-05T16:01:25Z</time>
      </trkpt>
      <trkpt lat="43.61369" lon="6.9396">
        <ele>102</ele>
        <time>2017-07-05T16:01:27Z</time>
      </trkpt>
      <trkpt lat="43.61367" lon="6.93959">
        <ele>101</ele>
        <time>2017-07-05T16:01:28Z</time>
      </trkpt>
      <trkpt lat="43.61366" lon="6.93958">
        <ele>99</ele>
        <time>2017-07-05T16:01:30Z</time>
      </trkpt>
      <trkpt lat="43.61366" lon="6.93958">
        <ele>98</ele>
        <time>2017-07-05T16:01:32Z</time>
      </trkpt>
      <trkpt lat="43.61366" lon="6.93957">
        <ele>97.5999756</ele>
        <time>2017-07-05T16:01:39Z</time>
      </trkpt>
      <trkpt lat="43.61366" lon="6.93955">
        <ele>97.2000122</ele>
        <time>2017-07-05T16:01:40Z</time>
      </trkpt>
      <trkpt lat="43.61367" lon="6.93953">
        <ele>96.5999756</ele>
        <time>2017-07-05T16:01:41Z</time>
      </trkpt>
      <trkpt lat="43.61368" lon="6.93949">
        <ele>95.4000244</ele>
        <time>2017-07-05T16:01:43Z</time>
      </trkpt>
      <trkpt lat="43.61368" lon="6.93947">
        <ele>94.5999756</ele>
        <time>2017-07-05T16:01:44Z</time>
      </trkpt>
      <trkpt lat="43.61366" lon="6.93945">
        <ele>94</ele>
        <time>2017-07-05T16:01:45Z</time>
      </trkpt>
      <trkpt lat="43.61363" lon="6.93943">
        <ele>92</ele>
        <time>2017-07-05T16:01:48Z</time>
      </trkpt>
      <trkpt lat="43.61362" lon="6.9394">
        <ele>90.7999878</ele>
        <time>2017-07-05T16:01:50Z</time>
      </trkpt>
      <trkpt lat="43.61361" lon="6.93939">
        <ele>90.2000122</ele>
        <time>2017-07-05T16:01:54Z</time>
      </trkpt>
      <trkpt lat="43.61362" lon="6.9394">
        <ele>89.5999756</ele>
        <time>2017-07-05T16:01:56Z</time>
      </trkpt>
      <trkpt lat="43.61362" lon="6.93938">
        <ele>89</ele>
        <time>2017-07-05T16:01:59Z</time>
      </trkpt>
      <trkpt lat="43.61362" lon="6.93935">
        <ele>88.2000122</ele>
        <time>2017-07-05T16:02:00Z</time>
      </trkpt>
      <trkpt lat="43.61362" lon="6.93931">
        <ele>87</ele>
        <time>2017-07-05T16:02:02Z</time>
      </trkpt>
      <trkpt lat="43.61364" lon="6.93926">
        <ele>86.2000122</ele>
        <time>2017-07-05T16:02:04Z</time>
      </trkpt>
      <trkpt lat="43.61366" lon="6.93921">
        <ele>85.7999878</ele>
        <time>2017-07-05T16:02:06Z</time>
      </trkpt>
      <trkpt lat="43.61369" lon="6.93916">
        <ele>84.7999878</ele>
        <time>2017-07-05T16:02:08Z</time>
      </trkpt>
      <trkpt lat="43.61369" lon="6.93914">
        <ele>84.4000244</ele>
        <time>2017-07-05T16:02:09Z</time>
      </trkpt>
      <trkpt lat="43.61368" lon="6.93904">
        <ele>83.2000122</ele>
        <time>2017-07-05T16:02:12Z</time>
      </trkpt>
      <trkpt lat="43.61368" lon="6.939">
        <ele>82.7999878</ele>
        <time>2017-07-05T16:02:13Z</time>
      </trkpt>
      <trkpt lat="43.6137" lon="6.93897">
        <ele>82.4000244</ele>
        <time>2017-07-05T16:02:14Z</time>
      </trkpt>
      <trkpt lat="43.61373" lon="6.93894">
        <ele>82.2000122</ele>
        <time>2017-07-05T16:02:16Z</time>
      </trkpt>
      <trkpt lat="43.61377" lon="6.93889">
        <ele>82.5999756</ele>
        <time>2017-07-05T16:02:22Z</time>
      </trkpt>
      <trkpt lat="43.6138" lon="6.93886">
        <ele>82.5999756</ele>
        <time>2017-07-05T16:02:26Z</time>
      </trkpt>
      <trkpt lat="43.61382" lon="6.93887">
        <ele>82.7999878</ele>
        <time>2017-07-05T16:02:27Z</time>
      </trkpt>
      <trkpt lat="43.61391" lon="6.93887">
        <ele>83.5999756</ele>
        <time>2017-07-05T16:02:32Z</time>
      </trkpt>
      <trkpt lat="43.61399" lon="6.93891">
        <ele>84.2000122</ele>
        <time>2017-07-05T16:02:37Z</time>
      </trkpt>
      <trkpt lat="43.61402" lon="6.93892">
        <ele>84.4000244</ele>
        <time>2017-07-05T16:02:38Z</time>
      </trkpt>
      <trkpt lat="43.61415" lon="6.93902">
        <ele>84.7999878</ele>
        <time>2017-07-05T16:02:43Z</time>
      </trkpt>
      <trkpt lat="43.61429" lon="6.93908">
        <ele>85.2000122</ele>
        <time>2017-07-05T16:02:48Z</time>
      </trkpt>
      <trkpt lat="43.61431" lon="6.93909">
        <ele>85.4000244</ele>
        <time>2017-07-05T16:02:49Z</time>
      </trkpt>
      <trkpt lat="43.61444" lon="6.93912">
        <ele>86.4000244</ele>
        <time>2017-07-05T16:02:54Z</time>
      </trkpt>
      <trkpt lat="43.61447" lon="6.93911">
        <ele>86.4000244</ele>
        <time>2017-07-05T16:02:55Z</time>
      </trkpt>
      <trkpt lat="43.61459" lon="6.93913">
        <ele>86.7999878</ele>
        <time>2017-07-05T16:02:59Z</time>
      </trkpt>
      <trkpt lat="43.61466" lon="6.93921">
        <ele>87.4000244</ele>
        <time>2017-07-05T16:03:02Z</time>
      </trkpt>
      <trkpt lat="43.61476" lon="6.9393">
        <ele>88</ele>
        <time>2017-07-05T16:03:06Z</time>
      </trkpt>
      <trkpt lat="43.61485" lon="6.93941">
        <ele>88.4000244</ele>
        <time>2017-07-05T16:03:10Z</time>
      </trkpt>
      <trkpt lat="43.61491" lon="6.93945">
        <ele>89</ele>
        <time>2017-07-05T16:03:12Z</time>
      </trkpt>
      <trkpt lat="43.615" lon="6.93952">
        <ele>89.5999756</ele>
        <time>2017-07-05T16:03:16Z</time>
      </trkpt>
      <trkpt lat="43.61504" lon="6.93955">
        <ele>90</ele>
        <time>2017-07-05T16:03:18Z</time>
      </trkpt>
      <trkpt lat="43.6151" lon="6.93958">
        <ele>90.7999878</ele>
        <time>2017-07-05T16:03:21Z</time>
      </trkpt>
      <trkpt lat="43.61523" lon="6.93961">
        <ele>91.7999878</ele>
        <time>2017-07-05T16:03:26Z</time>
      </trkpt>
      <trkpt lat="43.61525" lon="6.9396">
        <ele>92</ele>
        <time>2017-07-05T16:03:27Z</time>
      </trkpt>
      <trkpt lat="43.61531" lon="6.93956">
        <ele>93</ele>
        <time>2017-07-05T16:03:29Z</time>
      </trkpt>
      <trkpt lat="43.61534" lon="6.93953">
        <ele>93.2000122</ele>
        <time>2017-07-05T16:03:30Z</time>
      </trkpt>
      <trkpt lat="43.61544" lon="6.93946">
        <ele>94.2000122</ele>
        <time>2017-07-05T16:03:33Z</time>
      </trkpt>
      <trkpt lat="43.61548" lon="6.93945">
        <ele>94.4000244</ele>
        <time>2017-07-05T16:03:34Z</time>
      </trkpt>
      <trkpt lat="43.61563" lon="6.93952">
        <ele>95.2000122</ele>
        <time>2017-07-05T16:03:38Z</time>
      </trkpt>
      <trkpt lat="43.61567" lon="6.93954">
        <ele>95.4000244</ele>
        <time>2017-07-05T16:03:39Z</time>
      </trkpt>
      <trkpt lat="43.6159" lon="6.93963">
        <ele>96</ele>
        <time>2017-07-05T16:03:45Z</time>
      </trkpt>
      <trkpt lat="43.61601" lon="6.93965">
        <ele>96.4000244</ele>
        <time>2017-07-05T16:03:48Z</time>
      </trkpt>
      <trkpt lat="43.6161" lon="6.9397">
        <ele>96.7999878</ele>
        <time>2017-07-05T16:03:51Z</time>
      </trkpt>
      <trkpt lat="43.6162" lon="6.93976">
        <ele>97.7999878</ele>
        <time>2017-07-05T16:03:56Z</time>
      </trkpt>
      <trkpt lat="43.61629" lon="6.93979">
        <ele>99</ele>
        <time>2017-07-05T16:04:01Z</time>
      </trkpt>
      <trkpt lat="43.61633" lon="6.9399">
        <ele>100</ele>
        <time>2017-07-05T16:04:05Z</time>
      </trkpt>
      <trkpt lat="43.61634" lon="6.93995">
        <ele>100.5999756</ele>
        <time>2017-07-05T16:04:07Z</time>
      </trkpt>
      <trkpt lat="43.61634" lon="6.94001">
        <ele>101.4000244</ele>
        <time>2017-07-05T16:04:09Z</time>
      </trkpt>
      <trkpt lat="43.61635" lon="6.94008">
        <ele>102.5999756</ele>
        <time>2017-07-05T16:04:12Z</time>
      </trkpt>
      <trkpt lat="43.61636" lon="6.94013">
        <ele>103.5999756</ele>
        <time>2017-07-05T16:04:14Z</time>
      </trkpt>
      <trkpt lat="43.61637" lon="6.94015">
        <ele>104</ele>
        <time>2017-07-05T16:04:15Z</time>
      </trkpt>
      <trkpt lat="43.61639" lon="6.94027">
        <ele>105.4000244</ele>
        <time>2017-07-05T16:04:20Z</time>
      </trkpt>
      <trkpt lat="43.6164" lon="6.94029">
        <ele>105.5999756</ele>
        <time>2017-07-05T16:04:21Z</time>
      </trkpt>
      <trkpt lat="43.6164" lon="6.94033">
        <ele>106.5999756</ele>
        <time>2017-07-05T16:04:23Z</time>
      </trkpt>
      <trkpt lat="43.61643" lon="6.94041">
        <ele>107.5999756</ele>
        <time>2017-07-05T16:04:27Z</time>
      </trkpt>
      <trkpt lat="43.61643" lon="6.94045">
        <ele>108</ele>
        <time>2017-07-05T16:04:29Z</time>
      </trkpt>
      <trkpt lat="43.6164" lon="6.94052">
        <ele>108.7999878</ele>
        <time>2017-07-05T16:04:32Z</time>
      </trkpt>
      <trkpt lat="43.61637" lon="6.94055">
        <ele>109.7999878</ele>
        <time>2017-07-05T16:04:34Z</time>
      </trkpt>
      <trkpt lat="43.61635" lon="6.94057">
        <ele>110.2000122</ele>
        <time>2017-07-05T16:04:35Z</time>
      </trkpt>
      <trkpt lat="43.61627" lon="6.94065">
        <ele>111.4000244</ele>
        <time>2017-07-05T16:04:40Z</time>
      </trkpt>
      <trkpt lat="43.61625" lon="6.94066">
        <ele>111.5999756</ele>
        <time>2017-07-05T16:04:41Z</time>
      </trkpt>
      <trkpt lat="43.61612" lon="6.94071">
        <ele>112.4000244</ele>
        <time>2017-07-05T16:04:46Z</time>
      </trkpt>
      <trkpt lat="43.6161" lon="6.94072">
        <ele>112.5999756</ele>
        <time>2017-07-05T16:04:47Z</time>
      </trkpt>
      <trkpt lat="43.61598" lon="6.94083">
        <ele>113.2000122</ele>
        <time>2017-07-05T16:04:53Z</time>
      </trkpt>
      <trkpt lat="43.61593" lon="6.94089">
        <ele>113.5999756</ele>
        <time>2017-07-05T16:04:56Z</time>
      </trkpt>
      <trkpt lat="43.61588" lon="6.94097">
        <ele>114</ele>
        <time>2017-07-05T16:05:00Z</time>
      </trkpt>
      <trkpt lat="43.61579" lon="6.94111">
        <ele>114.5999756</ele>
        <time>2017-07-05T16:05:06Z</time>
      </trkpt>
      <trkpt lat="43.61577" lon="6.94113">
        <ele>115</ele>
        <time>2017-07-05T16:05:07Z</time>
      </trkpt>
      <trkpt lat="43.61566" lon="6.94118">
        <ele>115.5999756</ele>
        <time>2017-07-05T16:05:13Z</time>
      </trkpt>
      <trkpt lat="43.61562" lon="6.94121">
        <ele>115.7999878</ele>
        <time>2017-07-05T16:05:14Z</time>
      </trkpt>
      <trkpt lat="43.61557" lon="6.94131">
        <ele>115.7999878</ele>
        <time>2017-07-05T16:05:16Z</time>
      </trkpt>
      <trkpt lat="43.61559" lon="6.94152">
        <ele>115.2000122</ele>
        <time>2017-07-05T16:05:19Z</time>
      </trkpt>
      <trkpt lat="43.61561" lon="6.94161">
        <ele>114.7999878</ele>
        <time>2017-07-05T16:05:20Z</time>
      </trkpt>
      <trkpt lat="43.61566" lon="6.94179">
        <ele>113.4000244</ele>
        <time>2017-07-05T16:05:22Z</time>
      </trkpt>
      <trkpt lat="43.6157" lon="6.94199">
        <ele>111.7999878</ele>
        <time>2017-07-05T16:05:24Z</time>
      </trkpt>
      <trkpt lat="43.61575" lon="6.94218">
        <ele>110.5999756</ele>
        <time>2017-07-05T16:05:26Z</time>
      </trkpt>
      <trkpt lat="43.61583" lon="6.94235">
        <ele>109.2000122</ele>
        <time>2017-07-05T16:05:28Z</time>
      </trkpt>
      <trkpt lat="43.61594" lon="6.94252">
        <ele>107.4000244</ele>
        <time>2017-07-05T16:05:30Z</time>
      </trkpt>
      <trkpt lat="43.61607" lon="6.94271">
        <ele>105.4000244</ele>
        <time>2017-07-05T16:05:32Z</time>
      </trkpt>
      <trkpt lat="43.61613" lon="6.94281">
        <ele>104.4000244</ele>
        <time>2017-07-05T16:05:33Z</time>
      </trkpt>
      <trkpt lat="43.61619" lon="6.94292">
        <ele>103.2000122</ele>
        <time>2017-07-05T16:05:34Z</time>
      </trkpt>
      <trkpt lat="43.61625" lon="6.94304">
        <ele>102</ele>
        <time>2017-07-05T16:05:35Z</time>
      </trkpt>
      <trkpt lat="43.6163" lon="6.94316">
        <ele>101</ele>
        <time>2017-07-05T16:05:36Z</time>
      </trkpt>
      <trkpt lat="43.61635" lon="6.94329">
        <ele>99.7999878</ele>
        <time>2017-07-05T16:05:37Z</time>
      </trkpt>
      <trkpt lat="43.6164" lon="6.94341">
        <ele>98.5999756</ele>
        <time>2017-07-05T16:05:38Z</time>
      </trkpt>
      <trkpt lat="43.61645" lon="6.94354">
        <ele>97.5999756</ele>
        <time>2017-07-05T16:05:39Z</time>
      </trkpt>
      <trkpt lat="43.6165" lon="6.94367">
        <ele>96.5999756</ele>
        <time>2017-07-05T16:05:40Z</time>
      </trkpt>
      <trkpt lat="43.61654" lon="6.94379">
        <ele>95.5999756</ele>
        <time>2017-07-05T16:05:41Z</time>
      </trkpt>
      <trkpt lat="43.61657" lon="6.94391">
        <ele>94.5999756</ele>
        <time>2017-07-05T16:05:42Z</time>
      </trkpt>
      <trkpt lat="43.6166" lon="6.94404">
        <ele>93.5999756</ele>
        <time>2017-07-05T16:05:43Z</time>
      </trkpt>
      <trkpt lat="43.61664" lon="6.94429">
        <ele>91.7999878</ele>
        <time>2017-07-05T16:05:45Z</time>
      </trkpt>
      <trkpt lat="43.61668" lon="6.94452">
        <ele>90.2000122</ele>
        <time>2017-07-05T16:05:47Z</time>
      </trkpt>
      <trkpt lat="43.61669" lon="6.94461">
        <ele>89.2000122</ele>
        <time>2017-07-05T16:05:48Z</time>
      </trkpt>
      <trkpt lat="43.61669" lon="6.94469">
        <ele>88.4000244</ele>
        <time>2017-07-05T16:05:49Z</time>
      </trkpt>
      <trkpt lat="43.6167" lon="6.94481">
        <ele>86.5999756</ele>
        <time>2017-07-05T16:05:51Z</time>
      </trkpt>
      <trkpt lat="43.6167" lon="6.94485">
        <ele>85.5999756</ele>
        <time>2017-07-05T16:05:52Z</time>
      </trkpt>
      <trkpt lat="43.6167" lon="6.94489">
        <ele>85</ele>
        <time>2017-07-05T16:05:53Z</time>
      </trkpt>
      <trkpt lat="43.61671" lon="6.94494">
        <ele>83.5999756</ele>
        <time>2017-07-05T16:05:55Z</time>
      </trkpt>
      <trkpt lat="43.61672" lon="6.94495">
        <ele>83.2000122</ele>
        <time>2017-07-05T16:05:56Z</time>
      </trkpt>
      <trkpt lat="43.61672" lon="6.94495">
        <ele>83</ele>
        <time>2017-07-05T16:06:06Z</time>
      </trkpt>
      <trkpt lat="43.61673" lon="6.94498">
        <ele>82.5999756</ele>
        <time>2017-07-05T16:06:15Z</time>
      </trkpt>
      <trkpt lat="43.61677" lon="6.9452">
        <ele>83.7999878</ele>
        <time>2017-07-05T16:06:21Z</time>
      </trkpt>
      <trkpt lat="43.61676" lon="6.94544">
        <ele>84.7999878</ele>
        <time>2017-07-05T16:06:27Z</time>
      </trkpt>
      <trkpt lat="43.61673" lon="6.94559">
        <ele>86</ele>
        <time>2017-07-05T16:06:32Z</time>
      </trkpt>
      <trkpt lat="43.61673" lon="6.94557">
        <ele>86.5999756</ele>
        <time>2017-07-05T16:06:36Z</time>
      </trkpt>
      <trkpt lat="43.61674" lon="6.94552">
        <ele>87</ele>
        <time>2017-07-05T16:06:39Z</time>
      </trkpt>
      <trkpt lat="43.61673" lon="6.94549">
        <ele>87</ele>
        <time>2017-07-05T16:06:40Z</time>
      </trkpt>
      <trkpt lat="43.61663" lon="6.94543">
        <ele>86.4000244</ele>
        <time>2017-07-05T16:06:44Z</time>
      </trkpt>
      <trkpt lat="43.61645" lon="6.94549">
        <ele>85.2000122</ele>
        <time>2017-07-05T16:06:48Z</time>
      </trkpt>
      <trkpt lat="43.6164" lon="6.9455">
        <ele>84.7999878</ele>
        <time>2017-07-05T16:06:49Z</time>
      </trkpt>
      <trkpt lat="43.61632" lon="6.94552">
        <ele>83.5999756</ele>
        <time>2017-07-05T16:06:51Z</time>
      </trkpt>
      <trkpt lat="43.61628" lon="6.94553">
        <ele>82.7999878</ele>
        <time>2017-07-05T16:06:52Z</time>
      </trkpt>
      <trkpt lat="43.61624" lon="6.94554">
        <ele>82.4000244</ele>
        <time>2017-07-05T16:06:53Z</time>
      </trkpt>
      <trkpt lat="43.6162" lon="6.94555">
        <ele>81.7999878</ele>
        <time>2017-07-05T16:06:54Z</time>
      </trkpt>
      <trkpt lat="43.61615" lon="6.94557">
        <ele>81.2000122</ele>
        <time>2017-07-05T16:06:55Z</time>
      </trkpt>
      <trkpt lat="43.61607" lon="6.94555">
        <ele>79.5999756</ele>
        <time>2017-07-05T16:06:57Z</time>
      </trkpt>
      <trkpt lat="43.61598" lon="6.94549">
        <ele>78</ele>
        <time>2017-07-05T16:06:59Z</time>
      </trkpt>
      <trkpt lat="43.6159" lon="6.94546">
        <ele>76.5999756</ele>
        <time>2017-07-05T16:07:01Z</time>
      </trkpt>
      <trkpt lat="43.61584" lon="6.94546">
        <ele>75.7999878</ele>
        <time>2017-07-05T16:07:03Z</time>
      </trkpt>
      <trkpt lat="43.6158" lon="6.94546">
        <ele>75.4000244</ele>
        <time>2017-07-05T16:07:05Z</time>
      </trkpt>
      <trkpt lat="43.61574" lon="6.94544">
        <ele>74.4000244</ele>
        <time>2017-07-05T16:07:09Z</time>
      </trkpt>
      <trkpt lat="43.61571" lon="6.94543">
        <ele>73.7999878</ele>
        <time>2017-07-05T16:07:11Z</time>
      </trkpt>
      <trkpt lat="43.61567" lon="6.94538">
        <ele>73.2000122</ele>
        <time>2017-07-05T16:07:14Z</time>
      </trkpt>
      <trkpt lat="43.61562" lon="6.94532">
        <ele>72.5999756</ele>
        <time>2017-07-05T16:07:18Z</time>
      </trkpt>
      <trkpt lat="43.61559" lon="6.9453">
        <ele>72.2000122</ele>
        <time>2017-07-05T16:07:20Z</time>
      </trkpt>
      <trkpt lat="43.61549" lon="6.94525">
        <ele>71.4000244</ele>
        <time>2017-07-05T16:07:25Z</time>
      </trkpt>
      <trkpt lat="43.61545" lon="6.94524">
        <ele>71</ele>
        <time>2017-07-05T16:07:27Z</time>
      </trkpt>
      <trkpt lat="43.61534" lon="6.94522">
        <ele>69.7999878</ele>
        <time>2017-07-05T16:07:31Z</time>
      </trkpt>
      <trkpt lat="43.61531" lon="6.94522">
        <ele>69.5999756</ele>
        <time>2017-07-05T16:07:32Z</time>
      </trkpt>
      <trkpt lat="43.61517" lon="6.9452">
        <ele>68.5999756</ele>
        <time>2017-07-05T16:07:38Z</time>
      </trkpt>
      <trkpt lat="43.61514" lon="6.94519">
        <ele>68.4000244</ele>
        <time>2017-07-05T16:07:39Z</time>
      </trkpt>
      <trkpt lat="43.61505" lon="6.94517">
        <ele>67.5999756</ele>
        <time>2017-07-05T16:07:42Z</time>
      </trkpt>
      <trkpt lat="43.61493" lon="6.94517">
        <ele>66.7999878</ele>
        <time>2017-07-05T16:07:46Z</time>
      </trkpt>
      <trkpt lat="43.61477" lon="6.94525">
        <ele>66.5999756</ele>
        <time>2017-07-05T16:07:53Z</time>
      </trkpt>
      <trkpt lat="43.61461" lon="6.94543">
        <ele>67</ele>
        <time>2017-07-05T16:08:01Z</time>
      </trkpt>
      <trkpt lat="43.61445" lon="6.94557">
        <ele>67.4000244</ele>
        <time>2017-07-05T16:08:07Z</time>
      </trkpt>
      <trkpt lat="43.61436" lon="6.94567">
        <ele>68.2000122</ele>
        <time>2017-07-05T16:08:12Z</time>
      </trkpt>
      <trkpt lat="43.61431" lon="6.94571">
        <ele>68.5999756</ele>
        <time>2017-07-05T16:08:16Z</time>
      </trkpt>
      <trkpt lat="43.61428" lon="6.94571">
        <ele>68.7999878</ele>
        <time>2017-07-05T16:08:17Z</time>
      </trkpt>
      <trkpt lat="43.61421" lon="6.94573">
        <ele>69.5999756</ele>
        <time>2017-07-05T16:08:21Z</time>
      </trkpt>
      <trkpt lat="43.61418" lon="6.94573">
        <ele>69.7999878</ele>
        <time>2017-07-05T16:08:23Z</time>
      </trkpt>
      <trkpt lat="43.61416" lon="6.94573">
        <ele>69.5999756</ele>
        <time>2017-07-05T16:08:24Z</time>
      </trkpt>
      <trkpt lat="43.61412" lon="6.94573">
        <ele>69.2000122</ele>
        <time>2017-07-05T16:08:29Z</time>
      </trkpt>
      <trkpt lat="43.61411" lon="6.94572">
        <ele>68.7999878</ele>
        <time>2017-07-05T16:08:38Z</time>
      </trkpt>
      <trkpt lat="43.61413" lon="6.9457">
        <ele>68.7999878</ele>
        <time>2017-07-05T16:08:44Z</time>
      </trkpt>
      <trkpt lat="43.61426" lon="6.94561">
        <ele>69.5999756</ele>
        <time>2017-07-05T16:08:48Z</time>
      </trkpt>
      <trkpt lat="43.6143" lon="6.94559">
        <ele>69.7999878</ele>
        <time>2017-07-05T16:08:49Z</time>
      </trkpt>
      <trkpt lat="43.61439" lon="6.94556">
        <ele>70.5999756</ele>
        <time>2017-07-05T16:08:51Z</time>
      </trkpt>
      <trkpt lat="43.61443" lon="6.94554">
        <ele>71.2000122</ele>
        <time>2017-07-05T16:08:52Z</time>
      </trkpt>
      <trkpt lat="43.61451" lon="6.94549">
        <ele>71.7999878</ele>
        <time>2017-07-05T16:08:54Z</time>
      </trkpt>
      <trkpt lat="43.6146" lon="6.94539">
        <ele>72.4000244</ele>
        <time>2017-07-05T16:08:57Z</time>
      </trkpt>
      <trkpt lat="43.61467" lon="6.94531">
        <ele>72.4000244</ele>
        <time>2017-07-05T16:08:59Z</time>
      </trkpt>
      <trkpt lat="43.61481" lon="6.94516">
        <ele>73</ele>
        <time>2017-07-05T16:09:03Z</time>
      </trkpt>
      <trkpt lat="43.61491" lon="6.94511">
        <ele>73.4000244</ele>
        <time>2017-07-05T16:09:05Z</time>
      </trkpt>
      <trkpt lat="43.61502" lon="6.94511">
        <ele>73.5999756</ele>
        <time>2017-07-05T16:09:07Z</time>
      </trkpt>
      <trkpt lat="43.61519" lon="6.94514">
        <ele>74</ele>
        <time>2017-07-05T16:09:10Z</time>
      </trkpt>
      <trkpt lat="43.61546" lon="6.94517">
        <ele>74.7999878</ele>
        <time>2017-07-05T16:09:15Z</time>
      </trkpt>
      <trkpt lat="43.61561" lon="6.94522">
        <ele>75</ele>
        <time>2017-07-05T16:09:18Z</time>
      </trkpt>
      <trkpt lat="43.61569" lon="6.94529">
        <ele>74.7999878</ele>
        <time>2017-07-05T16:09:20Z</time>
      </trkpt>
      <trkpt lat="43.61585" lon="6.94541">
        <ele>73.7999878</ele>
        <time>2017-07-05T16:09:24Z</time>
      </trkpt>
      <trkpt lat="43.6159" lon="6.94542">
        <ele>73.5999756</ele>
        <time>2017-07-05T16:09:25Z</time>
      </trkpt>
      <trkpt lat="43.61602" lon="6.94544">
        <ele>73.2000122</ele>
        <time>2017-07-05T16:09:27Z</time>
      </trkpt>
      <trkpt lat="43.61606" lon="6.94548">
        <ele>73</ele>
        <time>2017-07-05T16:09:28Z</time>
      </trkpt>
      <trkpt lat="43.61619" lon="6.94553">
        <ele>73.2000122</ele>
        <time>2017-07-05T16:09:32Z</time>
      </trkpt>
      <trkpt lat="43.61621" lon="6.94553">
        <ele>73.4000244</ele>
        <time>2017-07-05T16:09:33Z</time>
      </trkpt>
      <trkpt lat="43.61629" lon="6.9455">
        <ele>74</ele>
        <time>2017-07-05T16:09:37Z</time>
      </trkpt>
      <trkpt lat="43.61632" lon="6.94549">
        <ele>74</ele>
        <time>2017-07-05T16:09:38Z</time>
      </trkpt>
      <trkpt lat="43.61643" lon="6.94548">
        <ele>74.7999878</ele>
        <time>2017-07-05T16:09:43Z</time>
      </trkpt>
      <trkpt lat="43.61648" lon="6.94547">
        <ele>75.2000122</ele>
        <time>2017-07-05T16:09:45Z</time>
      </trkpt>
      <trkpt lat="43.61657" lon="6.94544">
        <ele>76.2000122</ele>
        <time>2017-07-05T16:09:50Z</time>
      </trkpt>
      <trkpt lat="43.61664" lon="6.94535">
        <ele>77.4000244</ele>
        <time>2017-07-05T16:09:55Z</time>
      </trkpt>
      <trkpt lat="43.61666" lon="6.9453">
        <ele>77.7999878</ele>
        <time>2017-07-05T16:09:58Z</time>
      </trkpt>
      <trkpt lat="43.61666" lon="6.9453">
        <ele>77.7999878</ele>
        <time>2017-07-05T16:10:00Z</time>
      </trkpt>
      <trkpt lat="43.61666" lon="6.94528">
        <ele>77.7999878</ele>
        <time>2017-07-05T16:10:01Z</time>
      </trkpt>
      <trkpt lat="43.61666" lon="6.94526">
        <ele>78</ele>
        <time>2017-07-05T16:10:03Z</time>
      </trkpt>
      <trkpt lat="43.61665" lon="6.94524">
        <ele>78</ele>
        <time>2017-07-05T16:10:05Z</time>
      </trkpt>
      <trkpt lat="43.61665" lon="6.94522">
        <ele>78</ele>
        <time>2017-07-05T16:10:08Z</time>
      </trkpt>
      <trkpt lat="43.61666" lon="6.94519">
        <ele>78.2000122</ele>
        <time>2017-07-05T16:10:10Z</time>
      </trkpt>
      <trkpt lat="43.61668" lon="6.94508">
        <ele>78.4000244</ele>
        <time>2017-07-05T16:10:14Z</time>
      </trkpt>
      <trkpt lat="43.61668" lon="6.94506">
        <ele>78.5999756</ele>
        <time>2017-07-05T16:10:15Z</time>
      </trkpt>
      <trkpt lat="43.61671" lon="6.94497">
        <ele>79.4000244</ele>
        <time>2017-07-05T16:10:19Z</time>
      </trkpt>
      <trkpt lat="43.61672" lon="6.94496">
        <ele>79.7999878</ele>
        <time>2017-07-05T16:10:20Z</time>
      </trkpt>
      <trkpt lat="43.61676" lon="6.94503">
        <ele>80.2000122</ele>
        <time>2017-07-05T16:10:24Z</time>
      </trkpt>
      <trkpt lat="43.61678" lon="6.94508">
        <ele>80.5999756</ele>
        <time>2017-07-05T16:10:26Z</time>
      </trkpt>
      <trkpt lat="43.61679" lon="6.94518">
        <ele>81.4000244</ele>
        <time>2017-07-05T16:10:29Z</time>
      </trkpt>
      <trkpt lat="43.61679" lon="6.94521">
        <ele>81.5999756</ele>
        <time>2017-07-05T16:10:30Z</time>
      </trkpt>
      <trkpt lat="43.61677" lon="6.94549">
        <ele>82.2000122</ele>
        <time>2017-07-05T16:10:36Z</time>
      </trkpt>
      <trkpt lat="43.61675" lon="6.94561">
        <ele>82.5999756</ele>
        <time>2017-07-05T16:10:38Z</time>
      </trkpt>
      <trkpt lat="43.61675" lon="6.94568">
        <ele>82.5999756</ele>
        <time>2017-07-05T16:10:39Z</time>
      </trkpt>
      <trkpt lat="43.61675" lon="6.94582">
        <ele>82.7999878</ele>
        <time>2017-07-05T16:10:41Z</time>
      </trkpt>
      <trkpt lat="43.61678" lon="6.94609">
        <ele>82.5999756</ele>
        <time>2017-07-05T16:10:46Z</time>
      </trkpt>
      <trkpt lat="43.61679" lon="6.94635">
        <ele>83.4000244</ele>
        <time>2017-07-05T16:10:51Z</time>
      </trkpt>
      <trkpt lat="43.61683" lon="6.94657">
        <ele>83.7999878</ele>
        <time>2017-07-05T16:10:56Z</time>
      </trkpt>
      <trkpt lat="43.61684" lon="6.94664">
        <ele>84.2000122</ele>
        <time>2017-07-05T16:10:58Z</time>
      </trkpt>
      <trkpt lat="43.61686" lon="6.94672">
        <ele>85</ele>
        <time>2017-07-05T16:11:01Z</time>
      </trkpt>
      <trkpt lat="43.61689" lon="6.94682">
        <ele>85.4000244</ele>
        <time>2017-07-05T16:11:05Z</time>
      </trkpt>
      <trkpt lat="43.61692" lon="6.94697">
        <ele>86.2000122</ele>
        <time>2017-07-05T16:11:11Z</time>
      </trkpt>
      <trkpt lat="43.61692" lon="6.94706">
        <ele>87.2000122</ele>
        <time>2017-07-05T16:11:14Z</time>
      </trkpt>
      <trkpt lat="43.61694" lon="6.94713">
        <ele>87.7999878</ele>
        <time>2017-07-05T16:11:17Z</time>
      </trkpt>
      <trkpt lat="43.61696" lon="6.9472">
        <ele>88.4000244</ele>
        <time>2017-07-05T16:11:20Z</time>
      </trkpt>
      <trkpt lat="43.61698" lon="6.9473">
        <ele>89.7999878</ele>
        <time>2017-07-05T16:11:24Z</time>
      </trkpt>
      <trkpt lat="43.61699" lon="6.94732">
        <ele>90</ele>
        <time>2017-07-05T16:11:25Z</time>
      </trkpt>
      <trkpt lat="43.61702" lon="6.94746">
        <ele>90.7999878</ele>
        <time>2017-07-05T16:11:31Z</time>
      </trkpt>
      <trkpt lat="43.61702" lon="6.94748">
        <ele>91</ele>
        <time>2017-07-05T16:11:32Z</time>
      </trkpt>
      <trkpt lat="43.61705" lon="6.94754">
        <ele>92.2000122</ele>
        <time>2017-07-05T16:11:35Z</time>
      </trkpt>
      <trkpt lat="43.61707" lon="6.94759">
        <ele>92.7999878</ele>
        <time>2017-07-05T16:11:37Z</time>
      </trkpt>
      <trkpt lat="43.6171" lon="6.94772">
        <ele>93.2000122</ele>
        <time>2017-07-05T16:11:42Z</time>
      </trkpt>
      <trkpt lat="43.61711" lon="6.94775">
        <ele>93.2000122</ele>
        <time>2017-07-05T16:11:43Z</time>
      </trkpt>
      <trkpt lat="43.61715" lon="6.94794">
        <ele>93.7999878</ele>
        <time>2017-07-05T16:11:50Z</time>
      </trkpt>
      <trkpt lat="43.61717" lon="6.94807">
        <ele>94.4000244</ele>
        <time>2017-07-05T16:11:54Z</time>
      </trkpt>
      <trkpt lat="43.61718" lon="6.94819">
        <ele>94.5999756</ele>
        <time>2017-07-05T16:11:58Z</time>
      </trkpt>
      <trkpt lat="43.61722" lon="6.94843">
        <ele>95</ele>
        <time>2017-07-05T16:12:06Z</time>
      </trkpt>
      <trkpt lat="43.61725" lon="6.94855">
        <ele>95.4000244</ele>
        <time>2017-07-05T16:12:10Z</time>
      </trkpt>
      <trkpt lat="43.61728" lon="6.94861">
        <ele>95.5999756</ele>
        <time>2017-07-05T16:12:12Z</time>
      </trkpt>
      <trkpt lat="43.61741" lon="6.9488">
        <ele>96.2000122</ele>
        <time>2017-07-05T16:12:18Z</time>
      </trkpt>
      <trkpt lat="43.61755" lon="6.94905">
        <ele>95.4000244</ele>
        <time>2017-07-05T16:12:25Z</time>
      </trkpt>
      <trkpt lat="43.61766" lon="6.94922">
        <ele>94.5999756</ele>
        <time>2017-07-05T16:12:29Z</time>
      </trkpt>
      <trkpt lat="43.61769" lon="6.94928">
        <ele>94</ele>
        <time>2017-07-05T16:12:30Z</time>
      </trkpt>
      <trkpt lat="43.61771" lon="6.94935">
        <ele>93.5999756</ele>
        <time>2017-07-05T16:12:31Z</time>
      </trkpt>
      <trkpt lat="43.61772" lon="6.94951">
        <ele>92.7999878</ele>
        <time>2017-07-05T16:12:33Z</time>
      </trkpt>
      <trkpt lat="43.61766" lon="6.94977">
        <ele>91.5999756</ele>
        <time>2017-07-05T16:12:36Z</time>
      </trkpt>
      <trkpt lat="43.61759" lon="6.94998">
        <ele>90</ele>
        <time>2017-07-05T16:12:39Z</time>
      </trkpt>
      <trkpt lat="43.61756" lon="6.95005">
        <ele>89.4000244</ele>
        <time>2017-07-05T16:12:40Z</time>
      </trkpt>
      <trkpt lat="43.61754" lon="6.95011">
        <ele>88.7999878</ele>
        <time>2017-07-05T16:12:41Z</time>
      </trkpt>
      <trkpt lat="43.6175" lon="6.95022">
        <ele>87.4000244</ele>
        <time>2017-07-05T16:12:43Z</time>
      </trkpt>
      <trkpt lat="43.61746" lon="6.95029">
        <ele>86.2000122</ele>
        <time>2017-07-05T16:12:45Z</time>
      </trkpt>
      <trkpt lat="43.61742" lon="6.95036">
        <ele>84.7999878</ele>
        <time>2017-07-05T16:12:47Z</time>
      </trkpt>
      <trkpt lat="43.61741" lon="6.95042">
        <ele>83.7999878</ele>
        <time>2017-07-05T16:12:49Z</time>
      </trkpt>
      <trkpt lat="43.61742" lon="6.95048">
        <ele>83.2000122</ele>
        <time>2017-07-05T16:12:51Z</time>
      </trkpt>
      <trkpt lat="43.61742" lon="6.95054">
        <ele>82.4000244</ele>
        <time>2017-07-05T16:12:53Z</time>
      </trkpt>
      <trkpt lat="43.61743" lon="6.95059">
        <ele>82</ele>
        <time>2017-07-05T16:12:54Z</time>
      </trkpt>
      <trkpt lat="43.61744" lon="6.95066">
        <ele>81</ele>
        <time>2017-07-05T16:12:56Z</time>
      </trkpt>
      <trkpt lat="43.61744" lon="6.95071">
        <ele>80.2000122</ele>
        <time>2017-07-05T16:12:58Z</time>
      </trkpt>
      <trkpt lat="43.61742" lon="6.95077">
        <ele>79.5999756</ele>
        <time>2017-07-05T16:12:59Z</time>
      </trkpt>
      <trkpt lat="43.6174" lon="6.95082">
        <ele>79.2000122</ele>
        <time>2017-07-05T16:13:00Z</time>
      </trkpt>
      <trkpt lat="43.61738" lon="6.95084">
        <ele>78.5999756</ele>
        <time>2017-07-05T16:13:01Z</time>
      </trkpt>
      <trkpt lat="43.61735" lon="6.9509">
        <ele>77.5999756</ele>
        <time>2017-07-05T16:13:03Z</time>
      </trkpt>
      <trkpt lat="43.61733" lon="6.95091">
        <ele>77.2000122</ele>
        <time>2017-07-05T16:13:04Z</time>
      </trkpt>
      <trkpt lat="43.61728" lon="6.95097">
        <ele>76.4000244</ele>
        <time>2017-07-05T16:13:07Z</time>
      </trkpt>
      <trkpt lat="43.61725" lon="6.95104">
        <ele>76.2000122</ele>
        <time>2017-07-05T16:13:09Z</time>
      </trkpt>
      <trkpt lat="43.61724" lon="6.95108">
        <ele>76</ele>
        <time>2017-07-05T16:13:10Z</time>
      </trkpt>
      <trkpt lat="43.61723" lon="6.95115">
        <ele>75.7999878</ele>
        <time>2017-07-05T16:13:12Z</time>
      </trkpt>
      <trkpt lat="43.6172" lon="6.95128">
        <ele>75</ele>
        <time>2017-07-05T16:13:17Z</time>
      </trkpt>
      <trkpt lat="43.61718" lon="6.95139">
        <ele>75</ele>
        <time>2017-07-05T16:13:21Z</time>
      </trkpt>
      <trkpt lat="43.61714" lon="6.95146">
        <ele>74.7999878</ele>
        <time>2017-07-05T16:13:23Z</time>
      </trkpt>
      <trkpt lat="43.61706" lon="6.95161">
        <ele>75.2000122</ele>
        <time>2017-07-05T16:13:29Z</time>
      </trkpt>
      <trkpt lat="43.61703" lon="6.95172">
        <ele>76.4000244</ele>
        <time>2017-07-05T16:13:32Z</time>
      </trkpt>
      <trkpt lat="43.61703" lon="6.9518">
        <ele>77</ele>
        <time>2017-07-05T16:13:34Z</time>
      </trkpt>
      <trkpt lat="43.61703" lon="6.95184">
        <ele>77.4000244</ele>
        <time>2017-07-05T16:13:35Z</time>
      </trkpt>
      <trkpt lat="43.61707" lon="6.95199">
        <ele>78.5999756</ele>
        <time>2017-07-05T16:13:39Z</time>
      </trkpt>
      <trkpt lat="43.61709" lon="6.95207">
        <ele>78.7999878</ele>
        <time>2017-07-05T16:13:41Z</time>
      </trkpt>
      <trkpt lat="43.61712" lon="6.95223">
        <ele>79.7999878</ele>
        <time>2017-07-05T16:13:45Z</time>
      </trkpt>
      <trkpt lat="43.61711" lon="6.95226">
        <ele>79.7999878</ele>
        <time>2017-07-05T16:13:46Z</time>
      </trkpt>
      <trkpt lat="43.61704" lon="6.95222">
        <ele>79.7999878</ele>
        <time>2017-07-05T16:13:49Z</time>
      </trkpt>
      <trkpt lat="43.61697" lon="6.95216">
        <ele>80.7999878</ele>
        <time>2017-07-05T16:13:52Z</time>
      </trkpt>
      <trkpt lat="43.61693" lon="6.95212">
        <ele>81.7999878</ele>
        <time>2017-07-05T16:13:54Z</time>
      </trkpt>
      <trkpt lat="43.6169" lon="6.95211">
        <ele>81.7999878</ele>
        <time>2017-07-05T16:13:55Z</time>
      </trkpt>
      <trkpt lat="43.6167" lon="6.95202">
        <ele>83</ele>
        <time>2017-07-05T16:14:03Z</time>
      </trkpt>
      <trkpt lat="43.61661" lon="6.952">
        <ele>84.2000122</ele>
        <time>2017-07-05T16:14:07Z</time>
      </trkpt>
      <trkpt lat="43.61651" lon="6.95197">
        <ele>84.7999878</ele>
        <time>2017-07-05T16:14:11Z</time>
      </trkpt>
      <trkpt lat="43.61645" lon="6.95194">
        <ele>85.4000244</ele>
        <time>2017-07-05T16:14:13Z</time>
      </trkpt>
      <trkpt lat="43.61635" lon="6.95187">
        <ele>86.4000244</ele>
        <time>2017-07-05T16:14:17Z</time>
      </trkpt>
      <trkpt lat="43.61619" lon="6.95179">
        <ele>87.5999756</ele>
        <time>2017-07-05T16:14:23Z</time>
      </trkpt>
      <trkpt lat="43.61614" lon="6.95177">
        <ele>88.2000122</ele>
        <time>2017-07-05T16:14:25Z</time>
      </trkpt>
      <trkpt lat="43.61601" lon="6.95173">
        <ele>88.7999878</ele>
        <time>2017-07-05T16:14:30Z</time>
      </trkpt>
      <trkpt lat="43.61593" lon="6.95167">
        <ele>89.5999756</ele>
        <time>2017-07-05T16:14:33Z</time>
      </trkpt>
      <trkpt lat="43.61588" lon="6.95163">
        <ele>90</ele>
        <time>2017-07-05T16:14:35Z</time>
      </trkpt>
      <trkpt lat="43.6158" lon="6.95149">
        <ele>90.5999756</ele>
        <time>2017-07-05T16:14:40Z</time>
      </trkpt>
      <trkpt lat="43.61577" lon="6.95142">
        <ele>91.2000122</ele>
        <time>2017-07-05T16:14:42Z</time>
      </trkpt>
      <trkpt lat="43.61571" lon="6.95137">
        <ele>92</ele>
        <time>2017-07-05T16:14:45Z</time>
      </trkpt>
      <trkpt lat="43.61569" lon="6.95135">
        <ele>92.4000244</ele>
        <time>2017-07-05T16:14:47Z</time>
      </trkpt>
      <trkpt lat="43.61568" lon="6.95135">
        <ele>92.4000244</ele>
        <time>2017-07-05T16:14:50Z</time>
      </trkpt>
      <trkpt lat="43.6157" lon="6.95136">
        <ele>92.7999878</ele>
        <time>2017-07-05T16:14:57Z</time>
      </trkpt>
      <trkpt lat="43.61573" lon="6.95134">
        <ele>93.4000244</ele>
        <time>2017-07-05T16:15:01Z</time>
      </trkpt>
      <trkpt lat="43.61573" lon="6.95133">
        <ele>93.4000244</ele>
        <time>2017-07-05T16:15:02Z</time>
      </trkpt>
      <trkpt lat="43.61573" lon="6.95133">
        <ele>93.4000244</ele>
        <time>2017-07-05T16:15:13Z</time>
      </trkpt>
      <trkpt lat="43.61573" lon="6.95133">
        <ele>93.4000244</ele>
        <time>2017-07-05T16:15:28Z</time>
      </trkpt>
      <trkpt lat="43.61573" lon="6.95133">
        <ele>93.4000244</ele>
        <time>2017-07-05T16:15:39Z</time>
      </trkpt>
      <trkpt lat="43.61573" lon="6.95133">
        <ele>93.4000244</ele>
        <time>2017-07-05T16:15:52Z</time>
      </trkpt>
      <trkpt lat="43.61573" lon="6.95133">
        <ele>93.4000244</ele>
        <time>2017-07-05T16:16:03Z</time>
      </trkpt>
      <trkpt lat="43.61573" lon="6.95133">
        <ele>93.4000244</ele>
        <time>2017-07-05T16:16:13Z</time>
      </trkpt>
      <trkpt lat="43.61573" lon="6.95134">
        <ele>92.7999878</ele>
        <time>2017-07-05T16:16:23Z</time>
      </trkpt>
      <trkpt lat="43.61573" lon="6.95134">
        <ele>92.7999878</ele>
        <time>2017-07-05T16:16:36Z</time>
      </trkpt>
      <trkpt lat="43.61573" lon="6.95134">
        <ele>92.7999878</ele>
        <time>2017-07-05T16:16:46Z</time>
      </trkpt>
      <trkpt lat="43.61573" lon="6.95134">
        <ele>92.7999878</ele>
        <time>2017-07-05T16:17:01Z</time>
      </trkpt>
      <trkpt lat="43.61573" lon="6.95134">
        <ele>92.7999878</ele>
        <time>2017-07-05T16:17:12Z</time>
      </trkpt>
      <trkpt lat="43.61573" lon="6.95134">
        <ele>92.7999878</ele>
        <time>2017-07-05T16:17:23Z</time>
      </trkpt>
      <trkpt lat="43.61573" lon="6.95134">
        <ele>92.7999878</ele>
        <time>2017-07-05T16:17:36Z</time>
      </trkpt>
      <trkpt lat="43.61573" lon="6.95134">
        <ele>93</ele>
        <time>2017-07-05T16:17:47Z</time>
      </trkpt>
      <trkpt lat="43.61573" lon="6.95134">
        <ele>93</ele>
        <time>2017-07-05T16:17:57Z</time>
      </trkpt>
      <trkpt lat="43.61573" lon="6.95134">
        <ele>93</ele>
        <time>2017-07-05T16:18:14Z</time>
      </trkpt>
      <trkpt lat="43.61573" lon="6.95134">
        <ele>92.7999878</ele>
        <time>2017-07-05T16:18:30Z</time>
      </trkpt>
      <trkpt lat="43.61573" lon="6.95134">
        <ele>92.7999878</ele>
        <time>2017-07-05T16:18:48Z</time>
      </trkpt>
      <trkpt lat="43.61573" lon="6.95134">
        <ele>92.7999878</ele>
        <time>2017-07-05T16:19:00Z</time>
      </trkpt>
      <trkpt lat="43.61573" lon="6.95135">
        <ele>92.7999878</ele>
        <time>2017-07-05T16:19:18Z</time>
      </trkpt>
      <trkpt lat="43.61573" lon="6.95135">
        <ele>92.7999878</ele>
        <time>2017-07-05T16:19:31Z</time>
      </trkpt>
      <trkpt lat="43.61573" lon="6.95135">
        <ele>92.5999756</ele>
        <time>2017-07-05T16:19:44Z</time>
      </trkpt>
      <trkpt lat="43.61573" lon="6.95135">
        <ele>92.5999756</ele>
        <time>2017-07-05T16:20:03Z</time>
      </trkpt>
      <trkpt lat="43.61573" lon="6.95135">
        <ele>92.5999756</ele>
        <time>2017-07-05T16:20:18Z</time>
      </trkpt>
      <trkpt lat="43.61573" lon="6.95135">
        <ele>92.5999756</ele>
        <time>2017-07-05T16:20:35Z</time>
      </trkpt>
      <trkpt lat="43.61573" lon="6.95135">
        <ele>92.5999756</ele>
        <time>2017-07-05T16:20:54Z</time>
      </trkpt>
      <trkpt lat="43.61573" lon="6.95135">
        <ele>92.7999878</ele>
        <time>2017-07-05T16:21:10Z</time>
      </trkpt>
      <trkpt lat="43.61573" lon="6.95135">
        <ele>92.7999878</ele>
        <time>2017-07-05T16:21:20Z</time>
      </trkpt>
      <trkpt lat="43.61573" lon="6.95135">
        <ele>92.7999878</ele>
        <time>2017-07-05T16:21:26Z</time>
      </trkpt>
      <trkpt lat="43.61572" lon="6.95131">
        <ele>93</ele>
        <time>2017-07-05T16:21:31Z</time>
      </trkpt>
      <trkpt lat="43.61571" lon="6.95129">
        <ele>93.2000122</ele>
        <time>2017-07-05T16:21:32Z</time>
      </trkpt>
      <trkpt lat="43.61569" lon="6.95124">
        <ele>93.4000244</ele>
        <time>2017-07-05T16:21:34Z</time>
      </trkpt>
      <trkpt lat="43.61567" lon="6.9512">
        <ele>93.4000244</ele>
        <time>2017-07-05T16:21:36Z</time>
      </trkpt>
      <trkpt lat="43.61565" lon="6.95119">
        <ele>93.4000244</ele>
        <time>2017-07-05T16:21:37Z</time>
      </trkpt>
      <trkpt lat="43.61554" lon="6.95109">
        <ele>93.4000244</ele>
        <time>2017-07-05T16:21:41Z</time>
      </trkpt>
      <trkpt lat="43.61547" lon="6.95087">
        <ele>93.5999756</ele>
        <time>2017-07-05T16:21:46Z</time>
      </trkpt>
      <trkpt lat="43.61543" lon="6.95076">
        <ele>93.5999756</ele>
        <time>2017-07-05T16:21:48Z</time>
      </trkpt>
      <trkpt lat="43.61534" lon="6.95051">
        <ele>93.5999756</ele>
        <time>2017-07-05T16:21:52Z</time>
      </trkpt>
      <trkpt lat="43.61519" lon="6.95014">
        <ele>93.4000244</ele>
        <time>2017-07-05T16:21:57Z</time>
      </trkpt>
      <trkpt lat="43.61502" lon="6.94973">
        <ele>92.7999878</ele>
        <time>2017-07-05T16:22:03Z</time>
      </trkpt>
      <trkpt lat="43.61498" lon="6.94967">
        <ele>92.7999878</ele>
        <time>2017-07-05T16:22:04Z</time>
      </trkpt>
      <trkpt lat="43.61486" lon="6.94958">
        <ele>92.4000244</ele>
        <time>2017-07-05T16:22:07Z</time>
      </trkpt>
      <trkpt lat="43.61483" lon="6.94955">
        <ele>92.2000122</ele>
        <time>2017-07-05T16:22:08Z</time>
      </trkpt>
      <trkpt lat="43.61468" lon="6.94945">
        <ele>91</ele>
        <time>2017-07-05T16:22:12Z</time>
      </trkpt>
      <trkpt lat="43.61464" lon="6.94943">
        <ele>90.7999878</ele>
        <time>2017-07-05T16:22:13Z</time>
      </trkpt>
      <trkpt lat="43.61457" lon="6.9493">
        <ele>90.2000122</ele>
        <time>2017-07-05T16:22:16Z</time>
      </trkpt>
      <trkpt lat="43.61454" lon="6.94928">
        <ele>90</ele>
        <time>2017-07-05T16:22:17Z</time>
      </trkpt>
      <trkpt lat="43.61444" lon="6.94926">
        <ele>89.7999878</ele>
        <time>2017-07-05T16:22:19Z</time>
      </trkpt>
      <trkpt lat="43.61433" lon="6.94922">
        <ele>89.2000122</ele>
        <time>2017-07-05T16:22:21Z</time>
      </trkpt>
      <trkpt lat="43.61427" lon="6.9492">
        <ele>89</ele>
        <time>2017-07-05T16:22:22Z</time>
      </trkpt>
      <trkpt lat="43.61411" lon="6.94915">
        <ele>88.4000244</ele>
        <time>2017-07-05T16:22:25Z</time>
      </trkpt>
      <trkpt lat="43.61402" lon="6.94911">
        <ele>88.2000122</ele>
        <time>2017-07-05T16:22:27Z</time>
      </trkpt>
      <trkpt lat="43.61396" lon="6.94903">
        <ele>87.7999878</ele>
        <time>2017-07-05T16:22:29Z</time>
      </trkpt>
      <trkpt lat="43.61389" lon="6.94878">
        <ele>86.7999878</ele>
        <time>2017-07-05T16:22:33Z</time>
      </trkpt>
      <trkpt lat="43.61382" lon="6.94843">
        <ele>85.5999756</ele>
        <time>2017-07-05T16:22:37Z</time>
      </trkpt>
      <trkpt lat="43.61373" lon="6.94819">
        <ele>85.2000122</ele>
        <time>2017-07-05T16:22:40Z</time>
      </trkpt>
      <trkpt lat="43.61371" lon="6.94811">
        <ele>85</ele>
        <time>2017-07-05T16:22:41Z</time>
      </trkpt>
      <trkpt lat="43.6137" lon="6.94803">
        <ele>85</ele>
        <time>2017-07-05T16:22:42Z</time>
      </trkpt>
      <trkpt lat="43.61371" lon="6.9478">
        <ele>85</ele>
        <time>2017-07-05T16:22:45Z</time>
      </trkpt>
      <trkpt lat="43.61374" lon="6.94766">
        <ele>85</ele>
        <time>2017-07-05T16:22:47Z</time>
      </trkpt>
      <trkpt lat="43.61382" lon="6.94746">
        <ele>85.2000122</ele>
        <time>2017-07-05T16:22:50Z</time>
      </trkpt>
      <trkpt lat="43.61397" lon="6.94718">
        <ele>85</ele>
        <time>2017-07-05T16:22:55Z</time>
      </trkpt>
      <trkpt lat="43.61398" lon="6.94715">
        <ele>85.2000122</ele>
        <time>2017-07-05T16:22:56Z</time>
      </trkpt>
      <trkpt lat="43.614" lon="6.94705">
        <ele>86</ele>
        <time>2017-07-05T16:23:01Z</time>
      </trkpt>
      <trkpt lat="43.614" lon="6.947">
        <ele>87</ele>
        <time>2017-07-05T16:23:06Z</time>
      </trkpt>
      <trkpt lat="43.614" lon="6.94699">
        <ele>87.2000122</ele>
        <time>2017-07-05T16:23:07Z</time>
      </trkpt>
      <trkpt lat="43.61401" lon="6.94692">
        <ele>87.2000122</ele>
        <time>2017-07-05T16:23:14Z</time>
      </trkpt>
      <trkpt lat="43.61405" lon="6.94676">
        <ele>88</ele>
        <time>2017-07-05T16:23:19Z</time>
      </trkpt>
      <trkpt lat="43.61406" lon="6.94664">
        <ele>88.2000122</ele>
        <time>2017-07-05T16:23:22Z</time>
      </trkpt>
      <trkpt lat="43.61405" lon="6.94661">
        <ele>88.2000122</ele>
        <time>2017-07-05T16:23:23Z</time>
      </trkpt>
      <trkpt lat="43.61402" lon="6.94652">
        <ele>88.5999756</ele>
        <time>2017-07-05T16:23:26Z</time>
      </trkpt>
      <trkpt lat="43.614" lon="6.94644">
        <ele>88.5999756</ele>
        <time>2017-07-05T16:23:28Z</time>
      </trkpt>
      <trkpt lat="43.61396" lon="6.94636">
        <ele>88.4000244</ele>
        <time>2017-07-05T16:23:30Z</time>
      </trkpt>
      <trkpt lat="43.61392" lon="6.9463">
        <ele>88.2000122</ele>
        <time>2017-07-05T16:23:32Z</time>
      </trkpt>
      <trkpt lat="43.61383" lon="6.94614">
        <ele>86.5999756</ele>
        <time>2017-07-05T16:23:36Z</time>
      </trkpt>
      <trkpt lat="43.61376" lon="6.94605">
        <ele>85.4000244</ele>
        <time>2017-07-05T16:23:39Z</time>
      </trkpt>
      <trkpt lat="43.61371" lon="6.94599">
        <ele>84.7999878</ele>
        <time>2017-07-05T16:23:41Z</time>
      </trkpt>
      <trkpt lat="43.61368" lon="6.94596">
        <ele>84.4000244</ele>
        <time>2017-07-05T16:23:42Z</time>
      </trkpt>
      <trkpt lat="43.61358" lon="6.94588">
        <ele>83.2000122</ele>
        <time>2017-07-05T16:23:45Z</time>
      </trkpt>
      <trkpt lat="43.61348" lon="6.9458">
        <ele>82.2000122</ele>
        <time>2017-07-05T16:23:47Z</time>
      </trkpt>
      <trkpt lat="43.6134" lon="6.94572">
        <ele>81</ele>
        <time>2017-07-05T16:23:49Z</time>
      </trkpt>
      <trkpt lat="43.61333" lon="6.94566">
        <ele>79.5999756</ele>
        <time>2017-07-05T16:23:51Z</time>
      </trkpt>
      <trkpt lat="43.61325" lon="6.94564">
        <ele>78.7999878</ele>
        <time>2017-07-05T16:23:53Z</time>
      </trkpt>
      <trkpt lat="43.61321" lon="6.94562">
        <ele>78.4000244</ele>
        <time>2017-07-05T16:23:54Z</time>
      </trkpt>
      <trkpt lat="43.6131" lon="6.94556">
        <ele>77.4000244</ele>
        <time>2017-07-05T16:23:57Z</time>
      </trkpt>
      <trkpt lat="43.61306" lon="6.94554">
        <ele>77</ele>
        <time>2017-07-05T16:23:58Z</time>
      </trkpt>
      <trkpt lat="43.61298" lon="6.94551">
        <ele>76.2000122</ele>
        <time>2017-07-05T16:24:00Z</time>
      </trkpt>
      <trkpt lat="43.6129" lon="6.94552">
        <ele>75.4000244</ele>
        <time>2017-07-05T16:24:02Z</time>
      </trkpt>
      <trkpt lat="43.61287" lon="6.94551">
        <ele>75.2000122</ele>
        <time>2017-07-05T16:24:03Z</time>
      </trkpt>
      <trkpt lat="43.61277" lon="6.94544">
        <ele>74.2000122</ele>
        <time>2017-07-05T16:24:06Z</time>
      </trkpt>
      <trkpt lat="43.61275" lon="6.94541">
        <ele>74</ele>
        <time>2017-07-05T16:24:07Z</time>
      </trkpt>
      <trkpt lat="43.61264" lon="6.94534">
        <ele>72.7999878</ele>
        <time>2017-07-05T16:24:10Z</time>
      </trkpt>
      <trkpt lat="43.61253" lon="6.94528">
        <ele>72.2000122</ele>
        <time>2017-07-05T16:24:13Z</time>
      </trkpt>
      <trkpt lat="43.61244" lon="6.94521">
        <ele>71.7999878</ele>
        <time>2017-07-05T16:24:16Z</time>
      </trkpt>
      <trkpt lat="43.61238" lon="6.94518">
        <ele>71.5999756</ele>
        <time>2017-07-05T16:24:18Z</time>
      </trkpt>
      <trkpt lat="43.61214" lon="6.94506">
        <ele>71</ele>
        <time>2017-07-05T16:24:24Z</time>
      </trkpt>
      <trkpt lat="43.61205" lon="6.945">
        <ele>70.4000244</ele>
        <time>2017-07-05T16:24:26Z</time>
      </trkpt>
      <trkpt lat="43.612" lon="6.94497">
        <ele>70.2000122</ele>
        <time>2017-07-05T16:24:27Z</time>
      </trkpt>
      <trkpt lat="43.61189" lon="6.94494">
        <ele>69.7999878</ele>
        <time>2017-07-05T16:24:29Z</time>
      </trkpt>
      <trkpt lat="43.61179" lon="6.9449">
        <ele>70</ele>
        <time>2017-07-05T16:24:31Z</time>
      </trkpt>
      <trkpt lat="43.6117" lon="6.94487">
        <ele>70.2000122</ele>
        <time>2017-07-05T16:24:33Z</time>
      </trkpt>
      <trkpt lat="43.61166" lon="6.94485">
        <ele>70.4000244</ele>
        <time>2017-07-05T16:24:34Z</time>
      </trkpt>
      <trkpt lat="43.61154" lon="6.94471">
        <ele>71</ele>
        <time>2017-07-05T16:24:38Z</time>
      </trkpt>
      <trkpt lat="43.61149" lon="6.94463">
        <ele>71.4000244</ele>
        <time>2017-07-05T16:24:40Z</time>
      </trkpt>
      <trkpt lat="43.61141" lon="6.94456">
        <ele>71.5999756</ele>
        <time>2017-07-05T16:24:42Z</time>
      </trkpt>
      <trkpt lat="43.61117" lon="6.94438">
        <ele>71</ele>
        <time>2017-07-05T16:24:48Z</time>
      </trkpt>
      <trkpt lat="43.61095" lon="6.94423">
        <ele>70.4000244</ele>
        <time>2017-07-05T16:24:53Z</time>
      </trkpt>
      <trkpt lat="43.61087" lon="6.94417">
        <ele>70</ele>
        <time>2017-07-05T16:24:55Z</time>
      </trkpt>
      <trkpt lat="43.61073" lon="6.94415">
        <ele>70.2000122</ele>
        <time>2017-07-05T16:24:59Z</time>
      </trkpt>
      <trkpt lat="43.61068" lon="6.94411">
        <ele>70.4000244</ele>
        <time>2017-07-05T16:25:01Z</time>
      </trkpt>
      <trkpt lat="43.61056" lon="6.94404">
        <ele>70.5999756</ele>
        <time>2017-07-05T16:25:04Z</time>
      </trkpt>
      <trkpt lat="43.61038" lon="6.94396">
        <ele>71</ele>
        <time>2017-07-05T16:25:10Z</time>
      </trkpt>
      <trkpt lat="43.61032" lon="6.94394">
        <ele>71.5999756</ele>
        <time>2017-07-05T16:25:12Z</time>
      </trkpt>
      <trkpt lat="43.61024" lon="6.9439">
        <ele>72.5999756</ele>
        <time>2017-07-05T16:25:15Z</time>
      </trkpt>
      <trkpt lat="43.61022" lon="6.94389">
        <ele>73</ele>
        <time>2017-07-05T16:25:16Z</time>
      </trkpt>
      <trkpt lat="43.61017" lon="6.94386">
        <ele>73.5999756</ele>
        <time>2017-07-05T16:25:18Z</time>
      </trkpt>
      <trkpt lat="43.61008" lon="6.94384">
        <ele>74.5999756</ele>
        <time>2017-07-05T16:25:23Z</time>
      </trkpt>
      <trkpt lat="43.61006" lon="6.94384">
        <ele>74.7999878</ele>
        <time>2017-07-05T16:25:24Z</time>
      </trkpt>
      <trkpt lat="43.60999" lon="6.94376">
        <ele>75.4000244</ele>
        <time>2017-07-05T16:25:28Z</time>
      </trkpt>
      <trkpt lat="43.60992" lon="6.94374">
        <ele>76</ele>
        <time>2017-07-05T16:25:31Z</time>
      </trkpt>
      <trkpt lat="43.6099" lon="6.94372">
        <ele>76.2000122</ele>
        <time>2017-07-05T16:25:32Z</time>
      </trkpt>
      <trkpt lat="43.60978" lon="6.94366">
        <ele>76.5999756</ele>
        <time>2017-07-05T16:25:36Z</time>
      </trkpt>
      <trkpt lat="43.60974" lon="6.94364">
        <ele>77</ele>
        <time>2017-07-05T16:25:38Z</time>
      </trkpt>
      <trkpt lat="43.60972" lon="6.94363">
        <ele>77.2000122</ele>
        <time>2017-07-05T16:25:39Z</time>
      </trkpt>
      <trkpt lat="43.60966" lon="6.94355">
        <ele>77.2000122</ele>
        <time>2017-07-05T16:25:42Z</time>
      </trkpt>
      <trkpt lat="43.60956" lon="6.94349">
        <ele>77.2000122</ele>
        <time>2017-07-05T16:25:46Z</time>
      </trkpt>
      <trkpt lat="43.60942" lon="6.94339">
        <ele>78.2000122</ele>
        <time>2017-07-05T16:25:52Z</time>
      </trkpt>
      <trkpt lat="43.60924" lon="6.94328">
        <ele>79.2000122</ele>
        <time>2017-07-05T16:25:58Z</time>
      </trkpt>
      <trkpt lat="43.6092" lon="6.94327">
        <ele>79.7999878</ele>
        <time>2017-07-05T16:25:59Z</time>
      </trkpt>
      <trkpt lat="43.60913" lon="6.94322">
        <ele>79.7999878</ele>
        <time>2017-07-05T16:26:03Z</time>
      </trkpt>
      <trkpt lat="43.609" lon="6.94312">
        <ele>78.4000244</ele>
        <time>2017-07-05T16:26:07Z</time>
      </trkpt>
      <trkpt lat="43.60896" lon="6.94309">
        <ele>78</ele>
        <time>2017-07-05T16:26:08Z</time>
      </trkpt>
      <trkpt lat="43.6088" lon="6.94296">
        <ele>77.2000122</ele>
        <time>2017-07-05T16:26:13Z</time>
      </trkpt>
      <trkpt lat="43.6086" lon="6.94291">
        <ele>76.2000122</ele>
        <time>2017-07-05T16:26:16Z</time>
      </trkpt>
      <trkpt lat="43.60854" lon="6.94291">
        <ele>75.5999756</ele>
        <time>2017-07-05T16:26:17Z</time>
      </trkpt>
      <trkpt lat="43.60842" lon="6.94289">
        <ele>75</ele>
        <time>2017-07-05T16:26:21Z</time>
      </trkpt>
      <trkpt lat="43.60834" lon="6.94284">
        <ele>73.5999756</ele>
        <time>2017-07-05T16:26:25Z</time>
      </trkpt>
      <trkpt lat="43.60832" lon="6.94281">
        <ele>73.2000122</ele>
        <time>2017-07-05T16:26:26Z</time>
      </trkpt>
      <trkpt lat="43.60822" lon="6.94273">
        <ele>72.4000244</ele>
        <time>2017-07-05T16:26:29Z</time>
      </trkpt>
      <trkpt lat="43.60816" lon="6.94269">
        <ele>71.7999878</ele>
        <time>2017-07-05T16:26:31Z</time>
      </trkpt>
      <trkpt lat="43.6081" lon="6.94258">
        <ele>71.2000122</ele>
        <time>2017-07-05T16:26:34Z</time>
      </trkpt>
      <trkpt lat="43.60808" lon="6.94251">
        <ele>70.4000244</ele>
        <time>2017-07-05T16:26:36Z</time>
      </trkpt>
      <trkpt lat="43.60807" lon="6.94245">
        <ele>69.7999878</ele>
        <time>2017-07-05T16:26:38Z</time>
      </trkpt>
      <trkpt lat="43.60804" lon="6.94239">
        <ele>69</ele>
        <time>2017-07-05T16:26:41Z</time>
      </trkpt>
      <trkpt lat="43.60802" lon="6.94236">
        <ele>68.7999878</ele>
        <time>2017-07-05T16:26:43Z</time>
      </trkpt>
      <trkpt lat="43.60801" lon="6.94235">
        <ele>68.5999756</ele>
        <time>2017-07-05T16:26:46Z</time>
      </trkpt>
      <trkpt lat="43.608" lon="6.94232">
        <ele>67.5999756</ele>
        <time>2017-07-05T16:26:49Z</time>
      </trkpt>
      <trkpt lat="43.60797" lon="6.94231">
        <ele>67</ele>
        <time>2017-07-05T16:26:52Z</time>
      </trkpt>
      <trkpt lat="43.60798" lon="6.94232">
        <ele>66.4000244</ele>
        <time>2017-07-05T16:26:55Z</time>
      </trkpt>
      <trkpt lat="43.60798" lon="6.94232">
        <ele>66.4000244</ele>
        <time>2017-07-05T16:26:56Z</time>
      </trkpt>
      <trkpt lat="43.60798" lon="6.94232">
        <ele>67</ele>
        <time>2017-07-05T16:27:01Z</time>
      </trkpt>
      <trkpt lat="43.60792" lon="6.94235">
        <ele>67.4000244</ele>
        <time>2017-07-05T16:27:06Z</time>
      </trkpt>
      <trkpt lat="43.6079" lon="6.94235">
        <ele>67.5999756</ele>
        <time>2017-07-05T16:27:07Z</time>
      </trkpt>
      <trkpt lat="43.60781" lon="6.94242">
        <ele>68.7999878</ele>
        <time>2017-07-05T16:27:12Z</time>
      </trkpt>
      <trkpt lat="43.60779" lon="6.94244">
        <ele>69.2000122</ele>
        <time>2017-07-05T16:27:13Z</time>
      </trkpt>
      <trkpt lat="43.60767" lon="6.94259">
        <ele>69.2000122</ele>
        <time>2017-07-05T16:27:21Z</time>
      </trkpt>
      <trkpt lat="43.60756" lon="6.94274">
        <ele>68</ele>
        <time>2017-07-05T16:27:27Z</time>
      </trkpt>
      <trkpt lat="43.60755" lon="6.94276">
        <ele>67.5999756</ele>
        <time>2017-07-05T16:27:28Z</time>
      </trkpt>
      <trkpt lat="43.60744" lon="6.94288">
        <ele>67</ele>
        <time>2017-07-05T16:27:33Z</time>
      </trkpt>
      <trkpt lat="43.60734" lon="6.94296">
        <ele>67.4000244</ele>
        <time>2017-07-05T16:27:38Z</time>
      </trkpt>
      <trkpt lat="43.60722" lon="6.94305">
        <ele>67.5999756</ele>
        <time>2017-07-05T16:27:44Z</time>
      </trkpt>
      <trkpt lat="43.60708" lon="6.94311">
        <ele>68.5999756</ele>
        <time>2017-07-05T16:27:51Z</time>
      </trkpt>
      <trkpt lat="43.60698" lon="6.94318">
        <ele>69.5999756</ele>
        <time>2017-07-05T16:27:56Z</time>
      </trkpt>
      <trkpt lat="43.60696" lon="6.94319">
        <ele>70</ele>
        <time>2017-07-05T16:27:57Z</time>
      </trkpt>
      <trkpt lat="43.60692" lon="6.94321">
        <ele>70.7999878</ele>
        <time>2017-07-05T16:27:59Z</time>
      </trkpt>
      <trkpt lat="43.60681" lon="6.94322">
        <ele>72</ele>
        <time>2017-07-05T16:28:04Z</time>
      </trkpt>
      <trkpt lat="43.60671" lon="6.94326">
        <ele>72.7999878</ele>
        <time>2017-07-05T16:28:08Z</time>
      </trkpt>
      <trkpt lat="43.60665" lon="6.9433">
        <ele>73.2000122</ele>
        <time>2017-07-05T16:28:11Z</time>
      </trkpt>
      <trkpt lat="43.60661" lon="6.94332">
        <ele>73.5999756</ele>
        <time>2017-07-05T16:28:13Z</time>
      </trkpt>
      <trkpt lat="43.60653" lon="6.94338">
        <ele>74.4000244</ele>
        <time>2017-07-05T16:28:18Z</time>
      </trkpt>
      <trkpt lat="43.60651" lon="6.94338">
        <ele>75</ele>
        <time>2017-07-05T16:28:19Z</time>
      </trkpt>
      <trkpt lat="43.60647" lon="6.9434">
        <ele>75.5999756</ele>
        <time>2017-07-05T16:28:21Z</time>
      </trkpt>
      <trkpt lat="43.6064" lon="6.94344">
        <ele>77</ele>
        <time>2017-07-05T16:28:24Z</time>
      </trkpt>
      <trkpt lat="43.60638" lon="6.94344">
        <ele>77.5999756</ele>
        <time>2017-07-05T16:28:25Z</time>
      </trkpt>
      <trkpt lat="43.60636" lon="6.94345">
        <ele>78</ele>
        <time>2017-07-05T16:28:26Z</time>
      </trkpt>
      <trkpt lat="43.60629" lon="6.94347">
        <ele>79.4000244</ele>
        <time>2017-07-05T16:28:29Z</time>
      </trkpt>
      <trkpt lat="43.60624" lon="6.94347">
        <ele>80.4000244</ele>
        <time>2017-07-05T16:28:32Z</time>
      </trkpt>
      <trkpt lat="43.60622" lon="6.94348">
        <ele>80.7999878</ele>
        <time>2017-07-05T16:28:33Z</time>
      </trkpt>
      <trkpt lat="43.60616" lon="6.94349">
        <ele>81.5999756</ele>
        <time>2017-07-05T16:28:36Z</time>
      </trkpt>
      <trkpt lat="43.60612" lon="6.94351">
        <ele>82.5999756</ele>
        <time>2017-07-05T16:28:39Z</time>
      </trkpt>
      <trkpt lat="43.6061" lon="6.94351">
        <ele>83.7999878</ele>
        <time>2017-07-05T16:28:42Z</time>
      </trkpt>
      <trkpt lat="43.60609" lon="6.9435">
        <ele>84.7999878</ele>
        <time>2017-07-05T16:28:45Z</time>
      </trkpt>
      <trkpt lat="43.60608" lon="6.94349">
        <ele>86.4000244</ele>
        <time>2017-07-05T16:28:47Z</time>
      </trkpt>
      <trkpt lat="43.60607" lon="6.94348">
        <ele>88</ele>
        <time>2017-07-05T16:28:48Z</time>
      </trkpt>
      <trkpt lat="43.60606" lon="6.94348">
        <ele>89.2000122</ele>
        <time>2017-07-05T16:28:49Z</time>
      </trkpt>
      <trkpt lat="43.60606" lon="6.94348">
        <ele>90.2000122</ele>
        <time>2017-07-05T16:28:50Z</time>
      </trkpt>
      <trkpt lat="43.60606" lon="6.94348">
        <ele>90.7999878</ele>
        <time>2017-07-05T16:28:51Z</time>
      </trkpt>
      <trkpt lat="43.60606" lon="6.94347">
        <ele>92.2000122</ele>
        <time>2017-07-05T16:28:54Z</time>
      </trkpt>
      <trkpt lat="43.60607" lon="6.94346">
        <ele>93.4000244</ele>
        <time>2017-07-05T16:28:56Z</time>
      </trkpt>
      <trkpt lat="43.60601" lon="6.94347">
        <ele>93.2000122</ele>
        <time>2017-07-05T16:29:04Z</time>
      </trkpt>
      <trkpt lat="43.60597" lon="6.94341">
        <ele>93.4000244</ele>
        <time>2017-07-05T16:29:13Z</time>
      </trkpt>
      <trkpt lat="43.60592" lon="6.94333">
        <ele>94.5999756</ele>
        <time>2017-07-05T16:29:18Z</time>
      </trkpt>
      <trkpt lat="43.6059" lon="6.9433">
        <ele>95.5999756</ele>
        <time>2017-07-05T16:29:21Z</time>
      </trkpt>
      <trkpt lat="43.6059" lon="6.9433">
        <ele>95.5999756</ele>
        <time>2017-07-05T16:29:22Z</time>
      </trkpt>
      <trkpt lat="43.60589" lon="6.94328">
        <ele>96.5999756</ele>
        <time>2017-07-05T16:29:32Z</time>
      </trkpt>
      <trkpt lat="43.60586" lon="6.94327">
        <ele>96.7999878</ele>
        <time>2017-07-05T16:29:34Z</time>
      </trkpt>
      <trkpt lat="43.60578" lon="6.94325">
        <ele>97.5999756</ele>
        <time>2017-07-05T16:29:42Z</time>
      </trkpt>
      <trkpt lat="43.60576" lon="6.94325">
        <ele>98</ele>
        <time>2017-07-05T16:29:48Z</time>
      </trkpt>
      <trkpt lat="43.60573" lon="6.94323">
        <ele>99</ele>
        <time>2017-07-05T16:29:50Z</time>
      </trkpt>
      <trkpt lat="43.60571" lon="6.94322">
        <ele>100.2000122</ele>
        <time>2017-07-05T16:29:55Z</time>
      </trkpt>
      <trkpt lat="43.60567" lon="6.9432">
        <ele>101.5999756</ele>
        <time>2017-07-05T16:29:57Z</time>
      </trkpt>
      <trkpt lat="43.60567" lon="6.9432">
        <ele>101.5999756</ele>
        <time>2017-07-05T16:29:59Z</time>
      </trkpt>
      <trkpt lat="43.60566" lon="6.94317">
        <ele>103.4000244</ele>
        <time>2017-07-05T16:30:04Z</time>
      </trkpt>
      <trkpt lat="43.60562" lon="6.94315">
        <ele>104.5999756</ele>
        <time>2017-07-05T16:30:08Z</time>
      </trkpt>
      <trkpt lat="43.60557" lon="6.94317">
        <ele>105.2000122</ele>
        <time>2017-07-05T16:30:14Z</time>
      </trkpt>
      <trkpt lat="43.60554" lon="6.94319">
        <ele>105.7999878</ele>
        <time>2017-07-05T16:30:16Z</time>
      </trkpt>
      <trkpt lat="43.60551" lon="6.94319">
        <ele>107.4000244</ele>
        <time>2017-07-05T16:30:18Z</time>
      </trkpt>
      <trkpt lat="43.60547" lon="6.94321">
        <ele>108.2000122</ele>
        <time>2017-07-05T16:30:20Z</time>
      </trkpt>
      <trkpt lat="43.60546" lon="6.94321">
        <ele>108.7999878</ele>
        <time>2017-07-05T16:30:21Z</time>
      </trkpt>
      <trkpt lat="43.60544" lon="6.94322">
        <ele>109.7999878</ele>
        <time>2017-07-05T16:30:23Z</time>
      </trkpt>
      <trkpt lat="43.60541" lon="6.94321">
        <ele>111</ele>
        <time>2017-07-05T16:30:25Z</time>
      </trkpt>
      <trkpt lat="43.6054" lon="6.94321">
        <ele>111.7999878</ele>
        <time>2017-07-05T16:30:26Z</time>
      </trkpt>
      <trkpt lat="43.60538" lon="6.94322">
        <ele>112.2000122</ele>
        <time>2017-07-05T16:30:27Z</time>
      </trkpt>
      <trkpt lat="43.60536" lon="6.94322">
        <ele>113.4000244</ele>
        <time>2017-07-05T16:30:30Z</time>
      </trkpt>
      <trkpt lat="43.60532" lon="6.94322">
        <ele>114</ele>
        <time>2017-07-05T16:30:33Z</time>
      </trkpt>
      <trkpt lat="43.6053" lon="6.94322">
        <ele>114.5999756</ele>
        <time>2017-07-05T16:30:35Z</time>
      </trkpt>
      <trkpt lat="43.60527" lon="6.94322">
        <ele>115.7999878</ele>
        <time>2017-07-05T16:30:38Z</time>
      </trkpt>
      <trkpt lat="43.60526" lon="6.94322">
        <ele>116.4000244</ele>
        <time>2017-07-05T16:30:41Z</time>
      </trkpt>
      <trkpt lat="43.60524" lon="6.94323">
        <ele>117</ele>
        <time>2017-07-05T16:30:44Z</time>
      </trkpt>
      <trkpt lat="43.60523" lon="6.94324">
        <ele>118.4000244</ele>
        <time>2017-07-05T16:30:48Z</time>
      </trkpt>
      <trkpt lat="43.60519" lon="6.94324">
        <ele>119.7999878</ele>
        <time>2017-07-05T16:30:51Z</time>
      </trkpt>
      <trkpt lat="43.60517" lon="6.94325">
        <ele>121</ele>
        <time>2017-07-05T16:30:53Z</time>
      </trkpt>
      <trkpt lat="43.60516" lon="6.94325">
        <ele>121.7999878</ele>
        <time>2017-07-05T16:30:54Z</time>
      </trkpt>
      <trkpt lat="43.60515" lon="6.94325">
        <ele>122.2000122</ele>
        <time>2017-07-05T16:30:55Z</time>
      </trkpt>
      <trkpt lat="43.60515" lon="6.94326">
        <ele>123</ele>
        <time>2017-07-05T16:31:00Z</time>
      </trkpt>
      <trkpt lat="43.60514" lon="6.94326">
        <ele>123.7999878</ele>
        <time>2017-07-05T16:31:09Z</time>
      </trkpt>
      <trkpt lat="43.60513" lon="6.94325">
        <ele>124.5999756</ele>
        <time>2017-07-05T16:31:10Z</time>
      </trkpt>
      <trkpt lat="43.60512" lon="6.94324">
        <ele>125.2000122</ele>
        <time>2017-07-05T16:31:11Z</time>
      </trkpt>
      <trkpt lat="43.60511" lon="6.94324">
        <ele>126.7999878</ele>
        <time>2017-07-05T16:31:13Z</time>
      </trkpt>
      <trkpt lat="43.6051" lon="6.94324">
        <ele>127.7999878</ele>
        <time>2017-07-05T16:31:14Z</time>
      </trkpt>
      <trkpt lat="43.60506" lon="6.94324">
        <ele>129.2000122</ele>
        <time>2017-07-05T16:31:16Z</time>
      </trkpt>
      <trkpt lat="43.60505" lon="6.94324">
        <ele>129.5999756</ele>
        <time>2017-07-05T16:31:17Z</time>
      </trkpt>
      <trkpt lat="43.60504" lon="6.94324">
        <ele>130.2000122</ele>
        <time>2017-07-05T16:31:18Z</time>
      </trkpt>
      <trkpt lat="43.60501" lon="6.94324">
        <ele>130.7999878</ele>
        <time>2017-07-05T16:31:19Z</time>
      </trkpt>
      <trkpt lat="43.60499" lon="6.94324">
        <ele>131.4000244</ele>
        <time>2017-07-05T16:31:20Z</time>
      </trkpt>
      <trkpt lat="43.60496" lon="6.94324">
        <ele>132.4000244</ele>
        <time>2017-07-05T16:31:22Z</time>
      </trkpt>
      <trkpt lat="43.60495" lon="6.94324">
        <ele>133</ele>
        <time>2017-07-05T16:31:23Z</time>
      </trkpt>
      <trkpt lat="43.60494" lon="6.94324">
        <ele>133.7999878</ele>
        <time>2017-07-05T16:31:25Z</time>
      </trkpt>
      <trkpt lat="43.60493" lon="6.94325">
        <ele>134.5999756</ele>
        <time>2017-07-05T16:31:29Z</time>
      </trkpt>
      <trkpt lat="43.60493" lon="6.94325">
        <ele>135</ele>
        <time>2017-07-05T16:31:30Z</time>
      </trkpt>
      <trkpt lat="43.60491" lon="6.94323">
        <ele>136.4000244</ele>
        <time>2017-07-05T16:31:35Z</time>
      </trkpt>
      <trkpt lat="43.6049" lon="6.94323">
        <ele>136.7999878</ele>
        <time>2017-07-05T16:31:36Z</time>
      </trkpt>
      <trkpt lat="43.60489" lon="6.94323">
        <ele>137.4000244</ele>
        <time>2017-07-05T16:31:38Z</time>
      </trkpt>
      <trkpt lat="43.60488" lon="6.94323">
        <ele>137.5999756</ele>
        <time>2017-07-05T16:31:44Z</time>
      </trkpt>
      <trkpt lat="43.60481" lon="6.94326">
        <ele>138.4000244</ele>
        <time>2017-07-05T16:31:49Z</time>
      </trkpt>
      <trkpt lat="43.60479" lon="6.94327">
        <ele>138</ele>
        <time>2017-07-05T16:31:52Z</time>
      </trkpt>
      <trkpt lat="43.60478" lon="6.94327">
        <ele>137.4000244</ele>
        <time>2017-07-05T16:31:54Z</time>
      </trkpt>
      <trkpt lat="43.60472" lon="6.94328">
        <ele>136.4000244</ele>
        <time>2017-07-05T16:32:01Z</time>
      </trkpt>
      <trkpt lat="43.60462" lon="6.94328">
        <ele>138</ele>
        <time>2017-07-05T16:32:09Z</time>
      </trkpt>
      <trkpt lat="43.6046" lon="6.94328">
        <ele>138.5999756</ele>
        <time>2017-07-05T16:32:10Z</time>
      </trkpt>
      <trkpt lat="43.60456" lon="6.94329">
        <ele>139.5999756</ele>
        <time>2017-07-05T16:32:14Z</time>
      </trkpt>
      <trkpt lat="43.60451" lon="6.94329">
        <ele>140.5999756</ele>
        <time>2017-07-05T16:32:18Z</time>
      </trkpt>
      <trkpt lat="43.60451" lon="6.94331">
        <ele>141.5999756</ele>
        <time>2017-07-05T16:32:21Z</time>
      </trkpt>
      <trkpt lat="43.60451" lon="6.94331">
        <ele>141.5999756</ele>
        <time>2017-07-05T16:32:25Z</time>
      </trkpt>
      <trkpt lat="43.60444" lon="6.94335">
        <ele>142.7999878</ele>
        <time>2017-07-05T16:32:30Z</time>
      </trkpt>
      <trkpt lat="43.6043" lon="6.94335">
        <ele>142.5999756</ele>
        <time>2017-07-05T16:32:38Z</time>
      </trkpt>
      <trkpt lat="43.60429" lon="6.94335">
        <ele>142.5999756</ele>
        <time>2017-07-05T16:32:49Z</time>
      </trkpt>
      <trkpt lat="43.60426" lon="6.94333">
        <ele>143.2000122</ele>
        <time>2017-07-05T16:32:59Z</time>
      </trkpt>
      <trkpt lat="43.60421" lon="6.94326">
        <ele>141.5999756</ele>
        <time>2017-07-05T16:33:05Z</time>
      </trkpt>
      <trkpt lat="43.60418" lon="6.94323">
        <ele>140.7999878</ele>
        <time>2017-07-05T16:33:09Z</time>
      </trkpt>
      <trkpt lat="43.60418" lon="6.94323">
        <ele>140.4000244</ele>
        <time>2017-07-05T16:33:10Z</time>
      </trkpt>
      <trkpt lat="43.60414" lon="6.94317">
        <ele>138.7999878</ele>
        <time>2017-07-05T16:33:14Z</time>
      </trkpt>
      <trkpt lat="43.60412" lon="6.94314">
        <ele>138.4000244</ele>
        <time>2017-07-05T16:33:16Z</time>
      </trkpt>
      <trkpt lat="43.60409" lon="6.94311">
        <ele>137.7999878</ele>
        <time>2017-07-05T16:33:20Z</time>
      </trkpt>
      <trkpt lat="43.60405" lon="6.94309">
        <ele>138</ele>
        <time>2017-07-05T16:33:25Z</time>
      </trkpt>
      <trkpt lat="43.60401" lon="6.94308">
        <ele>137.7999878</ele>
        <time>2017-07-05T16:33:33Z</time>
      </trkpt>
      <trkpt lat="43.60393" lon="6.94303">
        <ele>138</ele>
        <time>2017-07-05T16:33:38Z</time>
      </trkpt>
      <trkpt lat="43.60385" lon="6.94295">
        <ele>137.4000244</ele>
        <time>2017-07-05T16:33:44Z</time>
      </trkpt>
      <trkpt lat="43.60375" lon="6.94292">
        <ele>137.7999878</ele>
        <time>2017-07-05T16:33:48Z</time>
      </trkpt>
      <trkpt lat="43.60359" lon="6.94292">
        <ele>136.5999756</ele>
        <time>2017-07-05T16:33:52Z</time>
      </trkpt>
      <trkpt lat="43.60349" lon="6.94295">
        <ele>136</ele>
        <time>2017-07-05T16:33:55Z</time>
      </trkpt>
      <trkpt lat="43.60343" lon="6.94302">
        <ele>135.5999756</ele>
        <time>2017-07-05T16:33:57Z</time>
      </trkpt>
      <trkpt lat="43.60338" lon="6.9431">
        <ele>134.7999878</ele>
        <time>2017-07-05T16:33:59Z</time>
      </trkpt>
      <trkpt lat="43.60335" lon="6.94314">
        <ele>134.5999756</ele>
        <time>2017-07-05T16:34:00Z</time>
      </trkpt>
      <trkpt lat="43.60332" lon="6.94318">
        <ele>134.2000122</ele>
        <time>2017-07-05T16:34:01Z</time>
      </trkpt>
      <trkpt lat="43.60319" lon="6.94339">
        <ele>133.5999756</ele>
        <time>2017-07-05T16:34:07Z</time>
      </trkpt>
      <trkpt lat="43.603" lon="6.94359">
        <ele>133.4000244</ele>
        <time>2017-07-05T16:34:15Z</time>
      </trkpt>
      <trkpt lat="43.60289" lon="6.94376">
        <ele>134.4000244</ele>
        <time>2017-07-05T16:34:21Z</time>
      </trkpt>
      <trkpt lat="43.60283" lon="6.94382">
        <ele>135.2000122</ele>
        <time>2017-07-05T16:34:24Z</time>
      </trkpt>
      <trkpt lat="43.60278" lon="6.94388">
        <ele>135.4000244</ele>
        <time>2017-07-05T16:34:27Z</time>
      </trkpt>
      <trkpt lat="43.60269" lon="6.94396">
        <ele>136.5999756</ele>
        <time>2017-07-05T16:34:31Z</time>
      </trkpt>
      <trkpt lat="43.60264" lon="6.94401">
        <ele>137.2000122</ele>
        <time>2017-07-05T16:34:34Z</time>
      </trkpt>
      <trkpt lat="43.60254" lon="6.94412">
        <ele>137.7999878</ele>
        <time>2017-07-05T16:34:39Z</time>
      </trkpt>
      <trkpt lat="43.60249" lon="6.94416">
        <ele>138.5999756</ele>
        <time>2017-07-05T16:34:41Z</time>
      </trkpt>
      <trkpt lat="43.60247" lon="6.94418">
        <ele>139</ele>
        <time>2017-07-05T16:34:42Z</time>
      </trkpt>
      <trkpt lat="43.60239" lon="6.94424">
        <ele>140.2000122</ele>
        <time>2017-07-05T16:34:46Z</time>
      </trkpt>
      <trkpt lat="43.60234" lon="6.94427">
        <ele>140.5999756</ele>
        <time>2017-07-05T16:34:48Z</time>
      </trkpt>
      <trkpt lat="43.60227" lon="6.94435">
        <ele>141.4000244</ele>
        <time>2017-07-05T16:34:52Z</time>
      </trkpt>
      <trkpt lat="43.60222" lon="6.94439">
        <ele>142</ele>
        <time>2017-07-05T16:34:55Z</time>
      </trkpt>
      <trkpt lat="43.6022" lon="6.94441">
        <ele>142.5999756</ele>
        <time>2017-07-05T16:34:57Z</time>
      </trkpt>
      <trkpt lat="43.60215" lon="6.94447">
        <ele>143.5999756</ele>
        <time>2017-07-05T16:35:01Z</time>
      </trkpt>
      <trkpt lat="43.60214" lon="6.94448">
        <ele>143.7999878</ele>
        <time>2017-07-05T16:35:02Z</time>
      </trkpt>
      <trkpt lat="43.60206" lon="6.94457">
        <ele>144.4000244</ele>
        <time>2017-07-05T16:35:09Z</time>
      </trkpt>
      <trkpt lat="43.602" lon="6.94467">
        <ele>145.2000122</ele>
        <time>2017-07-05T16:35:14Z</time>
      </trkpt>
      <trkpt lat="43.60197" lon="6.94469">
        <ele>146.4000244</ele>
        <time>2017-07-05T16:35:16Z</time>
      </trkpt>
      <trkpt lat="43.60194" lon="6.94472">
        <ele>147.4000244</ele>
        <time>2017-07-05T16:35:18Z</time>
      </trkpt>
      <trkpt lat="43.60188" lon="6.94479">
        <ele>148.5999756</ele>
        <time>2017-07-05T16:35:22Z</time>
      </trkpt>
      <trkpt lat="43.60186" lon="6.9448">
        <ele>148.7999878</ele>
        <time>2017-07-05T16:35:23Z</time>
      </trkpt>
      <trkpt lat="43.60177" lon="6.9449">
        <ele>147.4000244</ele>
        <time>2017-07-05T16:35:29Z</time>
      </trkpt>
      <trkpt lat="43.60176" lon="6.94492">
        <ele>147.4000244</ele>
        <time>2017-07-05T16:35:30Z</time>
      </trkpt>
      <trkpt lat="43.60169" lon="6.94502">
        <ele>146.4000244</ele>
        <time>2017-07-05T16:35:35Z</time>
      </trkpt>
      <trkpt lat="43.60167" lon="6.94505">
        <ele>145.7999878</ele>
        <time>2017-07-05T16:35:37Z</time>
      </trkpt>
      <trkpt lat="43.60159" lon="6.94519">
        <ele>146.2000122</ele>
        <time>2017-07-05T16:35:44Z</time>
      </trkpt>
      <trkpt lat="43.6015" lon="6.9453">
        <ele>145.5999756</ele>
        <time>2017-07-05T16:35:52Z</time>
      </trkpt>
      <trkpt lat="43.60142" lon="6.94542">
        <ele>145.5999756</ele>
        <time>2017-07-05T16:35:59Z</time>
      </trkpt>
      <trkpt lat="43.60129" lon="6.9456">
        <ele>146.2000122</ele>
        <time>2017-07-05T16:36:05Z</time>
      </trkpt>
      <trkpt lat="43.60109" lon="6.94584">
        <ele>146.2000122</ele>
        <time>2017-07-05T16:36:11Z</time>
      </trkpt>
      <trkpt lat="43.60092" lon="6.94609">
        <ele>146.4000244</ele>
        <time>2017-07-05T16:36:17Z</time>
      </trkpt>
      <trkpt lat="43.60086" lon="6.94619">
        <ele>146</ele>
        <time>2017-07-05T16:36:19Z</time>
      </trkpt>
      <trkpt lat="43.60076" lon="6.9463">
        <ele>145.5999756</ele>
        <time>2017-07-05T16:36:22Z</time>
      </trkpt>
      <trkpt lat="43.60069" lon="6.94638">
        <ele>145.5999756</ele>
        <time>2017-07-05T16:36:24Z</time>
      </trkpt>
      <trkpt lat="43.60066" lon="6.94642">
        <ele>145.4000244</ele>
        <time>2017-07-05T16:36:25Z</time>
      </trkpt>
      <trkpt lat="43.60051" lon="6.94668">
        <ele>145.5999756</ele>
        <time>2017-07-05T16:36:31Z</time>
      </trkpt>
      <trkpt lat="43.60037" lon="6.94688">
        <ele>145.7999878</ele>
        <time>2017-07-05T16:36:36Z</time>
      </trkpt>
      <trkpt lat="43.60026" lon="6.94722">
        <ele>145.4000244</ele>
        <time>2017-07-05T16:36:43Z</time>
      </trkpt>
      <trkpt lat="43.60025" lon="6.94726">
        <ele>145.2000122</ele>
        <time>2017-07-05T16:36:44Z</time>
      </trkpt>
      <trkpt lat="43.60016" lon="6.94748">
        <ele>145</ele>
        <time>2017-07-05T16:36:49Z</time>
      </trkpt>
      <trkpt lat="43.60008" lon="6.94771">
        <ele>144.7999878</ele>
        <time>2017-07-05T16:36:55Z</time>
      </trkpt>
      <trkpt lat="43.6001" lon="6.94783">
        <ele>144.7999878</ele>
        <time>2017-07-05T16:36:57Z</time>
      </trkpt>
      <trkpt lat="43.60014" lon="6.94796">
        <ele>144.7999878</ele>
        <time>2017-07-05T16:36:59Z</time>
      </trkpt>
      <trkpt lat="43.6002" lon="6.94813">
        <ele>144</ele>
        <time>2017-07-05T16:37:02Z</time>
      </trkpt>
      <trkpt lat="43.60022" lon="6.94828">
        <ele>144</ele>
        <time>2017-07-05T16:37:05Z</time>
      </trkpt>
      <trkpt lat="43.60019" lon="6.94854">
        <ele>143.5999756</ele>
        <time>2017-07-05T16:37:10Z</time>
      </trkpt>
      <trkpt lat="43.60018" lon="6.9486">
        <ele>143.4000244</ele>
        <time>2017-07-05T16:37:11Z</time>
      </trkpt>
      <trkpt lat="43.60018" lon="6.94871">
        <ele>142.7999878</ele>
        <time>2017-07-05T16:37:13Z</time>
      </trkpt>
      <trkpt lat="43.6002" lon="6.94876">
        <ele>142.7999878</ele>
        <time>2017-07-05T16:37:14Z</time>
      </trkpt>
      <trkpt lat="43.60023" lon="6.9488">
        <ele>142.7999878</ele>
        <time>2017-07-05T16:37:15Z</time>
      </trkpt>
      <trkpt lat="43.60034" lon="6.94898">
        <ele>143</ele>
        <time>2017-07-05T16:37:19Z</time>
      </trkpt>
      <trkpt lat="43.60042" lon="6.94912">
        <ele>143</ele>
        <time>2017-07-05T16:37:22Z</time>
      </trkpt>
      <trkpt lat="43.60045" lon="6.94916">
        <ele>143</ele>
        <time>2017-07-05T16:37:23Z</time>
      </trkpt>
      <trkpt lat="43.60059" lon="6.94937">
        <ele>143</ele>
        <time>2017-07-05T16:37:28Z</time>
      </trkpt>
      <trkpt lat="43.6008" lon="6.94967">
        <ele>142.2000122</ele>
        <time>2017-07-05T16:37:35Z</time>
      </trkpt>
      <trkpt lat="43.60088" lon="6.94979">
        <ele>142.4000244</ele>
        <time>2017-07-05T16:37:38Z</time>
      </trkpt>
      <trkpt lat="43.60099" lon="6.94996">
        <ele>142.7999878</ele>
        <time>2017-07-05T16:37:42Z</time>
      </trkpt>
      <trkpt lat="43.60121" lon="6.95026">
        <ele>142.7999878</ele>
        <time>2017-07-05T16:37:50Z</time>
      </trkpt>
      <trkpt lat="43.6013" lon="6.95049">
        <ele>142.7999878</ele>
        <time>2017-07-05T16:37:55Z</time>
      </trkpt>
      <trkpt lat="43.60137" lon="6.95056">
        <ele>142.7999878</ele>
        <time>2017-07-05T16:37:57Z</time>
      </trkpt>
      <trkpt lat="43.60144" lon="6.95063">
        <ele>142.4000244</ele>
        <time>2017-07-05T16:37:59Z</time>
      </trkpt>
      <trkpt lat="43.60162" lon="6.95092">
        <ele>142.5999756</ele>
        <time>2017-07-05T16:38:05Z</time>
      </trkpt>
      <trkpt lat="43.60164" lon="6.95098">
        <ele>142.7999878</ele>
        <time>2017-07-05T16:38:06Z</time>
      </trkpt>
      <trkpt lat="43.60178" lon="6.95123">
        <ele>141.7999878</ele>
        <time>2017-07-05T16:38:11Z</time>
      </trkpt>
      <trkpt lat="43.60181" lon="6.95129">
        <ele>141.5999756</ele>
        <time>2017-07-05T16:38:12Z</time>
      </trkpt>
      <trkpt lat="43.602" lon="6.95166">
        <ele>141</ele>
        <time>2017-07-05T16:38:19Z</time>
      </trkpt>
      <trkpt lat="43.60205" lon="6.95176">
        <ele>140.5999756</ele>
        <time>2017-07-05T16:38:21Z</time>
      </trkpt>
      <trkpt lat="43.60223" lon="6.95208">
        <ele>140</ele>
        <time>2017-07-05T16:38:27Z</time>
      </trkpt>
      <trkpt lat="43.60231" lon="6.95224">
        <ele>139.4000244</ele>
        <time>2017-07-05T16:38:30Z</time>
      </trkpt>
      <trkpt lat="43.60242" lon="6.95232">
        <ele>139.2000122</ele>
        <time>2017-07-05T16:38:33Z</time>
      </trkpt>
      <trkpt lat="43.60254" lon="6.95252">
        <ele>139</ele>
        <time>2017-07-05T16:38:37Z</time>
      </trkpt>
      <trkpt lat="43.60276" lon="6.95291">
        <ele>138.7999878</ele>
        <time>2017-07-05T16:38:44Z</time>
      </trkpt>
      <trkpt lat="43.60292" lon="6.95314">
        <ele>138.5999756</ele>
        <time>2017-07-05T16:38:49Z</time>
      </trkpt>
      <trkpt lat="43.60297" lon="6.95318">
        <ele>138.5999756</ele>
        <time>2017-07-05T16:38:50Z</time>
      </trkpt>
      <trkpt lat="43.60305" lon="6.95325">
        <ele>138.4000244</ele>
        <time>2017-07-05T16:38:52Z</time>
      </trkpt>
      <trkpt lat="43.60322" lon="6.95341">
        <ele>138</ele>
        <time>2017-07-05T16:38:56Z</time>
      </trkpt>
      <trkpt lat="43.60354" lon="6.95367">
        <ele>138.2000122</ele>
        <time>2017-07-05T16:39:03Z</time>
      </trkpt>
      <trkpt lat="43.60381" lon="6.95391">
        <ele>137.4000244</ele>
        <time>2017-07-05T16:39:09Z</time>
      </trkpt>
      <trkpt lat="43.60403" lon="6.9541">
        <ele>138</ele>
        <time>2017-07-05T16:39:14Z</time>
      </trkpt>
      <trkpt lat="43.60412" lon="6.95418">
        <ele>137.4000244</ele>
        <time>2017-07-05T16:39:16Z</time>
      </trkpt>
      <trkpt lat="43.60445" lon="6.95445">
        <ele>138</ele>
        <time>2017-07-05T16:39:23Z</time>
      </trkpt>
      <trkpt lat="43.60476" lon="6.95476">
        <ele>137.5999756</ele>
        <time>2017-07-05T16:39:30Z</time>
      </trkpt>
      <trkpt lat="43.60502" lon="6.95499">
        <ele>138.4000244</ele>
        <time>2017-07-05T16:39:36Z</time>
      </trkpt>
      <trkpt lat="43.60506" lon="6.95503">
        <ele>138.4000244</ele>
        <time>2017-07-05T16:39:37Z</time>
      </trkpt>
      <trkpt lat="43.60535" lon="6.95529">
        <ele>139.2000122</ele>
        <time>2017-07-05T16:39:44Z</time>
      </trkpt>
      <trkpt lat="43.60539" lon="6.95532">
        <ele>139.4000244</ele>
        <time>2017-07-05T16:39:45Z</time>
      </trkpt>
      <trkpt lat="43.60542" lon="6.95535">
        <ele>139.5999756</ele>
        <time>2017-07-05T16:39:46Z</time>
      </trkpt>
      <trkpt lat="43.60563" lon="6.9555">
        <ele>140.5999756</ele>
        <time>2017-07-05T16:39:52Z</time>
      </trkpt>
      <trkpt lat="43.60567" lon="6.95552">
        <ele>141</ele>
        <time>2017-07-05T16:39:53Z</time>
      </trkpt>
      <trkpt lat="43.60581" lon="6.95559">
        <ele>142.2000122</ele>
        <time>2017-07-05T16:39:57Z</time>
      </trkpt>
      <trkpt lat="43.60586" lon="6.95561">
        <ele>142.5999756</ele>
        <time>2017-07-05T16:39:58Z</time>
      </trkpt>
      <trkpt lat="43.60622" lon="6.95572">
        <ele>143</ele>
        <time>2017-07-05T16:40:06Z</time>
      </trkpt>
      <trkpt lat="43.60632" lon="6.95574">
        <ele>143.4000244</ele>
        <time>2017-07-05T16:40:08Z</time>
      </trkpt>
      <trkpt lat="43.60656" lon="6.95583">
        <ele>143.5999756</ele>
        <time>2017-07-05T16:40:14Z</time>
      </trkpt>
      <trkpt lat="43.60668" lon="6.95588">
        <ele>144</ele>
        <time>2017-07-05T16:40:17Z</time>
      </trkpt>
      <trkpt lat="43.60673" lon="6.95598">
        <ele>144.2000122</ele>
        <time>2017-07-05T16:40:19Z</time>
      </trkpt>
      <trkpt lat="43.60689" lon="6.95605">
        <ele>143.5999756</ele>
        <time>2017-07-05T16:40:23Z</time>
      </trkpt>
      <trkpt lat="43.60696" lon="6.95588">
        <ele>144</ele>
        <time>2017-07-05T16:40:26Z</time>
      </trkpt>
      <trkpt lat="43.60703" lon="6.95578">
        <ele>144.4000244</ele>
        <time>2017-07-05T16:40:29Z</time>
      </trkpt>
      <trkpt lat="43.60706" lon="6.95578">
        <ele>144.5999756</ele>
        <time>2017-07-05T16:40:30Z</time>
      </trkpt>
      <trkpt lat="43.60708" lon="6.95579">
        <ele>144.7999878</ele>
        <time>2017-07-05T16:40:31Z</time>
      </trkpt>
      <trkpt lat="43.60725" lon="6.95582">
        <ele>145.4000244</ele>
        <time>2017-07-05T16:40:36Z</time>
      </trkpt>
      <trkpt lat="43.6074" lon="6.95575">
        <ele>146.4000244</ele>
        <time>2017-07-05T16:40:41Z</time>
      </trkpt>
      <trkpt lat="43.60742" lon="6.95573">
        <ele>146.7999878</ele>
        <time>2017-07-05T16:40:42Z</time>
      </trkpt>
      <trkpt lat="43.60752" lon="6.95554">
        <ele>147.5999756</ele>
        <time>2017-07-05T16:40:47Z</time>
      </trkpt>
      <trkpt lat="43.60754" lon="6.9555">
        <ele>147.5999756</ele>
        <time>2017-07-05T16:40:48Z</time>
      </trkpt>
      <trkpt lat="43.60768" lon="6.9554">
        <ele>148.4000244</ele>
        <time>2017-07-05T16:40:53Z</time>
      </trkpt>
      <trkpt lat="43.6077" lon="6.95538">
        <ele>149</ele>
        <time>2017-07-05T16:40:54Z</time>
      </trkpt>
      <trkpt lat="43.6078" lon="6.9553">
        <ele>150.5999756</ele>
        <time>2017-07-05T16:40:57Z</time>
      </trkpt>
      <trkpt lat="43.60785" lon="6.95523">
        <ele>151</ele>
        <time>2017-07-05T16:40:59Z</time>
      </trkpt>
      <trkpt lat="43.60793" lon="6.95511">
        <ele>152</ele>
        <time>2017-07-05T16:41:02Z</time>
      </trkpt>
      <trkpt lat="43.60799" lon="6.95504">
        <ele>153</ele>
        <time>2017-07-05T16:41:04Z</time>
      </trkpt>
      <trkpt lat="43.60806" lon="6.95499">
        <ele>153.2000122</ele>
        <time>2017-07-05T16:41:06Z</time>
      </trkpt>
      <trkpt lat="43.60825" lon="6.95493">
        <ele>153</ele>
        <time>2017-07-05T16:41:10Z</time>
      </trkpt>
      <trkpt lat="43.60829" lon="6.9549">
        <ele>153</ele>
        <time>2017-07-05T16:41:11Z</time>
      </trkpt>
      <trkpt lat="43.60853" lon="6.95469">
        <ele>153.2000122</ele>
        <time>2017-07-05T16:41:17Z</time>
      </trkpt>
      <trkpt lat="43.6087" lon="6.95457">
        <ele>153.4000244</ele>
        <time>2017-07-05T16:41:22Z</time>
      </trkpt>
      <trkpt lat="43.60879" lon="6.9545">
        <ele>154</ele>
        <time>2017-07-05T16:41:25Z</time>
      </trkpt>
      <trkpt lat="43.60889" lon="6.95446">
        <ele>154.4000244</ele>
        <time>2017-07-05T16:41:28Z</time>
      </trkpt>
      <trkpt lat="43.60899" lon="6.95437">
        <ele>155.4000244</ele>
        <time>2017-07-05T16:41:32Z</time>
      </trkpt>
      <trkpt lat="43.60904" lon="6.9543">
        <ele>156.4000244</ele>
        <time>2017-07-05T16:41:35Z</time>
      </trkpt>
      <trkpt lat="43.60905" lon="6.95428">
        <ele>156.5999756</ele>
        <time>2017-07-05T16:41:36Z</time>
      </trkpt>
      <trkpt lat="43.60913" lon="6.95417">
        <ele>157.7999878</ele>
        <time>2017-07-05T16:41:40Z</time>
      </trkpt>
      <trkpt lat="43.60915" lon="6.95415">
        <ele>158.7999878</ele>
        <time>2017-07-05T16:41:41Z</time>
      </trkpt>
      <trkpt lat="43.60917" lon="6.95412">
        <ele>159.2000122</ele>
        <time>2017-07-05T16:41:42Z</time>
      </trkpt>
      <trkpt lat="43.60921" lon="6.95405">
        <ele>160.4000244</ele>
        <time>2017-07-05T16:41:45Z</time>
      </trkpt>
      <trkpt lat="43.60925" lon="6.95397">
        <ele>161.4000244</ele>
        <time>2017-07-05T16:41:48Z</time>
      </trkpt>
      <trkpt lat="43.6093" lon="6.95389">
        <ele>162.5999756</ele>
        <time>2017-07-05T16:41:52Z</time>
      </trkpt>
      <trkpt lat="43.60936" lon="6.95381">
        <ele>163.5999756</ele>
        <time>2017-07-05T16:41:55Z</time>
      </trkpt>
      <trkpt lat="43.60938" lon="6.95379">
        <ele>164.4000244</ele>
        <time>2017-07-05T16:41:56Z</time>
      </trkpt>
      <trkpt lat="43.6094" lon="6.95378">
        <ele>164.5999756</ele>
        <time>2017-07-05T16:41:57Z</time>
      </trkpt>
      <trkpt lat="43.60946" lon="6.95372">
        <ele>165.7999878</ele>
        <time>2017-07-05T16:42:01Z</time>
      </trkpt>
      <trkpt lat="43.60948" lon="6.95368">
        <ele>166.4000244</ele>
        <time>2017-07-05T16:42:03Z</time>
      </trkpt>
      <trkpt lat="43.60951" lon="6.95362">
        <ele>167</ele>
        <time>2017-07-05T16:42:05Z</time>
      </trkpt>
      <trkpt lat="43.60959" lon="6.9535">
        <ele>167</ele>
        <time>2017-07-05T16:42:10Z</time>
      </trkpt>
      <trkpt lat="43.60972" lon="6.95336">
        <ele>168.2000122</ele>
        <time>2017-07-05T16:42:16Z</time>
      </trkpt>
      <trkpt lat="43.60973" lon="6.95334">
        <ele>168.5999756</ele>
        <time>2017-07-05T16:42:17Z</time>
      </trkpt>
      <trkpt lat="43.6099" lon="6.95313">
        <ele>168.5999756</ele>
        <time>2017-07-05T16:42:25Z</time>
      </trkpt>
      <trkpt lat="43.61018" lon="6.95294">
        <ele>168</ele>
        <time>2017-07-05T16:42:36Z</time>
      </trkpt>
      <trkpt lat="43.61028" lon="6.95302">
        <ele>167.7999878</ele>
        <time>2017-07-05T16:42:42Z</time>
      </trkpt>
      <trkpt lat="43.61028" lon="6.95302">
        <ele>167.7999878</ele>
        <time>2017-07-05T16:42:50Z</time>
      </trkpt>
      <trkpt lat="43.61027" lon="6.95303">
        <ele>167.5999756</ele>
        <time>2017-07-05T16:42:51Z</time>
      </trkpt>
      <trkpt lat="43.6103" lon="6.95305">
        <ele>167.2000122</ele>
        <time>2017-07-05T16:42:54Z</time>
      </trkpt>
      <trkpt lat="43.61031" lon="6.95304">
        <ele>167</ele>
        <time>2017-07-05T16:42:55Z</time>
      </trkpt>
      <trkpt lat="43.61035" lon="6.95303">
        <ele>166.4000244</ele>
        <time>2017-07-05T16:42:57Z</time>
      </trkpt>
      <trkpt lat="43.61038" lon="6.95304">
        <ele>166.2000122</ele>
        <time>2017-07-05T16:42:59Z</time>
      </trkpt>
      <trkpt lat="43.61038" lon="6.95304">
        <ele>166.2000122</ele>
        <time>2017-07-05T16:43:03Z</time>
      </trkpt>
      <trkpt lat="43.61038" lon="6.95304">
        <ele>166.2000122</ele>
        <time>2017-07-05T16:43:15Z</time>
      </trkpt>
      <trkpt lat="43.61039" lon="6.95304">
        <ele>166.2000122</ele>
        <time>2017-07-05T16:43:26Z</time>
      </trkpt>
      <trkpt lat="43.61039" lon="6.95304">
        <ele>166.2000122</ele>
        <time>2017-07-05T16:43:39Z</time>
      </trkpt>
      <trkpt lat="43.61039" lon="6.95304">
        <ele>166.2000122</ele>
        <time>2017-07-05T16:43:55Z</time>
      </trkpt>
      <trkpt lat="43.61039" lon="6.95304">
        <ele>166.2000122</ele>
        <time>2017-07-05T16:44:13Z</time>
      </trkpt>
      <trkpt lat="43.61039" lon="6.95304">
        <ele>166.2000122</ele>
        <time>2017-07-05T16:44:29Z</time>
      </trkpt>
      <trkpt lat="43.61042" lon="6.95306">
        <ele>166.2000122</ele>
        <time>2017-07-05T16:44:42Z</time>
      </trkpt>
      <trkpt lat="43.61042" lon="6.95306">
        <ele>166.2000122</ele>
        <time>2017-07-05T16:44:55Z</time>
      </trkpt>
    </trkseg>
  </trk>
</gpx>